[[{"header":{"parameterUnit":"m.s-1","parameterCategory":1,"la1":30.6,"la2":29.2853,"lo1":-89.7004,"lo2":-87.6739,"dy":0.0162,"dx":0.0183,"nx":112,"ny":82,"refTime":"2024-02-08T18:00:00:Z","depth":0,"parameterNumber":2,"parameterNumberName":"U-component_of_WINDS"},"data":[0.0,0.0,0.0,0.0,0.0,0.0,0.0,0.0,0.0,0.0,0.0,0.0,0.0,0.0,0.0,0.0,0.0,0.0,0.0,0.0,0.0,0.0,0.0,0.0,0.0,0.0,0.0,0.0,0.0,0.0,0.0,0.0,0.0,0.0,0.0,0.0,0.0,0.0,0.0,0.0,0.0,0.0,0.0,0.0,0.0,0.0,0.0,0.0,0.0,0.0,0.0,0.0,0.0,0.0,0.0,0.0,0.0,0.0,0.0,0.0,0.0,0.0,0.0,0.0,0.0,0.0,0.0,0.0,0.0,0.0,0.0,0.0,0.0,0.0,0.0,0.0,0.0,0.0,0.0,0.0,0.0,0.0,0.0,0.0,0.0,0.0,0.0,0.0,0.0,0.0,-5.6338,-5.6101,-5.6141,-5.617,-5.618,-5.6251,-5.6278,-5.6199,0.0,0.0,0.0,0.0,0.0,0.0,0.0,0.0,0.0,0.0,0.0,0.0,0.0,0.0,0.0,0.0,0.0,0.0,0.0,0.0,0.0,0.0,0.0,0.0,0.0,0.0,0.0,0.0,0.0,0.0,0.0,0.0,0.0,0.0,0.0,0.0,0.0,0.0,0.0,0.0,0.0,0.0,0.0,0.0,0.0,0.0,0.0,0.0,0.0,0.0,0.0,0.0,0.0,0.0,0.0,0.0,0.0,0.0,0.0,0.0,0.0,0.0,0.0,0.0,0.0,0.0,0.0,0.0,0.0,0.0,0.0,0.0,0.0,0.0,0.0,0.0,0.0,0.0,0.0,0.0,0.0,0.0,0.0,0.0,0.0,0.0,0.0,0.0,0.0,0.0,0.0,0.0,0.0,0.0,0.0,0.0,0.0,0.0,0.0,0.0,0.0,0.0,0.0,0.0,-5.7637,-5.6167,-5.6062,-5.6149,-5.6218,-5.6223,-5.6199,-5.6199,0.0,0.0,0.0,0.0,0.0,0.0,0.0,0.0,0.0,0.0,0.0,0.0,0.0,0.0,0.0,0.0,0.0,0.0,0.0,0.0,0.0,0.0,0.0,0.0,0.0,0.0,0.0,0.0,0.0,0.0,0.0,0.0,0.0,0.0,0.0,0.0,0.0,0.0,0.0,0.0,0.0,0.0,0.0,0.0,0.0,0.0,0.0,0.0,0.0,0.0,0.0,0.0,0.0,0.0,0.0,0.0,0.0,0.0,0.0,0.0,0.0,0.0,0.0,0.0,0.0,0.0,0.0,0.0,0.0,0.0,0.0,0.0,0.0,0.0,0.0,0.0,0.0,0.0,0.0,0.0,0.0,0.0,0.0,0.0,0.0,0.0,0.0,0.0,0.0,0.0,0.0,0.0,0.0,0.0,0.0,0.0,0.0,0.0,0.0,0.0,0.0,0.0,0.0,-5.8836,-5.8294,-5.7482,-5.7439,-5.7473,-5.7511,-5.7521,-5.7358,-5.6877,-5.6869,0.0,0.0,0.0,0.0,0.0,0.0,0.0,0.0,0.0,0.0,0.0,0.0,0.0,0.0,0.0,0.0,0.0,0.0,0.0,0.0,0.0,0.0,0.0,0.0,0.0,0.0,0.0,0.0,0.0,0.0,0.0,0.0,0.0,0.0,0.0,0.0,0.0,0.0,0.0,0.0,0.0,0.0,0.0,0.0,0.0,0.0,0.0,0.0,0.0,0.0,0.0,0.0,0.0,0.0,0.0,0.0,0.0,0.0,0.0,0.0,0.0,0.0,0.0,0.0,0.0,0.0,0.0,0.0,0.0,0.0,0.0,0.0,0.0,0.0,0.0,0.0,0.0,0.0,0.0,0.0,0.0,0.0,0.0,0.0,0.0,0.0,0.0,0.0,0.0,0.0,0.0,0.0,0.0,0.0,0.0,0.0,0.0,0.0,0.0,0.0,0.0,0.0,-5.8913,-5.8836,-5.8604,-5.86,-5.8618,-5.8583,-5.8651,-5.8319,-5.7473,-5.7405,0.0,0.0,0.0,0.0,0.0,0.0,0.0,0.0,0.0,0.0,0.0,0.0,0.0,0.0,0.0,0.0,0.0,0.0,0.0,0.0,0.0,0.0,0.0,0.0,0.0,0.0,0.0,0.0,0.0,0.0,0.0,0.0,0.0,0.0,0.0,0.0,0.0,0.0,0.0,0.0,0.0,0.0,0.0,0.0,0.0,0.0,0.0,0.0,0.0,0.0,0.0,0.0,0.0,0.0,0.0,0.0,0.0,0.0,0.0,0.0,0.0,0.0,0.0,0.0,0.0,0.0,0.0,0.0,0.0,0.0,0.0,0.0,0.0,0.0,0.0,0.0,0.0,0.0,0.0,0.0,0.0,0.0,0.0,0.0,0.0,0.0,0.0,0.0,0.0,0.0,0.0,0.0,0.0,0.0,0.0,0.0,0.0,0.0,0.0,0.0,0.0,0.0,-5.9803,-5.9493,-5.8681,-5.8604,-5.8583,-5.8596,-5.8668,-5.8335,-5.7473,-5.7504,0.0,0.0,0.0,0.0,0.0,0.0,0.0,0.0,0.0,0.0,0.0,0.0,0.0,0.0,0.0,0.0,0.0,0.0,0.0,0.0,0.0,0.0,0.0,0.0,0.0,0.0,0.0,0.0,0.0,0.0,0.0,0.0,0.0,0.0,0.0,0.0,0.0,0.0,0.0,0.0,0.0,0.0,0.0,0.0,0.0,0.0,0.0,0.0,0.0,0.0,0.0,0.0,0.0,0.0,0.0,0.0,0.0,0.0,0.0,0.0,0.0,0.0,0.0,0.0,0.0,0.0,0.0,0.0,0.0,0.0,0.0,0.0,0.0,0.0,0.0,0.0,0.0,0.0,0.0,0.0,0.0,0.0,0.0,0.0,0.0,0.0,0.0,0.0,0.0,0.0,0.0,0.0,0.0,0.0,0.0,0.0,0.0,0.0,0.0,0.0,0.0,0.0,-6.0654,-6.0538,-6.019,-6.0151,-6.0151,-6.0169,-6.0187,-5.9839,-5.9008,0.0,0.0,0.0,0.0,0.0,0.0,0.0,0.0,0.0,0.0,0.0,0.0,0.0,0.0,0.0,0.0,0.0,0.0,0.0,0.0,0.0,0.0,0.0,0.0,0.0,0.0,0.0,0.0,0.0,0.0,0.0,0.0,0.0,0.0,0.0,0.0,0.0,0.0,0.0,0.0,0.0,0.0,0.0,0.0,0.0,0.0,0.0,0.0,0.0,0.0,0.0,0.0,0.0,0.0,0.0,0.0,0.0,0.0,0.0,0.0,0.0,0.0,0.0,0.0,0.0,0.0,0.0,0.0,0.0,0.0,0.0,0.0,0.0,0.0,0.0,0.0,0.0,0.0,0.0,0.0,0.0,0.0,0.0,0.0,0.0,0.0,0.0,0.0,0.0,0.0,0.0,0.0,0.0,0.0,0.0,0.0,0.0,0.0,0.0,0.0,0.0,0.0,-6.1099,-6.1118,-6.1118,-6.1118,-6.1118,-6.1118,-6.1118,-6.1137,-6.0788,-5.9957,0.0,0.0,0.0,0.0,0.0,0.0,0.0,0.0,0.0,0.0,0.0,0.0,0.0,0.0,0.0,0.0,0.0,0.0,0.0,0.0,0.0,0.0,0.0,0.0,0.0,0.0,0.0,0.0,0.0,0.0,0.0,0.0,0.0,0.0,0.0,0.0,0.0,0.0,0.0,0.0,0.0,0.0,0.0,0.0,0.0,0.0,0.0,0.0,0.0,0.0,0.0,0.0,0.0,0.0,0.0,0.0,0.0,0.0,0.0,0.0,0.0,0.0,0.0,0.0,0.0,0.0,0.0,0.0,0.0,0.0,0.0,0.0,0.0,0.0,0.0,0.0,0.0,0.0,0.0,0.0,0.0,0.0,0.0,0.0,0.0,0.0,0.0,0.0,0.0,0.0,0.0,0.0,0.0,0.0,0.0,0.0,0.0,0.0,0.0,0.0,0.0,0.0,-6.106,-6.1118,-6.1118,-6.1118,-6.1118,-6.1118,-6.1118,-6.1155,-6.0824,0.0,0.0,0.0,0.0,0.0,0.0,0.0,0.0,0.0,0.0,0.0,0.0,0.0,0.0,0.0,0.0,0.0,0.0,0.0,0.0,0.0,0.0,0.0,0.0,0.0,0.0,0.0,0.0,0.0,0.0,0.0,0.0,0.0,0.0,0.0,0.0,0.0,0.0,0.0,0.0,0.0,0.0,0.0,0.0,0.0,0.0,0.0,0.0,0.0,0.0,0.0,0.0,0.0,0.0,0.0,0.0,0.0,0.0,0.0,0.0,0.0,0.0,0.0,0.0,0.0,0.0,0.0,0.0,0.0,0.0,0.0,0.0,0.0,0.0,0.0,0.0,0.0,0.0,0.0,0.0,0.0,0.0,0.0,0.0,0.0,0.0,0.0,0.0,0.0,0.0,0.0,0.0,0.0,0.0,0.0,0.0,0.0,0.0,0.0,0.0,0.0,0.0,0.0,-6.106,-6.1118,-6.1118,-6.1118,-6.1118,-6.1118,-6.1118,-6.1137,-6.102,-6.077,0.0,0.0,0.0,0.0,0.0,0.0,0.0,0.0,0.0,0.0,0.0,0.0,0.0,0.0,0.0,0.0,0.0,0.0,0.0,0.0,0.0,0.0,0.0,0.0,0.0,0.0,0.0,0.0,0.0,0.0,0.0,0.0,0.0,0.0,0.0,0.0,0.0,0.0,0.0,0.0,0.0,0.0,0.0,0.0,0.0,0.0,0.0,0.0,0.0,0.0,0.0,0.0,0.0,0.0,0.0,0.0,0.0,0.0,0.0,0.0,0.0,0.0,0.0,0.0,0.0,0.0,0.0,0.0,0.0,0.0,0.0,0.0,0.0,0.0,0.0,0.0,0.0,0.0,0.0,0.0,0.0,0.0,0.0,0.0,0.0,0.0,0.0,0.0,0.0,0.0,0.0,0.0,0.0,0.0,0.0,0.0,0.0,0.0,0.0,0.0,0.0,0.0,-6.0882,-6.1022,-6.1118,-6.1118,-6.1118,-6.1118,-6.1118,-6.1118,-6.1118,-6.1118,0.0,0.0,0.0,0.0,0.0,0.0,0.0,0.0,0.0,0.0,0.0,0.0,0.0,0.0,0.0,0.0,0.0,0.0,0.0,0.0,0.0,0.0,0.0,0.0,0.0,0.0,0.0,0.0,0.0,0.0,0.0,0.0,0.0,0.0,0.0,0.0,0.0,0.0,0.0,0.0,0.0,0.0,0.0,0.0,0.0,0.0,0.0,0.0,0.0,0.0,0.0,0.0,0.0,0.0,0.0,0.0,0.0,0.0,0.0,0.0,0.0,0.0,0.0,0.0,0.0,0.0,0.0,0.0,0.0,0.0,0.0,0.0,0.0,0.0,0.0,0.0,0.0,0.0,0.0,0.0,0.0,0.0,0.0,0.0,0.0,0.0,0.0,0.0,0.0,0.0,0.0,0.0,0.0,0.0,0.0,0.0,0.0,0.0,0.0,0.0,0.0,0.0,-6.0704,-6.0962,-6.1118,-6.1118,-6.1118,-6.1118,-6.1118,-6.1118,-6.1118,-6.1118,0.0,0.0,0.0,0.0,0.0,0.0,0.0,0.0,0.0,0.0,0.0,0.0,0.0,0.0,0.0,0.0,0.0,0.0,0.0,0.0,0.0,0.0,0.0,0.0,0.0,0.0,0.0,0.0,0.0,0.0,0.0,0.0,0.0,0.0,0.0,0.0,0.0,0.0,0.0,0.0,0.0,0.0,0.0,0.0,0.0,0.0,0.0,0.0,0.0,0.0,0.0,0.0,0.0,0.0,0.0,0.0,0.0,0.0,0.0,0.0,-5.833,-5.8739,0.0,0.0,0.0,0.0,0.0,0.0,0.0,0.0,0.0,0.0,0.0,0.0,0.0,0.0,0.0,0.0,0.0,0.0,0.0,0.0,0.0,0.0,0.0,0.0,0.0,0.0,0.0,0.0,0.0,0.0,0.0,0.0,0.0,0.0,0.0,0.0,0.0,0.0,0.0,0.0,-6.0923,-6.1041,-6.1118,-6.1118,-6.1118,-6.1118,-6.1118,-6.1118,-6.1118,-6.1118,-6.1118,0.0,0.0,0.0,0.0,0.0,0.0,0.0,0.0,0.0,0.0,0.0,0.0,0.0,0.0,0.0,0.0,0.0,0.0,0.0,0.0,0.0,0.0,0.0,0.0,0.0,0.0,0.0,0.0,0.0,0.0,0.0,0.0,0.0,0.0,0.0,0.0,0.0,0.0,0.0,0.0,0.0,0.0,0.0,0.0,0.0,0.0,0.0,0.0,0.0,0.0,0.0,0.0,0.0,0.0,0.0,0.0,0.0,0.0,0.0,-5.8632,-5.8777,0.0,0.0,0.0,0.0,0.0,0.0,0.0,0.0,0.0,0.0,0.0,0.0,0.0,0.0,0.0,0.0,0.0,0.0,0.0,0.0,0.0,0.0,0.0,0.0,0.0,0.0,0.0,0.0,0.0,0.0,0.0,0.0,0.0,0.0,0.0,0.0,0.0,0.0,0.0,0.0,-6.0839,-6.1022,-6.1118,-6.1118,-6.1118,-6.1118,-6.1118,-6.1118,-6.1118,-6.1118,-6.1118,0.0,0.0,0.0,0.0,0.0,0.0,0.0,0.0,0.0,0.0,0.0,0.0,0.0,0.0,0.0,0.0,0.0,0.0,0.0,0.0,0.0,0.0,0.0,0.0,0.0,0.0,0.0,0.0,0.0,0.0,0.0,0.0,0.0,0.0,0.0,0.0,0.0,0.0,0.0,0.0,0.0,0.0,0.0,0.0,0.0,0.0,0.0,0.0,0.0,0.0,0.0,0.0,0.0,-5.8401,-5.8777,-5.8859,-5.8739,-5.8777,-5.8859,-5.8859,-5.8818,-5.8698,-5.8818,0.0,0.0,0.0,0.0,0.0,0.0,0.0,0.0,0.0,0.0,0.0,0.0,0.0,0.0,0.0,0.0,0.0,0.0,0.0,0.0,0.0,0.0,-5.929,-5.929,-5.929,-5.929,-5.929,0.0,0.0,0.0,0.0,0.0,0.0,0.0,0.0,0.0,0.0,0.0,-6.0681,-6.0941,-6.1118,-6.1118,-6.1118,-6.1118,-6.1118,-6.1118,-6.1118,-6.1118,-6.1118,-6.1118,0.0,0.0,0.0,0.0,0.0,0.0,0.0,0.0,0.0,0.0,0.0,0.0,0.0,0.0,0.0,0.0,0.0,0.0,0.0,0.0,0.0,0.0,0.0,0.0,0.0,0.0,0.0,0.0,0.0,0.0,0.0,0.0,-4.9776,-5.0617,0.0,0.0,0.0,0.0,0.0,0.0,0.0,0.0,0.0,0.0,0.0,0.0,0.0,-5.4378,-5.6017,-5.6874,-5.7769,-5.8549,-5.8661,-5.8698,-5.8735,-5.8698,-5.8698,-5.8698,-5.8698,0.0,-5.8698,-5.8698,0.0,0.0,0.0,0.0,0.0,0.0,0.0,0.0,0.0,0.0,0.0,0.0,0.0,0.0,0.0,0.0,0.0,0.0,0.0,0.0,0.0,0.0,-5.929,-5.929,-5.929,-5.929,-5.929,-5.929,-5.929,-5.929,-5.929,-5.929,0.0,0.0,0.0,0.0,0.0,0.0,-6.0704,-6.0941,-6.1118,-6.1118,-6.1118,-6.1118,-6.1118,-6.1118,-6.1118,-6.1118,-6.1118,-6.1118,-6.1118,-6.1118,0.0,0.0,0.0,0.0,0.0,0.0,0.0,0.0,0.0,0.0,0.0,0.0,0.0,0.0,0.0,0.0,0.0,0.0,0.0,0.0,0.0,0.0,0.0,0.0,0.0,0.0,0.0,0.0,0.0,-5.0098,-5.0916,-5.1538,-5.1968,-5.2232,0.0,0.0,0.0,0.0,0.0,0.0,0.0,0.0,0.0,-5.2556,-5.3489,-5.4655,-5.6035,-5.7038,-5.7918,-5.8698,-5.8698,-5.8698,-5.8698,-5.8698,-5.8698,-5.8698,-5.8698,-5.8698,-5.8698,-5.8698,-5.8698,-5.8698,0.0,0.0,0.0,0.0,-5.8777,-5.8818,-5.8818,-5.8859,-5.8899,-5.8818,0.0,0.0,0.0,0.0,0.0,0.0,0.0,-5.902,-5.902,-5.9139,-5.9253,-5.9253,-5.9253,-5.929,-5.929,-5.929,-5.929,-5.929,-5.929,-5.929,-5.929,-5.9436,0.0,0.0,0.0,-6.0311,-6.0681,-6.0795,-6.0941,-6.106,-6.1118,-6.1118,-6.1118,-6.1118,-6.1118,-6.1118,-6.1118,-6.1118,-6.1118,-6.1118,-6.1118,0.0,0.0,0.0,0.0,0.0,0.0,0.0,0.0,0.0,0.0,0.0,0.0,0.0,0.0,0.0,0.0,0.0,0.0,0.0,0.0,0.0,0.0,0.0,0.0,0.0,0.0,0.0,0.0,-5.089,-5.1347,-5.1799,-5.1799,-5.1897,0.0,0.0,0.0,0.0,0.0,0.0,-5.1551,-5.1815,-5.2222,-5.2946,-5.4117,-5.5204,-5.6317,-5.7322,-5.8103,-5.8698,-5.8698,-5.8698,-5.8698,-5.8698,-5.8698,-5.8698,-5.8698,-5.8698,-5.8698,-5.8698,-5.8698,-5.8698,-5.8698,-5.8698,-5.8698,-5.8698,-5.8739,-5.8859,-5.8739,-5.8777,-5.8818,-5.8698,-5.8698,-5.8698,-5.8698,0.0,0.0,0.0,0.0,-5.8899,-5.894,-5.9061,-5.9177,-5.9215,-5.929,-5.929,-5.929,-5.929,-5.929,-5.929,-5.929,-5.929,-5.929,-5.9364,0.0,-5.9643,-5.9804,-6.0053,-6.0418,-6.0594,-6.0773,-6.0982,-6.1041,-6.1118,-6.1118,-6.1118,-6.1118,-6.1118,-6.1118,-6.1118,-6.1118,-6.1118,-6.1118,-6.1118,0.0,0.0,0.0,0.0,0.0,0.0,0.0,0.0,0.0,0.0,0.0,0.0,0.0,0.0,0.0,0.0,0.0,0.0,0.0,0.0,0.0,0.0,0.0,0.0,0.0,0.0,0.0,0.0,0.0,-5.0285,-5.0857,0.0,0.0,0.0,0.0,-5.1601,-5.1551,-5.1551,-5.1601,-5.2315,-5.2996,-5.353,-5.5027,-5.6337,-5.739,-5.8211,-5.8661,-5.8698,-5.8698,-5.8698,-5.8698,-5.8698,-5.8698,-5.8698,-5.8698,-5.8698,-5.8698,-5.8698,-5.8698,-5.8698,-5.8698,-5.8698,-5.8698,-5.8698,-5.8698,-5.8698,-5.8698,-5.8698,-5.8698,-5.8698,-5.8698,-5.8698,-5.8698,-5.8698,0.0,0.0,-5.8818,-5.8899,-5.8982,-5.91,-5.9215,-5.9253,-5.929,-5.929,-5.929,-5.929,-5.929,-5.929,-5.929,-5.929,-5.929,0.0,-5.9677,-5.9364,-5.9798,-6.0103,-5.9868,-6.0338,-6.0704,-6.0727,-6.0962,-6.1118,-6.1118,-6.1118,-6.1118,-6.1118,-6.1118,-6.1118,-6.1118,-6.1118,-6.1118,-6.1118,-6.1118,0.0,0.0,0.0,0.0,0.0,0.0,0.0,0.0,0.0,0.0,0.0,0.0,0.0,0.0,0.0,0.0,0.0,0.0,0.0,0.0,0.0,0.0,0.0,0.0,0.0,0.0,0.0,0.0,-5.114,-5.0982,0.0,-5.1087,-5.1123,-5.1158,-5.1158,-5.1158,-5.137,-5.1811,-5.2094,-5.3016,-5.4517,-5.5446,-5.6478,-5.7744,-5.8381,-5.8698,-5.8698,-5.8698,-5.8698,-5.8698,-5.8698,-5.8698,-5.8698,-5.8698,-5.8698,-5.8698,-5.8698,-5.8698,-5.8698,-5.8698,-5.8698,-5.8698,-5.8698,-5.8698,-5.8698,-5.8698,-5.8698,-5.8698,-5.8698,-5.8698,-5.8698,-5.8698,-5.8698,-5.8698,-5.8698,-5.8739,-5.8818,-5.894,-5.8982,-5.91,-5.9215,-5.929,-5.929,-5.929,-5.929,-5.929,-5.929,-5.929,-5.929,-5.929,-5.94,-5.9436,-5.9327,-5.947,-5.9639,-5.9772,-6.0132,-6.0431,-6.0681,-6.0962,-6.1118,-6.1118,-6.1118,-6.1118,-6.1118,-6.1118,-6.1118,-6.1118,-6.1118,-6.1118,-6.1118,-6.1118,-6.1118,0.0,0.0,0.0,0.0,0.0,0.0,0.0,0.0,0.0,0.0,0.0,0.0,0.0,0.0,0.0,0.0,0.0,0.0,0.0,0.0,0.0,0.0,0.0,0.0,0.0,-5.0341,-5.0418,-5.1192,-5.0875,-5.0749,-5.1087,-5.1246,-5.1259,-5.1259,-5.1505,-5.1891,-5.2383,-5.2664,-5.3505,-5.5062,-5.5887,-5.6819,-5.7886,-5.8406,-5.8698,-5.8698,-5.8698,-5.8698,-5.8698,-5.8698,-5.8698,-5.8698,-5.8698,-5.8698,-5.8698,-5.8698,-5.8698,-5.8698,-5.8698,-5.8698,-5.8698,-5.8698,-5.8698,-5.8698,-5.8698,-5.8698,-5.8698,-5.8698,-5.8698,-5.8698,-5.8698,-5.8698,-5.8698,-5.8739,-5.8739,-5.8739,-5.894,-5.8982,-5.9022,-5.9177,-5.9253,-5.9253,-5.929,-5.929,-5.929,-5.929,-5.929,-5.929,-5.929,-5.929,-5.9327,-5.9434,-5.9364,-5.9436,-5.9777,-6.0015,-6.03,-6.052,-6.086,-6.1118,-6.1118,-6.1118,-6.1118,-6.1118,-6.1118,-6.1118,-6.1118,-6.1118,-6.1118,-6.1118,-6.1118,-6.1118,-6.1118,0.0,0.0,0.0,0.0,0.0,0.0,0.0,0.0,0.0,0.0,0.0,0.0,0.0,0.0,0.0,0.0,0.0,0.0,0.0,0.0,0.0,0.0,0.0,-5.0011,-5.0092,-5.0206,-5.0206,-5.0453,-5.062,-5.062,-5.1465,-5.2067,-5.2067,-5.2769,-5.319,-5.3225,-5.3892,-5.4564,-5.5134,-5.6428,-5.7364,-5.7923,-5.8449,-5.8698,-5.8698,-5.8698,-5.8698,-5.8698,-5.8698,-5.8698,-5.8698,-5.8698,-5.8698,-5.8698,-5.8698,-5.8698,-5.8698,-5.8698,-5.8698,-5.8698,-5.8698,-5.8698,-5.8698,-5.8698,-5.8698,-5.8698,-5.8698,-5.8698,-5.8698,-5.8698,-5.8698,-5.8698,-5.8859,-5.8818,-5.8781,-5.91,-5.9059,-5.898,-5.9253,-5.9253,-5.9215,-5.929,-5.929,-5.929,-5.929,-5.929,-5.929,-5.929,-5.929,-5.9436,-5.9744,-5.9505,0.0,-5.9744,-6.0015,-6.0217,-6.0217,-6.0734,-6.1079,-6.1118,-6.1118,-6.1118,-6.1118,-6.1118,-6.1118,-6.1118,-6.1118,-6.1118,-6.1118,-6.1118,-6.1118,-6.1118,0.0,0.0,0.0,0.0,0.0,0.0,0.0,0.0,0.0,0.0,0.0,0.0,0.0,0.0,0.0,0.0,0.0,0.0,0.0,0.0,0.0,-5.0011,-5.0011,-5.0011,-5.0206,-5.0341,-5.0341,-5.1109,-5.1625,-5.1625,-5.2418,-5.2874,-5.2874,-5.305,-5.3401,-5.3963,-5.4535,-5.5402,-5.65,-5.7304,-5.7969,-5.8449,-5.8614,-5.8698,-5.8698,-5.8698,-5.8698,-5.8698,-5.8698,-5.8698,-5.8698,-5.8698,-5.8698,-5.8698,-5.8698,-5.8698,-5.8698,-5.8698,-5.8698,-5.8698,-5.8698,-5.8698,-5.8698,-5.8698,-5.8698,-5.8698,-5.8698,-5.8698,-5.8698,-5.8698,-5.8698,-5.8698,-5.8739,-5.8698,-5.8739,-5.8984,-5.8984,-5.9061,-5.9253,-5.929,-5.929,-5.929,-5.929,-5.929,-5.929,-5.929,-5.929,-5.929,-5.929,-5.9327,-5.9436,-5.9364,-5.9327,-5.9436,-5.9706,-5.9954,-6.0189,-6.057,-6.0882,-6.106,-6.1118,-6.1118,-6.1118,-6.1118,-6.1118,-6.1118,-6.1118,-6.1118,-6.1118,-6.1118,-6.1118,0.0,0.0,0.0,0.0,0.0,0.0,0.0,0.0,0.0,0.0,0.0,0.0,0.0,0.0,0.0,0.0,0.0,0.0,0.0,0.0,0.0,0.0,-5.0011,-5.0114,-5.0448,-5.0749,-5.0885,-5.0997,-5.1864,-5.2488,-5.2488,-5.319,-5.3647,-5.3647,-5.3963,-5.4349,-5.4805,-5.5115,-5.5738,-5.6757,-5.7266,-5.7794,-5.8363,-5.8656,-5.8777,-5.8698,-5.8777,-5.8739,-5.8698,-5.8698,-5.8698,-5.8698,-5.8698,-5.8698,-5.8698,-5.8698,-5.8698,-5.8698,0.0,0.0,0.0,0.0,-5.8698,-5.8698,-5.8698,-5.8698,-5.8698,-5.8698,-5.8698,-5.8698,-5.8698,-5.8698,-5.8698,-5.8777,-5.8777,-5.8821,-5.9022,-5.9024,-5.9063,-5.9253,-5.929,-5.929,-5.929,-5.929,-5.929,-5.929,-5.929,0.0,-5.929,-5.929,-5.9364,-5.947,-5.94,-5.9363,-5.9639,-5.9868,-6.0074,-6.0379,-6.0666,-6.0941,-6.1099,-6.1118,0.0,0.0,0.0,-6.1118,-6.1118,-6.1118,0.0,0.0,0.0,-6.1118,-6.1118,-6.1118,0.0,0.0,-6.1118,-6.1155,0.0,0.0,0.0,0.0,0.0,0.0,0.0,0.0,0.0,0.0,0.0,0.0,0.0,0.0,0.0,0.0,-5.008,-5.0414,-5.1211,-5.1662,-5.1882,-5.1913,-5.2783,-5.3296,-5.3296,-5.3998,-5.4454,-5.4454,-5.5121,-5.5507,-5.5507,-5.559,0.0,0.0,0.0,-5.7692,-5.8272,-5.8874,-5.9119,-5.8958,-5.9045,-5.8967,-5.8846,-5.8735,-5.8698,-5.8698,-5.8698,-5.8698,-5.8698,-5.8698,-5.8698,-5.8698,-5.8698,-5.8698,-5.8698,-5.8698,-5.8698,-5.8698,-5.8698,0.0,0.0,-5.8698,-5.8698,-5.8698,-5.8698,-5.8698,-5.8698,-5.8859,-5.8899,-5.894,-5.91,-5.91,-5.9063,-5.9253,-5.9253,-5.9215,-5.929,-5.929,-5.929,-5.929,-5.929,-5.929,-5.929,-5.929,-5.94,-5.9711,-5.947,-5.9505,-6.0044,-6.0132,-6.0272,-6.0594,-6.0882,0.0,-6.1118,-6.1118,-6.1118,-6.1118,-6.1118,-6.1118,-6.1118,-6.1118,-6.1118,-6.1118,-6.1118,-6.1118,-6.1118,-6.1118,-6.1118,-6.1118,-6.1118,-6.1173,0.0,0.0,0.0,0.0,0.0,0.0,0.0,0.0,0.0,0.0,0.0,0.0,0.0,0.0,0.0,-5.0011,-5.0493,-5.106,-5.1523,-5.266,-5.3241,-5.2787,-5.3497,-5.4103,-5.4103,-5.4805,-5.5262,-5.5262,-5.5437,-5.5507,-5.5507,-5.6311,-5.7149,-5.7867,-5.8877,-5.9789,-6.063,-6.0795,-6.0837,-6.0757,-6.0166,0.0,-5.9664,-5.8995,-5.8698,-5.8698,-5.8698,-5.8698,-5.8698,-5.8698,-5.8698,-5.8698,-5.8698,-5.8698,-5.8698,-5.8698,-5.8698,-5.8698,-5.8698,-5.8698,-5.8698,-5.8698,-5.8698,-5.8698,-5.8698,-5.8698,0.0,-5.8698,-5.8818,-5.894,-5.9022,-5.91,-5.9177,-5.9253,-5.929,-5.9253,-5.929,-5.929,-5.929,-5.929,-5.929,-5.929,-5.929,-5.929,-5.9327,-5.94,-5.9327,-5.9364,-5.947,-5.9706,-5.9992,-6.0272,-6.0594,-6.086,-6.106,-6.1118,-6.1118,-6.1118,-6.1118,-6.1118,-6.1118,-6.1118,-6.1118,-6.1118,-6.1118,-6.1118,-6.1118,-6.1118,-6.1118,-6.1118,-6.1118,-6.1118,0.0,0.0,0.0,0.0,0.0,0.0,0.0,0.0,0.0,0.0,0.0,-4.9708,-4.986,0.0,-5.0114,-5.0493,-5.0932,-5.1533,-5.2625,-5.3509,-5.3882,-5.3672,-5.4361,-5.4911,-5.4911,-5.5262,-5.5507,-5.5507,-5.5507,-5.5507,-5.5507,-5.6369,-5.7299,-5.8275,-5.9274,-6.0231,-6.1236,-6.1363,-6.1363,-6.1284,-6.0994,-6.0729,-6.0603,-6.0194,-5.9966,-5.9924,-5.9515,-5.9292,-5.9292,-5.8884,-5.8698,-5.8698,-5.8698,-5.8698,-5.8698,-5.8698,-5.8698,-5.8698,-5.8698,-5.8698,-5.8698,-5.8698,-5.8698,-5.8698,-5.8698,-5.8698,-5.8698,-5.8777,-5.8862,-5.8982,-5.9061,-5.9177,-5.9253,-5.929,-5.929,-5.929,-5.929,-5.929,-5.929,-5.929,-5.929,-5.929,-5.929,-5.929,-5.929,-5.929,-5.929,-5.9364,-5.9505,-5.9804,-6.0103,-6.0406,-6.0712,-6.0962,-6.1099,-6.1118,-6.1118,-6.1118,-6.1118,-6.1118,-6.1118,-6.1118,-6.1118,-6.1118,-6.1118,-6.1118,-6.1118,-6.1118,-6.1118,-6.1118,-6.1118,-6.1137,0.0,0.0,0.0,0.0,0.0,0.0,0.0,-4.929,-4.9411,-4.9708,-4.9767,-4.9801,-4.9952,-5.0114,-5.0424,-5.1011,-5.144,-5.224,-5.3704,-5.4161,-5.4349,-5.4559,-5.5121,-5.5507,-5.5507,-5.5507,-5.5507,-5.5507,-5.5507,-5.5578,-5.5718,-5.6541,-5.7504,-5.8797,-5.9734,-6.0662,-6.1757,-6.1931,-6.1973,-6.1852,-6.1823,-6.167,-6.1587,-6.14,-6.1321,-6.1193,-6.0487,-6.0147,-6.011,-5.9441,-5.9107,-5.8958,-5.8958,-5.8846,-5.8698,-5.8698,-5.8698,-5.8698,-5.8698,-5.8698,-5.8698,-5.8698,-5.8698,-5.8698,-5.8698,-5.8698,-5.8777,-5.8859,-5.8942,-5.9063,-5.9177,-5.9253,-5.929,-5.929,-5.929,-5.929,-5.929,-5.929,-5.929,-5.929,-5.929,-5.929,-5.929,-5.929,-5.929,-5.929,-5.929,-5.9436,-5.9777,-6.0015,-6.0326,-6.0681,-6.0962,-6.1118,-6.1118,-6.1118,-6.1118,-6.1118,-6.1118,-6.1118,-6.1118,-6.1118,-6.1118,-6.1118,-6.1118,-6.1118,-6.1118,-6.1118,-6.1118,-6.1118,-6.1118,-6.1173,-4.7932,-4.8606,-4.8861,-4.9018,-4.9107,-4.9229,0.0,-4.953,-4.9708,-4.9918,-4.9952,-4.9952,-5.0011,-5.0562,-5.1011,-5.1114,-5.2339,-5.3454,-5.3843,-5.4615,-5.5154,-5.5367,-5.5472,-5.5507,-5.5507,-5.5507,-5.5507,-5.5507,-5.5507,-5.5788,-5.6455,-5.7621,-5.8994,-6.055,-6.1763,-6.2822,-6.378,-6.378,-6.378,-6.378,-6.311,-6.2653,-6.2491,-6.1823,-6.1446,-6.1446,-6.1251,-6.1087,-6.1038,-6.0964,-6.0481,-5.9775,-5.9775,-5.9329,-5.8698,-5.8698,-5.8698,-5.8698,-5.8698,-5.8698,-5.8698,-5.8698,-5.8698,-5.8698,-5.8698,-5.8777,-5.8859,-5.8899,-5.9059,-5.9177,-5.9177,-5.9253,-5.929,-5.929,-5.929,-5.929,-5.929,-5.929,-5.929,-5.929,-5.929,-5.929,-5.929,-5.929,-5.929,-5.929,-5.929,-5.9436,-5.9777,-6.0015,-6.0326,-6.0681,-6.0962,-6.1118,-6.1118,-6.1118,-6.1118,-6.1118,-6.1118,-6.1118,-6.1118,-6.1118,-6.1118,-6.1118,-6.1118,-6.1118,-6.1118,-6.1118,-6.1118,-6.1118,-6.1155,-6.1155,-4.777,-4.8673,-4.9018,-4.9107,-4.9168,-4.929,-4.953,-4.9649,-4.9767,-4.9952,-5.0011,-5.0011,-5.0011,-5.0597,-5.1252,-5.182,-5.2969,-5.4017,-5.4555,-5.5084,-5.5448,-5.5507,-5.5507,-5.5507,-5.5507,-5.5507,-5.5507,-5.5507,-5.5648,-5.6197,-5.7192,-5.834,-5.9677,-6.1312,-6.2401,-6.3289,-6.391,-6.4037,-6.4121,-6.4121,-6.3746,-6.3555,-6.3476,-6.314,-6.2687,-6.2197,-6.2155,-6.181,-6.1236,-6.1236,-6.1007,-6.0667,-6.0667,-6.0147,-5.9367,-5.8884,-5.8698,-5.8698,-5.8698,-5.8698,-5.8698,-5.8698,-5.8698,-5.8698,-5.8698,-5.8739,-5.8818,-5.8902,-5.9022,-5.9139,-5.9253,-5.929,-5.929,-5.929,-5.929,-5.929,-5.929,-5.929,-5.929,-5.929,-5.929,-5.929,-5.929,-5.929,-5.929,-5.929,-5.929,-5.9436,-5.9777,-6.0015,-6.0597,-6.1555,-6.222,-6.2588,-6.2588,-6.2588,-6.2588,-6.2588,-6.2588,-6.2588,-6.2588,-6.2588,-6.2356,-6.1892,-6.1853,-6.1621,-6.1118,-6.1118,-6.1118,-6.1118,-6.1173,-6.1444,-4.7901,-4.8639,-4.9046,-4.9168,-4.929,-4.9411,-4.9649,-4.9708,-4.986,-4.9952,-5.0183,-5.0321,-5.0321,-5.108,-5.2027,-5.2701,-5.3609,-5.4486,-5.5129,-5.5354,-5.5507,-5.5507,-5.5507,-5.5507,-5.5625,-5.5566,-5.5566,-5.5729,-5.6135,-5.6954,-5.8214,-5.9429,-6.0688,-6.2029,-6.3029,-6.3624,-6.391,-6.4079,-6.4162,-6.4162,-6.4162,-6.4162,-6.4162,-6.4162,-6.3784,-6.3098,-6.3056,-6.2598,-6.1991,-6.1949,-6.1794,-6.1521,-6.1521,-6.1001,-6.0184,-5.9589,-5.9107,-5.8698,-5.8698,-5.8698,-5.8698,-5.8698,-5.8698,-5.8698,-5.8698,-5.8735,-5.8781,-5.8942,-5.9022,-5.9063,-5.9215,-5.929,-5.929,-5.929,-5.929,-5.929,-5.929,-5.929,-5.929,-5.929,-5.929,-5.929,-5.929,-5.9515,-5.9666,-5.9666,-5.9853,-6.0075,-6.0247,-6.078,-6.1565,-6.2626,-6.3323,-6.371,-6.371,-6.371,-6.371,-6.371,-6.371,-6.371,-6.371,-6.371,-6.34,-6.2781,-6.2743,-6.2433,-6.1814,-6.1814,-6.1814,-6.1814,-6.187,-6.2236,-4.8923,-4.9046,-4.9168,-4.9229,-4.9471,-4.9708,-4.9708,-4.986,-5.0011,-5.0011,-5.0562,-5.108,-5.108,-5.2408,-5.3532,-5.3567,-5.4495,-5.5164,-5.5199,-5.5354,-5.5507,-5.5507,-5.5507,-5.5625,-5.5844,-5.5648,-5.5729,-5.6349,-5.7137,-5.825,-5.9684,-6.1208,-6.2382,-6.3113,-6.3883,-6.4284,-6.4284,-6.4284,-6.4284,-6.4284,-6.4284,-6.4284,-6.4284,-6.4284,-6.4244,-6.4083,-6.392,-6.3792,-6.3705,-6.3572,-6.3082,-6.2376,-6.2376,-6.1893,-6.115,-6.115,-6.011,-5.8698,-5.8698,-5.8698,-5.8698,-5.8698,-5.8698,-5.8698,-5.8698,-5.8818,-5.8899,-5.8899,-5.9059,-5.9177,-5.9177,-5.9253,-5.929,-5.929,-5.929,-5.929,-5.929,-5.929,-5.929,-5.929,-5.929,-5.929,-5.929,-6.0004,-6.0567,-6.0567,-6.1205,-6.1653,-6.1467,-6.2698,-6.3632,-6.3671,-6.3671,-6.371,-6.371,-6.371,-6.371,-6.371,-6.371,-6.371,-6.371,-6.371,-6.3671,-6.3671,-6.3671,-6.3632,-6.3594,-6.3594,-6.3594,-6.3594,-6.3612,-6.3649,-4.9018,-4.9107,-4.9229,-4.935,-4.953,-4.9708,-4.986,-4.9918,-5.0149,-5.0631,-5.0942,-5.1252,-5.177,-5.2788,-5.3662,-5.3783,-5.459,-5.5259,-5.5354,-5.5448,-5.5507,-5.5507,-5.5507,-5.5625,-5.5844,-5.5822,-5.6035,-5.6668,-5.7618,-5.8842,-6.0434,-6.1641,-6.2761,-6.3755,-6.4125,-6.4244,-6.4162,-6.4244,-6.4284,-6.4284,-6.4284,-6.4284,-6.4284,-6.4284,-6.4244,-6.4121,-6.4042,-6.3953,-6.378,-6.3736,-6.3498,-6.3193,-6.3193,-6.271,-6.2004,-6.2004,-6.1298,-6.0295,-5.9701,-5.9144,-5.8698,-5.8698,-5.8698,-5.8698,-5.8698,-5.8698,-5.8818,-5.8942,-5.9022,-5.91,-5.9215,-5.9253,-5.929,-5.929,-5.929,-5.929,-5.929,-5.929,-5.929,-5.929,-5.9778,-6.0154,-6.0154,-6.0867,-6.1581,-6.2181,-6.2183,-6.2197,-6.226,-6.3438,-6.4315,-6.4561,-6.5025,-6.5373,-6.5373,-6.5373,-6.5373,-6.5373,-6.5373,-6.5373,-6.5373,-6.5373,-6.5102,-6.4561,-6.4561,-6.429,-6.371,-6.371,-6.371,-6.371,-6.3765,-6.4072,-4.9046,-4.9168,-4.935,-4.953,-4.9649,-4.986,-4.9952,-5.0218,-5.0528,-5.1011,-5.1563,-5.208,-5.2563,-5.3437,-5.414,-5.4261,-5.486,-5.5354,-5.5507,-5.5507,-5.5507,-5.5507,-5.5507,-5.5648,-5.6146,-5.6146,-5.6474,-5.7166,-5.8432,-5.9758,-6.1124,-6.2327,-6.335,-6.4125,-6.4244,-6.4244,-6.4162,-6.4244,-6.4284,-6.4284,-6.4284,-6.4284,-6.4284,-6.4284,-6.4244,-6.4121,-6.4042,-6.3953,-6.378,-6.3736,-6.3647,-6.3602,-6.3602,-6.3305,-6.2822,-6.2822,-6.2339,-6.1484,-6.0295,-5.9589,-5.9107,-5.8809,-5.8698,-5.8698,-5.8698,-5.8698,-5.8818,-5.8942,-5.9022,-5.91,-5.9253,-5.9253,-5.929,-5.929,-5.929,-5.9403,-5.9703,-5.9778,-5.9853,-6.0154,-6.0642,-6.1017,-6.1017,-6.1731,-6.2557,-6.3383,-6.335,-6.3318,-6.3588,-6.437,-6.5072,-6.5391,-6.5876,-6.6185,-6.6185,-6.6185,-6.6185,-6.6185,-6.6185,-6.6185,-6.6185,-6.6185,-6.5953,-6.545,-6.5412,-6.5141,-6.4599,-6.4599,-6.4619,-6.4638,-6.4656,-6.5019,-4.9168,-4.935,-4.953,-4.9649,-4.9894,-5.008,-5.008,-5.0631,-5.1183,-5.1218,-5.239,-5.3425,-5.346,-5.4321,-5.4992,-5.4992,-5.5329,-5.5507,-5.5507,-5.5507,-5.5507,-5.5507,-5.5507,-5.5822,-5.6599,-5.6704,-5.7015,-5.77,-5.9448,-6.0863,-6.1649,-6.3222,-6.4162,-6.4284,-6.4284,-6.4284,-6.4284,-6.4284,-6.4284,-6.4284,-6.4284,-6.4284,-6.4284,-6.4284,-6.4203,-6.4083,-6.3958,-6.3867,-6.378,-6.3647,-6.3602,-6.3602,-6.3602,-6.3602,-6.3602,-6.3602,-6.3119,-6.2227,-6.0593,-5.9998,-5.985,-5.9069,-5.8846,-5.8846,-5.8772,-5.8855,-5.8974,-5.8899,-5.9059,-5.9252,-5.9252,-5.9328,-5.944,-5.944,-5.944,-5.9666,-6.0492,-6.068,-6.0905,-6.1656,-6.1844,-6.1881,-6.1919,-6.2595,-6.3421,-6.4172,-6.4596,-6.4951,-6.5238,-6.552,-6.5842,-6.6165,-6.6185,-6.6185,-6.6185,-6.6185,-6.6185,-6.6185,-6.6185,-6.6185,-6.6185,-6.6185,-6.6185,-6.6185,-6.6185,-6.6185,-6.6185,-6.6185,-6.6205,-6.6303,-6.6303,-6.632,-4.9168,-4.9411,-4.9649,-4.9708,-5.0273,-5.0838,-5.0838,-5.139,-5.2114,-5.2701,-5.3149,-5.3625,-5.4337,-5.4765,-5.5053,-5.5139,-5.5354,-5.5507,-5.5507,-5.5507,-5.5507,-5.5507,-5.5507,-5.5879,-5.6757,-5.7015,-5.751,-5.8363,-5.9967,-6.1156,-6.1728,-6.3263,-6.4162,-6.4284,-6.4284,-6.4284,-6.4284,-6.4284,-6.4284,-6.4284,-6.4284,-6.4284,-6.4284,-6.4203,-6.4079,-6.3958,-6.3867,-6.3736,-6.3647,-6.3691,-6.3691,-6.3602,-6.3691,-6.3736,-6.3736,-6.3647,-6.3535,-6.3289,-6.216,-6.1373,-6.0853,-6.063,-6.0555,-6.0444,-5.9897,-5.9752,-5.9723,-5.9248,-5.9588,-6.0113,-6.019,-6.0717,-6.1168,-6.1168,-6.1168,-6.1205,-6.143,-6.1468,-6.1543,-6.1768,-6.2332,-6.297,-6.3571,-6.3834,-6.4059,-6.4247,-6.4596,-6.4951,-6.5238,-6.552,-6.5842,-6.6165,-6.6185,-6.6185,-6.6185,-6.6185,-6.6185,-6.6185,-6.6185,-6.6185,-6.6185,-6.6185,-6.6185,-6.6185,-6.6185,-6.6185,-6.6185,-6.6185,-6.6205,-6.6303,-6.634,-6.6394,-4.929,-4.977,-5.0223,-5.0282,-5.0986,-5.1597,-5.1597,-5.2183,-5.2873,-5.3322,-5.3667,-5.4011,-5.4586,-5.4807,-5.5053,-5.5079,-5.5294,-5.5507,-5.5507,-5.5507,-5.5507,-5.5507,-5.5729,-5.6166,-5.7015,-5.7425,-5.8068,-5.8862,-6.0348,-6.1363,-6.1728,-6.3263,-6.4162,-6.4284,-6.4284,-6.4284,-6.4284,-6.4284,-6.4284,-6.4284,-6.4284,-6.4284,-6.4284,-6.4244,-6.4083,-6.3915,-6.3867,-6.378,-6.3691,-6.3691,-6.3691,-6.3691,-6.3736,-6.3736,-6.3691,-6.3691,-6.3691,-6.3654,-6.3082,-6.2636,-6.2153,-6.1447,-6.123,-6.1162,-6.072,-6.0733,-6.0703,-6.0374,-6.0639,-6.1016,-6.113,-6.1468,-6.1806,-6.1806,-6.1806,-6.1881,-6.2294,-6.2369,-6.2482,-6.282,-6.327,-6.3759,-6.4209,-6.4284,-6.4284,-6.4284,-6.4596,-6.4951,-6.5238,-6.552,-6.5842,-6.6165,-6.6185,-6.6185,-6.6185,-6.6185,-6.6185,-6.6185,-6.6185,-6.6185,-6.6185,-6.6185,-6.6185,-6.6185,-6.6185,-6.6185,-6.6185,-6.6185,-6.6264,-6.634,-6.6376,-6.6411,-4.9778,-5.0472,-5.1073,-5.1193,-5.1839,-5.239,-5.239,-5.2977,-5.3563,-5.3563,-5.4046,-5.4494,-5.4557,-5.4807,-5.4992,-5.5053,-5.5329,-5.5507,-5.5507,-5.5507,-5.5507,-5.5507,-5.5978,-5.6563,-5.7216,-5.7711,-5.8332,-5.9171,-6.0628,-6.1528,-6.1726,-6.3263,-6.4203,-6.4284,-6.4284,-6.4284,-6.4284,-6.4284,-6.4284,-6.4284,-6.4284,-6.4284,-6.4284,-6.4284,-6.4162,-6.3915,-6.3873,-6.3867,-6.378,-6.3691,-6.3691,-6.378,-6.378,-6.3736,-6.3647,-6.3736,-6.3691,-6.3602,-6.3602,-6.3602,-6.3379,-6.1967,-6.1571,-6.1619,-6.1549,-6.1678,-6.1876,-6.1726,-6.1842,-6.1956,-6.1956,-6.2031,-6.2106,-6.2106,-6.2106,-6.2332,-6.3083,-6.327,-6.3458,-6.4134,-6.4284,-6.4284,-6.4284,-6.4284,-6.4284,-6.4284,-6.4595,-6.4947,-6.5268,-6.552,-6.5842,-6.6165,-6.6185,-6.6185,-6.6185,-6.6185,-6.6185,-6.6185,-6.6185,-6.6185,-6.6185,-6.6185,-6.6185,-6.6185,-6.6185,-6.6185,-6.6185,-6.6185,-6.6284,-6.6376,-6.6376,-6.6428,-5.1535,-5.176,-5.1951,-5.2011,-5.2632,-5.3184,-5.3184,-5.377,-5.4322,-5.4322,-5.4425,-5.4557,-5.4869,-5.493,-5.5113,-5.5389,-5.5448,-5.5507,-5.5507,-5.5507,-5.5507,-5.5507,-5.559,-5.6014,-5.6861,-5.7029,-5.7765,-5.9368,-6.0598,-6.1487,-6.1767,-6.3383,-6.4284,-6.4284,-6.4284,-6.4284,-6.4284,-6.4284,-6.4284,-6.4284,-6.4284,-6.4284,-6.4284,-6.4203,-6.4042,-6.3873,-6.3867,-6.378,-6.378,-6.383,-6.3823,-6.378,-6.3867,-6.3823,-6.3736,-6.3647,-6.3691,-6.3736,-6.3647,-6.3647,-6.3698,-6.3438,-6.337,-6.3264,-6.2762,-6.266,-6.2588,-6.1955,-6.2332,-6.2857,-6.2857,-6.3383,-6.3871,-6.3871,-6.3871,-6.3909,-6.4059,-6.4096,-6.4134,-6.4247,-6.4284,-6.4284,-6.4284,-6.4284,-6.4284,-6.4284,-6.4848,-6.5238,-6.5299,-6.552,-6.5842,-6.6165,-6.6185,-6.6185,-6.6185,-6.6185,-6.6185,-6.6185,-6.6185,-6.6185,-6.6185,-6.6185,-6.6185,-6.6185,-6.6185,-6.6185,-6.6185,-6.6185,-6.6284,-6.6376,-6.6376,-6.6428,-5.1912,-5.2406,-5.2839,-5.2839,-5.3391,-5.3977,-5.3977,-5.4253,-5.4494,-5.4494,-5.4494,-5.4557,-5.4842,-5.493,-5.5053,-5.5294,-5.5448,-5.5507,-5.5507,-5.5507,-5.5507,-5.5507,-5.5901,-5.642,-5.6861,-5.7521,-5.8444,-5.9721,-6.0715,-6.1554,-6.213,-6.3528,-6.4284,-6.4284,-6.4284,-6.4284,-6.4284,-6.4284,-6.4284,-6.4284,-6.4284,-6.4284,-6.4284,-6.4162,-6.4,-6.3873,-6.3823,-6.3823,-6.3867,-6.3867,-6.3867,-6.3867,-6.3958,-6.391,-6.378,-6.378,-6.378,-6.378,-6.3647,-6.3691,-6.378,-6.378,-6.3823,-6.3835,-6.3593,-6.3522,-6.3488,-6.3156,-6.3383,-6.3721,-6.3721,-6.4021,-6.4284,-6.4284,-6.4284,-6.4284,-6.4284,-6.4284,-6.4284,-6.4284,-6.4284,-6.4284,-6.4284,-6.4284,-6.4284,-6.4284,-6.4705,-6.5079,-6.5268,-6.552,-6.5842,-6.6165,-6.6185,-6.6185,-6.6185,-6.6185,-6.6185,-6.6185,-6.6185,-6.6185,-6.6185,-6.6185,-6.6185,-6.6185,-6.6185,-6.6185,-6.6185,-6.6185,-6.6284,-6.6376,-6.6376,-6.6428,-5.2454,-5.306,-5.3632,-5.3632,-5.408,-5.4494,-5.4494,-5.4494,-5.4494,-5.4494,-5.4494,-5.4592,-5.478,-5.493,-5.5053,-5.5199,-5.5413,-5.5507,-5.5507,-5.5507,-5.5507,-5.5507,-5.6201,-5.6704,-5.6793,-5.7757,-5.8745,-5.9597,-6.0654,-6.1713,-6.2699,-6.3746,-6.4284,-6.4284,-6.4284,-6.4284,-6.4284,-6.4284,-6.4284,-6.4284,-6.4284,-6.4284,-6.4284,-6.4162,-6.4,-6.3873,-6.3823,-6.3823,-6.3873,-6.3823,-6.3867,-6.3873,-6.4042,-6.3995,-6.378,-6.3873,-6.3867,-6.378,-6.3647,-6.3691,-6.3823,-6.3823,-6.391,-6.3958,-6.4079,-6.4121,-6.4162,-6.4284,-6.4284,-6.4284,-6.4284,-6.4284,-6.4284,-6.4284,-6.4284,-6.4284,-6.4284,-6.4284,-6.4284,-6.4284,-6.4284,-6.4284,-6.4284,-6.4284,-6.4284,-6.4284,-6.4632,-6.4981,-6.5268,-6.5575,-6.5913,-6.6165,-6.6185,-6.6185,-6.6185,-6.6185,-6.6185,-6.6185,-6.6185,-6.6185,-6.6185,-6.6185,-6.6185,-6.6185,-6.6185,-6.6185,-6.6185,-6.6185,-6.6284,-6.6376,-6.6376,-6.6428,-5.4224,-5.4356,-5.4391,-5.4391,-5.446,-5.4494,-5.4494,-5.4494,-5.4494,-5.4494,-5.4494,-5.462,-5.493,-5.4992,-5.5113,-5.5448,-5.5507,-5.5507,-5.5507,-5.5507,-5.5507,-5.5507,-5.5822,-5.6126,-5.6437,-5.6776,-5.7309,-5.8103,-6.0199,-6.2086,-6.3512,-6.4046,-6.4284,-6.4284,-6.4284,-6.4284,-6.4284,-6.4284,-6.4284,-6.4284,-6.4284,-6.4284,-6.4284,-6.4162,-6.4,-6.3873,-6.3823,-6.378,-6.3823,-6.3867,-6.3867,-6.3823,-6.4037,-6.3995,-6.378,-6.378,-6.378,-6.378,-6.3647,-6.3736,-6.3873,-6.3915,-6.4,-6.4083,-6.4121,-6.4203,-6.4284,-6.4284,-6.4284,-6.4284,-6.4284,-6.4284,-6.4284,-6.4284,-6.4284,-6.4284,-6.4284,-6.4284,-6.4284,-6.4284,-6.4284,-6.4284,-6.4284,-6.4284,-6.4284,-6.4284,-6.481,-6.5268,-6.5299,-6.5793,-6.6165,-6.6185,-6.6185,-6.6185,-6.6185,-6.6185,-6.6185,-6.6185,-6.6185,-6.6185,-6.6185,-6.6185,-6.6185,-6.6185,-6.6185,-6.6185,-6.6185,-6.6185,-6.6284,-6.6376,-6.6376,-6.6428,-5.4431,-5.4494,-5.4494,-5.4494,-5.4494,-5.4494,-5.4494,-5.4494,-5.4494,-5.4494,-5.4592,-5.478,-5.493,-5.5053,-5.5234,-5.5448,-5.5507,-5.5507,-5.5507,-5.5507,-5.5507,-5.5507,-5.5764,-5.5957,-5.6106,-5.6528,-5.749,-5.8911,-6.075,-6.2271,-6.328,-6.3958,-6.4284,-6.4284,-6.4284,-6.4284,-6.4284,-6.4284,-6.4284,-6.4284,-6.4284,-6.4284,-6.4284,-6.4083,-6.3958,-6.3915,-6.3736,-6.3736,-6.3867,-6.3873,-6.3873,-6.3873,-6.4121,-6.4079,-6.3867,-6.3953,-6.3953,-6.3867,-6.3786,-6.383,-6.3915,-6.3915,-6.4042,-6.4244,-6.4244,-6.4203,-6.4203,-6.4284,-6.4284,-6.4284,-6.4284,-6.4284,-6.4284,-6.4284,-6.4284,-6.4284,-6.4284,-6.4284,-6.4284,-6.4284,-6.4284,-6.4284,-6.4284,-6.4284,-6.4284,-6.4284,-6.4845,-6.5299,-6.5299,-6.5856,-6.6185,-6.6185,-6.6185,-6.6185,-6.6185,-6.6185,-6.6185,-6.6185,-6.6185,-6.6185,-6.6185,-6.6185,-6.6185,-6.6185,-6.6185,-6.6185,-6.6185,-6.6264,-6.6322,-6.6376,-6.6411,-6.6717,-5.4431,-5.4494,-5.4494,-5.4494,-5.4494,-5.4494,-5.4494,-5.4494,-5.4529,-5.4592,-5.4717,-5.4842,-5.5053,-5.5139,-5.5259,-5.5448,-5.5507,-5.5507,-5.5507,-5.5507,-5.5507,-5.5507,-5.5764,-5.5901,-5.5901,-5.6311,-5.7352,-5.9256,-6.0528,-6.1679,-6.2757,-6.3624,-6.4203,-6.4284,-6.4284,-6.4284,-6.4284,-6.4284,-6.4284,-6.4284,-6.4284,-6.4284,-6.4284,-6.4042,-6.3915,-6.3915,-6.3691,-6.3691,-6.3873,-6.3873,-6.3873,-6.391,-6.4203,-6.4162,-6.3915,-6.4042,-6.4,-6.3915,-6.3915,-6.3915,-6.3915,-6.3958,-6.4083,-6.4284,-6.4284,-6.4244,-6.4203,-6.4284,-6.4284,-6.4284,-6.4284,-6.4284,-6.4284,-6.4284,-6.4284,-6.4284,-6.4284,-6.4284,-6.4284,-6.4284,-6.4284,-6.4284,-6.4284,-6.4284,-6.4284,-6.4284,-6.4845,-6.5299,-6.5299,-6.5856,-6.6185,-6.6185,-6.6185,-6.6185,-6.6185,-6.6185,-6.6185,-6.6185,-6.6185,-6.6185,-6.6185,-6.6185,-6.6185,-6.6185,-6.6185,-6.6185,-6.6185,-6.6284,-6.634,-6.6415,-6.6661,-6.7393,-5.4494,-5.4494,-5.4494,-5.4494,-5.4494,-5.4494,-5.4494,-5.4494,-5.4592,-5.478,-5.478,-5.4904,-5.5139,-5.5199,-5.5259,-5.5448,-5.5507,-5.5507,-5.5507,-5.5507,-5.5507,-5.5507,-5.5764,-5.5901,-5.5901,-5.5901,-5.6652,-5.856,-5.9078,-6.0105,-6.204,-6.3121,-6.3915,-6.4284,-6.4284,-6.4284,-6.4284,-6.4284,-6.4284,-6.4284,-6.4284,-6.4284,-6.4284,-6.4,-6.3915,-6.3873,-6.3691,-6.3647,-6.378,-6.3873,-6.3867,-6.3823,-6.4162,-6.4162,-6.3915,-6.4042,-6.4,-6.3878,-6.3915,-6.3915,-6.3915,-6.4042,-6.4203,-6.4284,-6.4284,-6.4284,-6.4284,-6.4284,-6.4284,-6.4284,-6.4284,-6.4284,-6.4284,-6.4284,-6.4284,-6.4284,-6.4284,-6.4284,-6.4284,-6.4284,-6.4284,-6.4284,-6.4284,-6.4284,-6.4284,-6.4284,-6.4845,-6.5299,-6.5299,-6.5856,-6.6185,-6.6185,-6.6185,-6.6185,-6.6185,-6.6185,-6.6185,-6.6185,-6.6185,-6.6185,-6.6185,-6.6185,-6.6185,-6.6185,-6.6185,-6.6185,-6.6185,-6.6284,-6.634,-6.6415,-6.7282,-6.8613,-5.4494,-5.4494,-5.4494,-5.4494,-5.4494,-5.4494,-5.4494,-5.4494,-5.4592,-5.478,-5.4904,-5.4992,-5.5199,-5.5354,-5.5448,-5.5507,-5.5507,-5.5507,-5.5507,-5.5507,-5.5507,-5.5507,-5.5566,-5.5625,-5.5625,-5.5822,-5.6383,-5.7526,-5.8402,-5.949,-6.0919,-6.2201,-6.3215,-6.3835,-6.4042,-6.4203,-6.4284,-6.4203,-6.4203,-6.4284,-6.4284,-6.4284,-6.4284,-6.4,-6.3915,-6.3873,-6.3691,-6.3691,-6.3873,-6.3873,-6.3915,-6.4037,-6.4203,-6.4203,-6.4042,-6.4203,-6.4162,-6.4042,-6.4162,-6.4083,-6.4042,-6.4203,-6.4284,-6.4284,-6.4284,-6.4284,-6.4284,-6.4284,-6.4284,-6.4284,-6.4284,-6.4284,-6.4284,-6.4284,-6.4284,-6.4284,-6.4284,-6.4284,-6.4284,-6.4284,-6.4284,-6.4284,-6.4284,-6.4284,-6.4284,-6.4284,-6.4845,-6.5299,-6.5299,-6.5856,-6.6185,-6.6185,-6.6185,-6.6185,-6.6185,-6.6185,-6.6185,-6.6185,-6.6185,-6.6185,-6.6185,-6.6185,-6.6185,-6.6185,-6.6185,-6.6185,-6.6185,-6.6322,-6.6704,-6.7409,-6.8807,-6.9756,-5.4494,-5.4494,-5.4494,-5.4494,-5.4494,-5.4494,-5.4494,-5.4494,-5.4557,-5.4842,-5.493,-5.5053,-5.5294,-5.5448,-5.5507,-5.5507,-5.5507,-5.5507,-5.5507,-5.5507,-5.5507,-5.5507,-5.5507,-5.5507,-5.5507,-5.5648,-5.6082,-5.6858,-5.7646,-5.8595,-5.9629,-6.0991,-6.2004,-6.2498,-6.3556,-6.4042,-6.392,-6.4083,-6.4203,-6.4244,-6.4244,-6.4244,-6.4203,-6.3995,-6.3873,-6.3873,-6.3736,-6.378,0.0,-6.3958,-6.4,-6.4083,-6.4244,-6.4203,-6.4121,-6.4244,-6.4203,-6.4121,-6.4244,-6.4203,-6.4121,-6.4244,-6.4284,-6.4284,-6.4284,-6.4284,-6.4284,-6.4284,-6.4284,-6.4284,-6.4284,-6.4284,-6.4284,-6.4284,-6.4284,-6.4284,-6.4284,-6.4284,-6.4284,-6.4284,-6.4284,-6.4284,-6.4284,-6.4284,-6.4364,-6.4482,-6.4947,-6.5329,-6.5446,-6.5905,-6.6185,-6.6185,-6.6185,-6.6185,-6.6185,-6.6185,-6.6185,-6.6185,-6.6185,-6.6185,-6.6185,-6.6185,-6.6185,-6.6185,-6.6185,-6.6185,-6.6185,-6.665,-6.7497,-6.8785,-6.9811,-7.0471,0.0,-5.4494,-5.4494,-5.4494,-5.4494,-5.4494,-5.4494,-5.4494,0.0,-5.493,-5.4992,-5.5113,-5.5448,-5.5507,-5.5507,-5.5507,-5.5507,-5.5507,-5.5507,-5.5507,-5.5507,-5.5507,-5.5507,-5.5507,-5.5507,-5.5507,-5.5788,-5.6455,-5.6858,-5.7423,-5.8131,-5.9593,-6.0358,-6.0375,-6.265,-6.3674,-6.3234,-6.3878,-6.4162,-6.4121,-6.4121,-6.4121,-6.4079,-6.3867,-6.3823,-6.3873,-6.3823,-6.3867,-6.3878,-6.4042,-6.4121,-6.4162,-6.4244,-6.4244,-6.4162,-6.4244,-6.4244,-6.4162,-6.4244,-6.4244,-6.4162,-6.4244,-6.4284,-6.4284,-6.4284,-6.4284,-6.4284,-6.4284,-6.4284,-6.4284,-6.4284,-6.4284,-6.4284,-6.4284,-6.4284,-6.4284,-6.4284,-6.4284,-6.4284,-6.4284,-6.4284,-6.4284,-6.4284,-6.4284,-6.4405,-6.4741,-6.5079,-6.5417,-6.568,-6.5997,-6.6185,-6.6185,-6.6185,-6.6185,-6.6185,-6.6185,-6.6185,-6.6185,-6.6185,-6.6185,-6.6185,-6.6185,-6.6185,-6.6185,-6.6263,-6.6301,-6.6322,-6.7309,-6.8661,-7.0287,-7.0377,-7.0821,-5.4494,0.0,-5.4494,-5.4494,-5.4494,-5.4494,0.0,-5.4494,-5.4557,-5.493,-5.4992,-5.5113,-5.5448,-5.5507,-5.5507,-5.5507,-5.5507,-5.5507,-5.5507,-5.5507,-5.5507,-5.5507,-5.5507,-5.5507,-5.5507,-5.5507,-5.5578,-5.5753,-5.634,-5.6786,-5.6997,-5.8316,-5.9202,-5.9345,-6.0846,-6.2132,-6.3131,-6.3178,-6.3445,-6.3958,-6.3958,-6.3958,-6.3958,-6.3823,-6.378,-6.3823,-6.378,-6.3823,-6.3915,-6.4042,-6.4162,-6.4244,-6.4284,-6.4284,-6.4244,-6.4284,-6.4284,-6.4244,-6.4284,-6.4284,-6.4244,-6.4284,-6.4284,-6.4284,-6.4284,-6.4284,-6.4284,-6.4284,-6.4284,-6.4284,-6.4284,-6.4284,-6.4284,-6.4284,-6.4284,-6.4284,-6.4284,-6.4284,-6.4284,-6.4284,-6.4284,-6.4284,-6.4284,-6.4284,-6.4405,-6.4741,-6.5079,-6.5417,-6.568,-6.5997,-6.6185,-6.6185,-6.6185,-6.6185,-6.6185,-6.6185,-6.6185,-6.6185,-6.6185,-6.6185,-6.6185,-6.6185,-6.6185,-6.6185,-6.6843,-6.7232,-6.727,-6.8839,-6.9825,-7.0338,-7.0976,-7.1403,-5.4494,-5.4494,-5.4494,-5.4494,-5.4494,-5.4494,-5.4494,-5.4494,-5.4557,-5.493,-5.4992,-5.5113,-5.5448,-5.5507,-5.5507,-5.5507,-5.5507,-5.5507,-5.5507,-5.5507,-5.5507,-5.5507,-5.5507,-5.5507,-5.5507,-5.5507,-5.5507,-5.5507,-5.5894,-5.6104,-5.6104,-5.7164,-5.7765,-5.7895,-5.9277,-6.0735,-6.2198,-6.2745,-6.3168,-6.3445,-6.3742,-6.3873,-6.3873,-6.378,-6.3736,-6.3867,-6.3867,-6.3867,-6.3915,-6.4121,-6.4244,-6.4284,-6.4284,-6.4284,-6.4284,-6.4284,-6.4284,-6.4284,-6.4284,-6.4284,-6.4284,-6.4284,-6.4284,-6.4284,-6.4284,-6.4284,-6.4284,-6.4284,-6.4284,-6.4284,-6.4284,-6.4284,-6.4284,-6.4284,-6.4284,-6.4284,-6.4284,-6.4284,-6.4284,-6.4284,-6.4284,-6.4284,-6.4284,-6.4284,-6.4405,-6.4741,-6.5079,-6.5417,-6.568,-6.5997,-6.6185,-6.6185,-6.6185,-6.6185,-6.6185,-6.6185,-6.6185,-6.6185,-6.6185,-6.6185,-6.6185,-6.6185,-6.6379,-6.6804,-6.7268,-6.7928,-6.8743,-6.9711,-7.0446,-7.0904,-7.1387,-7.1598,-5.4494,-5.4494,-5.4494,-5.4494,-5.4494,-5.4494,-5.4494,-5.4494,-5.4557,-5.4869,-5.4992,-5.5113,-5.5389,-5.5507,-5.5507,-5.5507,-5.5507,-5.5507,-5.5507,-5.5507,-5.5507,-5.5507,-5.5507,-5.5507,-5.5507,-5.5507,-5.5507,-5.5507,-5.5507,-5.5507,-5.5507,-5.6104,-5.649,-5.6596,-5.793,-5.9329,-6.0867,-6.2266,-6.2892,-6.2843,-6.3474,-6.378,-6.383,-6.3691,-6.3691,-6.3873,-6.3915,-6.3915,-6.3958,-6.4203,-6.4284,-6.4284,-6.4284,-6.4284,-6.4284,-6.4284,-6.4284,-6.4284,-6.4284,-6.4284,-6.4284,-6.4284,-6.4284,-6.4284,-6.4284,-6.4284,-6.4284,-6.4284,-6.4284,-6.4284,-6.4284,-6.4284,-6.4284,-6.4284,-6.4284,-6.4284,-6.4284,-6.4284,-6.4284,-6.4284,-6.4284,-6.4284,-6.4284,-6.4284,-6.4405,-6.4813,-6.5112,-6.5417,-6.573,-6.6019,-6.6185,-6.6185,-6.6185,-6.6185,-6.6185,-6.6185,-6.6185,-6.6185,-6.6185,-6.6185,-6.6185,-6.634,-6.6766,-6.7501,-6.7771,-6.8625,-7.0118,-7.0312,-7.0834,-7.1607,-7.1581,-7.1598,-5.4494,-5.4494,-5.4494,-5.4494,-5.4494,-5.4494,-5.4494,-5.4494,-5.4557,-5.478,-5.493,-5.5053,-5.5199,-5.5354,-5.5507,-5.5507,-5.5507,-5.5507,-5.5507,-5.5507,-5.5507,-5.5507,-5.5507,-5.5507,-5.5507,-5.5507,-5.5507,-5.5507,-5.5507,-5.5507,-5.5507,-5.5613,-5.5964,-5.6561,-5.6842,-5.7745,-5.9311,-6.1184,-6.2287,-6.2745,-6.3336,-6.3647,-6.3647,-6.3602,-6.3691,-6.3823,-6.3873,-6.3958,-6.4042,-6.4244,-6.4284,-6.4284,-6.4284,-6.4284,-6.4284,-6.4284,-6.4284,-6.4284,-6.4284,-6.4284,-6.4284,-6.4284,-6.4284,-6.4284,-6.4284,-6.4284,-6.4284,-6.4284,-6.4284,-6.4284,-6.4284,-6.4284,-6.4284,-6.4284,-6.4284,-6.4284,-6.4284,-6.4284,-6.4284,-6.4284,-6.4284,-6.4284,-6.4284,-6.4284,-6.4521,-6.5112,-6.5268,-6.5503,-6.6041,-6.6165,-6.6185,-6.6185,-6.6185,-6.6185,-6.6185,-6.6185,-6.6185,-6.6185,-6.6185,-6.6185,-6.6185,-6.692,-6.7346,-6.7501,-6.8935,-6.9847,-7.0215,-7.0989,-7.1469,-7.1581,-7.1598,-7.1598,-5.4494,-5.4494,-5.4494,-5.4494,-5.4494,-5.4494,-5.4494,-5.4592,-5.4717,-5.478,-5.493,-5.5139,-5.5199,-5.5354,-5.5507,-5.5507,-5.5507,-5.5507,-5.5507,-5.5507,-5.5507,-5.5507,-5.5507,-5.5507,-5.5507,-5.5507,-5.5507,-5.5507,-5.5507,-5.5507,-5.5507,-5.5507,-5.5683,-5.5999,-5.6385,-5.6947,-5.7719,-5.9737,-6.1262,-6.2287,-6.3158,-6.3647,-6.378,-6.3647,-6.3736,-6.3953,-6.3915,-6.3958,-6.4121,-6.4244,-6.4284,-6.4284,-6.4284,-6.4284,-6.4284,-6.4284,-6.4284,-6.4284,-6.4284,-6.4284,-6.4284,-6.4284,-6.4284,-6.4284,-6.4284,-6.4284,-6.4284,-6.4284,-6.4284,-6.4284,-6.4284,-6.4284,-6.4284,-6.4284,-6.4284,-6.4284,-6.4284,-6.4284,-6.4284,-6.4284,-6.4284,-6.4284,-6.4284,-6.4284,-6.4444,-6.4947,-6.5175,-6.5475,-6.5866,-6.6063,-6.6185,-6.6185,-6.6185,-6.6185,-6.6185,-6.6185,-6.6185,-6.6185,-6.6185,-6.6417,-6.6882,-6.7307,-6.7926,-6.8816,-6.9691,-7.035,-7.0913,-7.1395,-7.1586,-7.1598,-7.1598,-7.1598,-5.4494,-5.4494,-5.4494,-5.4494,-5.4494,-5.4494,-5.4494,-5.4655,-5.4717,-5.4717,-5.493,-5.5139,-5.5139,-5.5354,-5.5507,-5.5507,-5.5507,-5.5507,-5.5507,-5.5507,-5.5507,-5.5507,-5.5507,-5.5507,-5.5507,-5.5507,-5.5507,-5.5507,-5.5507,-5.5507,-5.5507,-5.5507,-5.5507,-5.5507,-5.6069,-5.642,-5.6596,-5.8378,-5.9967,-6.1443,-6.2757,-6.3519,-6.3661,-6.3647,-6.378,-6.4083,-6.3958,-6.4,-6.4162,-6.4244,-6.4284,-6.4284,-6.4284,-6.4284,-6.4284,-6.4284,-6.4284,-6.4284,-6.4284,-6.4284,-6.4284,-6.4284,-6.4284,-6.4284,-6.4284,-6.4284,-6.4284,-6.4284,-6.4284,-6.4284,-6.4284,-6.4284,-6.4284,-6.4284,-6.4284,-6.4284,-6.4284,-6.4284,-6.4284,-6.4284,-6.4284,-6.4284,-6.4284,-6.4284,-6.4444,-6.4882,-6.5144,-6.5446,-6.5755,-6.6041,-6.6185,-6.6185,-6.6185,-6.6263,-6.6495,-6.6495,-6.6572,-6.6804,-6.6611,-6.6882,-6.7771,-6.8003,-6.87,-6.9976,-7.0271,-7.0796,-7.1494,-7.155,-7.1603,-7.1598,-7.1598,-7.1598,-5.4494,-5.4494,-5.4494,-5.4494,-5.4494,-5.4494,-5.4494,-5.4494,-5.4494,-5.4494,-5.4807,-5.4992,-5.4992,-5.5234,-5.5507,-5.5507,-5.5507,-5.5507,-5.5507,-5.5507,-5.5507,-5.5507,-5.5507,-5.5507,-5.5507,-5.5507,-5.5507,-5.5507,-5.5507,-5.5507,-5.5507,-5.5507,-5.5507,-5.5507,-5.5578,-5.5929,-5.6596,-5.7313,-5.8438,-5.9996,-6.187,-6.2843,-6.3025,-6.3428,-6.378,-6.4083,-6.3958,-6.4042,-6.4284,-6.4284,-6.4284,-6.4284,-6.4284,-6.4284,-6.4284,-6.4284,-6.4284,-6.4284,-6.4284,-6.4284,-6.4284,-6.4284,-6.4284,-6.4284,-6.4284,-6.4284,-6.4284,-6.4284,-6.4284,-6.4284,-6.4284,-6.4284,-6.4284,-6.4284,-6.4284,-6.4284,-6.4284,-6.4284,-6.4284,-6.4284,-6.4284,-6.4284,-6.4284,-6.4284,-6.4521,-6.5175,-6.5268,-6.5503,-6.6102,-6.6185,-6.6185,-6.6185,-6.6185,-6.6533,-6.7346,-6.7423,-6.7771,-6.8545,-6.7849,-6.781,-6.8661,-6.9435,-6.986,-6.9976,-7.0932,-7.1417,-7.1494,-7.1547,-7.1598,-7.1598,-7.1598,-7.1598,-5.4494,-5.4494,-5.4494,-5.4494,-5.4494,-5.4494,-5.4494,-5.4592,-5.4655,-5.4529,-5.4869,-5.5139,-5.5294,-5.5448,-5.5507,-5.5507,-5.5507,-5.5507,-5.5507,-5.5507,-5.5507,-5.5507,-5.5507,-5.5507,-5.5507,-5.5507,-5.5507,-5.5507,-5.5507,-5.5507,-5.5507,-5.5507,-5.5507,-5.5507,-5.5507,-5.5648,-5.5929,-5.6588,-5.7433,-5.8345,-6.0799,-6.2546,-6.3527,-6.3654,-6.391,-6.4203,-6.4083,-6.4162,-6.4284,-6.4284,-6.4284,-6.4284,-6.4284,-6.4284,-6.4284,-6.4284,-6.4284,-6.4284,-6.4284,-6.4284,-6.4284,-6.4284,-6.4284,-6.4284,-6.4284,-6.4284,-6.4284,-6.4284,-6.4284,-6.4284,-6.4284,-6.4284,-6.4284,-6.4284,-6.4284,-6.4284,-6.4284,-6.4284,-6.4284,-6.4284,-6.4284,-6.4284,-6.4284,-6.4284,-6.4521,-6.5207,-6.5299,-6.5531,-6.6123,-6.6185,-6.6185,-6.6185,-6.6688,-6.7346,-6.8236,-6.8313,-6.8661,-6.9473,-6.8777,-6.87,-6.9512,-6.9821,-7.0268,-7.0852,-7.13,-7.1513,-7.1571,-7.1603,-7.1598,-7.1598,-7.1598,-7.1598,-5.4494,-5.4494,-5.4494,-5.4494,-5.4494,-5.4494,-5.4494,-5.4592,-5.4717,-5.4592,-5.493,-5.5259,-5.5448,-5.5507,-5.5507,-5.5507,-5.5507,-5.5507,-5.5507,-5.5507,-5.5507,-5.5507,-5.5507,-5.5507,-5.5507,-5.5507,-5.5507,-5.5507,-5.5507,-5.5507,-5.5507,-5.5507,-5.5507,-5.5507,-5.5507,-5.5507,-5.5507,-5.5999,-5.6728,-5.7693,-5.9656,-6.1492,-6.3252,-6.3631,-6.3995,-6.4284,-6.4162,-6.4203,-6.4284,-6.4284,-6.4284,-6.4284,-6.4284,-6.4284,-6.4284,-6.4284,-6.4284,-6.4284,-6.4284,-6.4284,-6.4284,-6.4284,-6.4284,-6.4284,-6.4284,-6.4284,-6.4284,-6.4284,-6.4284,-6.4284,-6.4284,-6.4284,-6.4284,-6.4284,-6.4284,-6.4284,-6.4284,-6.4284,-6.4284,-6.4284,-6.4284,-6.4284,-6.4284,-6.4284,-6.4521,-6.5207,-6.5299,-6.5531,-6.6123,-6.6185,-6.6301,-6.6572,-6.7384,-6.8236,-6.9125,-6.9164,-6.9512,-7.0363,-6.9899,-6.9821,-7.0402,-7.0402,-7.0694,-7.1376,-7.1475,-7.1513,-7.1607,-7.162,-7.1598,-7.1598,-7.1598,-7.1598,-5.4494,-5.4494,-5.4494,-5.4494,-5.4494,-5.4494,-5.4494,-5.4494,-5.4592,-5.478,-5.4992,-5.5259,-5.5448,-5.5507,-5.5507,-5.5507,-5.5507,-5.5507,-5.5507,-5.5507,-5.5507,-5.5507,-5.5507,-5.5507,-5.5507,-5.5507,-5.5507,-5.5507,-5.5507,-5.5507,-5.5507,-5.5507,-5.5507,-5.5507,-5.5507,-5.5507,-5.5507,-5.5507,-5.6425,-5.8275,-5.8275,-5.9529,-6.1828,-6.3201,-6.3995,-6.4284,-6.4162,-6.4203,-6.4284,-6.4284,-6.4284,-6.4284,-6.4284,-6.4284,-6.4284,-6.4284,-6.4284,-6.4284,-6.4284,-6.4284,-6.4284,-6.4284,-6.4284,-6.4284,-6.4284,-6.4284,-6.4284,-6.4284,-6.4284,-6.4284,-6.4284,-6.4284,-6.4284,-6.4284,-6.4284,-6.4284,-6.4284,-6.4284,-6.4284,-6.4284,-6.4284,-6.4284,-6.4284,-6.4284,-6.4521,-6.5207,-6.5299,-6.5531,-6.6123,-6.6224,-6.6533,-6.7423,-6.8313,-6.9125,-6.9938,-7.0015,-7.0363,-7.1253,-7.1291,-7.1291,-7.1291,-7.1291,-7.1313,-7.1415,-7.1475,-7.1513,-7.1607,-7.162,-7.1598,-7.1598,-7.1598,-7.1598,-5.4494,-5.4494,-5.4494,-5.4494,-5.4494,-5.4494,-5.4494,-5.4494,-5.4557,-5.4869,-5.5079,-5.5259,-5.5448,-5.5507,-5.5507,-5.5507,-5.5507,-5.5507,-5.5507,-5.5507,-5.5507,-5.5507,-5.5507,-5.5507,-5.5507,-5.5507,-5.5507,-5.5507,-5.5507,-5.5507,-5.5507,-5.5507,-5.5507,-5.5507,-5.5507,-5.5507,-5.5507,-5.5844,-5.6527,-5.7478,-5.8422,-6.013,-6.2433,-6.286,-6.3476,-6.4284,-6.4244,-6.4244,-6.4284,-6.4284,-6.4284,-6.4284,-6.4284,-6.4284,-6.4284,-6.4284,-6.4284,-6.4284,-6.4284,-6.4284,-6.4284,-6.4284,-6.4284,-6.4284,-6.4284,-6.4284,-6.4284,-6.4284,-6.4284,-6.4284,-6.4284,-6.4284,-6.4284,-6.4284,-6.4284,-6.4284,-6.4284,-6.4284,-6.4284,-6.4284,-6.4284,-6.4284,-6.4284,-6.4284,-6.4521,-6.5207,-6.5299,-6.5761,-6.6973,-6.7114,-6.7655,-6.9087,-6.9473,-6.9976,-7.0827,-7.0905,-7.1021,-7.1291,-7.1291,-7.1291,-7.1291,-7.1291,-7.1334,-7.1475,-7.1475,-7.1532,-7.162,-7.1598,-7.1598,-7.1598,-7.1598,-7.1598,-5.4494,-5.4494,-5.4494,-5.4494,-5.4494,-5.4494,-5.4494,-5.462,-5.4745,-5.493,-5.5174,-5.5354,-5.5507,-5.5507,-5.5507,-5.5507,-5.5507,-5.5507,-5.5507,-5.5507,-5.5507,-5.5507,-5.5507,-5.5507,-5.5507,-5.5507,-5.5507,-5.5507,-5.5507,-5.5507,-5.5507,-5.5507,-5.5507,-5.5507,-5.5507,-5.5625,-5.5822,-5.6146,-5.6652,-5.7413,-5.8307,-5.9775,-6.1786,-6.2421,-6.3106,-6.3834,-6.4134,-6.4284,-6.4284,-6.4284,-6.4284,-6.4284,-6.4284,-6.4284,-6.4284,-6.4284,-6.4284,-6.4284,-6.4284,-6.4284,-6.4284,-6.4284,-6.4284,-6.4284,-6.4284,-6.4284,-6.4284,-6.4284,-6.4284,-6.4284,-6.4284,-6.4284,-6.4284,-6.4284,-6.4284,-6.4284,-6.4284,-6.4284,-6.4284,-6.4284,-6.4284,-6.4284,-6.4284,-6.4405,-6.4669,-6.5207,-6.5503,-6.6076,-6.7343,-6.781,-6.8545,-6.986,-7.0324,-7.0711,-7.1253,-7.1291,-7.1291,-7.1291,-7.1291,-7.1291,-7.1291,-7.1291,-7.1355,-7.1494,-7.1494,-7.155,-7.1598,-7.1598,-7.1598,-7.1598,-7.1598,-7.1598,-5.4494,-5.4494,-5.4494,-5.4494,-5.4494,-5.4494,-5.4494,-5.4745,-5.4992,-5.4992,-5.5234,-5.5507,-5.5507,-5.5507,-5.5507,-5.5507,-5.5507,-5.5507,-5.5507,-5.5507,-5.5507,-5.5507,-5.5507,-5.5507,-5.5507,-5.5507,-5.5507,-5.5507,-5.5507,-5.5507,-5.5507,-5.5507,-5.5507,-5.5507,-5.5507,-5.5764,-5.6311,-5.6366,-5.6912,-5.7923,-5.8105,-5.8863,-6.0257,-6.1786,-6.2694,-6.3158,-6.3946,-6.4284,-6.4284,-6.4284,-6.4284,-6.4284,-6.4284,-6.4284,-6.4284,-6.4284,-6.4284,-6.4284,-6.4284,-6.4284,-6.4284,-6.4284,-6.4284,-6.4284,-6.4284,-6.4284,-6.4284,-6.4284,-6.4284,-6.4284,-6.4284,-6.4284,-6.4284,-6.4284,-6.4284,-6.4284,-6.4284,-6.4284,-6.4284,-6.4284,-6.4284,-6.4284,-6.4284,-6.4596,-6.4913,-6.5299,-6.5818,-6.6533,-6.7501,-6.8313,-6.9125,-7.0015,-7.0827,-7.1291,-7.1291,-7.1291,-7.1291,-7.1291,-7.1291,-7.1291,-7.1291,-7.1291,-7.1334,-7.1475,-7.1494,-7.1532,-7.1598,-7.1598,-7.1598,-7.1598,-7.1598,-7.1598,-5.4494,-5.4494,-5.4494,-5.4494,-5.4494,-5.4494,-5.4494,-5.4717,-5.4904,-5.4992,-5.5174,-5.5354,-5.5448,-5.5507,-5.5507,-5.5507,-5.5507,-5.5507,-5.5507,-5.5507,-5.5507,-5.5507,-5.5507,-5.5507,-5.5507,-5.5507,-5.5507,-5.5507,-5.5507,-5.5507,-5.5507,-5.5507,-5.5507,-5.5507,-5.5507,-5.5764,-5.6311,-5.6809,-5.7413,-5.806,-5.854,-5.9017,-5.9438,-6.0449,-6.1689,-6.3158,-6.3946,-6.4284,-6.4284,-6.4284,-6.4284,-6.4284,-6.4284,-6.4284,-6.4284,-6.4284,-6.4284,-6.4284,-6.4284,-6.4284,-6.4284,-6.4284,-6.4284,-6.4284,-6.4284,-6.4284,-6.4284,-6.4284,-6.4284,-6.4284,-6.4284,-6.4284,-6.4284,-6.4284,-6.4284,-6.4284,-6.4284,-6.4284,-6.4284,-6.4284,-6.4284,-6.4284,-6.4284,-6.4596,-6.4981,-6.5548,-6.5974,-6.6766,-6.8313,-6.87,-6.9357,-7.0866,-7.1175,-7.1291,-7.1291,-7.1291,-7.1291,-7.1291,-7.1291,-7.1291,-7.1291,-7.1291,-7.1334,-7.1435,-7.1435,-7.1475,-7.1624,-7.1624,-7.1603,-7.1598,-7.1598,-7.1598,-5.4494,-5.4494,-5.4494,-5.4494,-5.4494,-5.4494,-5.4494,-5.4592,-5.4717,-5.4904,-5.5053,-5.5259,-5.5354,-5.5448,-5.5507,-5.5507,-5.5507,-5.5507,-5.5507,-5.5507,-5.5507,-5.5507,-5.5507,-5.5507,-5.5507,-5.5507,-5.5507,-5.5507,-5.5507,-5.5507,-5.5507,-5.5507,-5.5507,-5.5507,-5.5507,-5.5822,-5.6474,-5.7015,-5.7606,-5.8319,-5.8825,-5.9177,-5.929,-6.0115,-6.1467,-6.312,-6.3533,-6.3946,-6.4284,-6.4284,-6.4284,-6.4284,-6.4284,-6.4284,-6.4284,-6.4284,-6.4284,-6.4284,-6.4284,-6.4284,-6.4284,-6.4284,-6.4284,-6.4284,-6.4284,-6.4284,-6.4284,-6.4284,-6.4284,-6.4284,-6.4284,-6.4284,-6.4284,-6.4284,-6.4284,-6.4284,-6.4284,-6.4284,-6.4284,-6.4284,-6.4284,-6.4284,-6.4284,-6.4705,-6.523,-6.5842,-6.6063,-6.6843,-6.8584,-6.8816,-6.9435,-7.1137,-7.1291,-7.1291,-7.1291,-7.1291,-7.1291,-7.1291,-7.1291,-7.1291,-7.1291,-7.1291,-7.1313,-7.1415,-7.1435,-7.1494,-7.1607,-7.1586,-7.162,-7.1598,-7.1598,-7.1598,-5.4494,-5.4494,-5.4494,-5.4494,-5.4494,-5.4494,-5.4494,-5.4494,-5.4592,-5.4717,-5.493,-5.5139,-5.5199,-5.5354,-5.5448,-5.5507,-5.5507,-5.5507,-5.5507,-5.5507,-5.5507,-5.5507,-5.5507,-5.5507,-5.5507,-5.5507,-5.5507,-5.5507,-5.5507,-5.5507,-5.5507,-5.5507,-5.5507,-5.5507,-5.5507,-5.5901,-5.6809,-5.7166,-5.7747,-5.8656,-5.9022,-5.9253,-5.9328,-6.0041,-6.1205,-6.267,-6.297,-6.3458,-6.4096,-6.4247,-6.4284,-6.4284,-6.4284,-6.4284,-6.4284,-6.4284,-6.4284,-6.4284,-6.4284,-6.4284,-6.4284,-6.4284,-6.4284,-6.4284,-6.4284,-6.4284,-6.4284,-6.4284,-6.4284,-6.4284,-6.4284,-6.4284,-6.4284,-6.4284,-6.4284,-6.4284,-6.4284,-6.4284,-6.4284,-6.4284,-6.4364,-6.4366,-6.4444,-6.4981,-6.5559,-6.6123,-6.6185,-6.6766,-6.839,-6.87,-6.9396,-7.0905,-7.1214,-7.1291,-7.1291,-7.1291,-7.1291,-7.1291,-7.1291,-7.1291,-7.1291,-7.1291,-7.1313,-7.1355,-7.1455,-7.1494,-7.1589,-7.1603,-7.1598,-7.1598,-7.1598,-7.1598,-5.4494,-5.4494,-5.4494,-5.4494,-5.4494,-5.4494,-5.4494,-5.4494,-5.4529,-5.4494,-5.4717,-5.493,-5.5139,-5.5199,-5.5294,-5.5448,-5.5507,-5.5507,-5.5507,-5.5507,-5.5507,-5.5507,-5.5507,-5.5507,-5.5507,-5.5507,-5.5507,-5.5507,-5.5507,-5.5507,-5.5507,-5.5507,-5.5507,-5.5507,-5.5507,-5.607,-5.7216,-5.734,-5.7949,-5.91,-5.9253,-5.929,-5.929,-5.9403,-6.0004,-6.1017,-6.2482,-6.3158,-6.3308,-6.4021,-6.4284,-6.4284,-6.4284,-6.4284,-6.4284,-6.4284,-6.4284,-6.4284,-6.4284,-6.4284,-6.4284,-6.4284,-6.4284,-6.4284,-6.4284,-6.4284,-6.4284,-6.4284,-6.4284,-6.4284,-6.4284,-6.4284,-6.4284,-6.4284,-6.4284,-6.4284,-6.4284,-6.4284,-6.4284,-6.4284,-6.4521,-6.4848,-6.5112,-6.5437,-6.5755,-6.6144,-6.6185,-6.6572,-6.7539,-6.8352,-6.9164,-7.0092,-7.0827,-7.1291,-7.1291,-7.1291,-7.1291,-7.1291,-7.1291,-7.1291,-7.1291,-7.1291,-7.1291,-7.1313,-7.1394,-7.1455,-7.1494,-7.155,-7.1603,-7.1598,-7.1598,-7.1598,-5.4494,-5.4494,-5.4494,-5.4494,-5.4494,-5.4494,-5.4494,-5.4494,-5.4494,-5.4494,-5.4592,-5.4717,-5.493,-5.5079,-5.5259,-5.5354,-5.5448,-5.5507,-5.5507,-5.5507,-5.5507,-5.5507,-5.5507,-5.5507,-5.5507,-5.5507,-5.5507,-5.5507,-5.5507,-5.5507,-5.5507,-5.5507,-5.5507,-5.5507,-5.5844,-5.633,-5.7065,-5.7674,-5.8424,-5.9253,-5.929,-5.929,-5.929,-5.929,-5.9778,-6.0642,-6.1393,-6.2219,-6.312,-6.3496,-6.3871,-6.4284,-6.4284,-6.4284,-6.4284,-6.4284,-6.4284,-6.4284,-6.4284,-6.4284,-6.4284,-6.4284,-6.4284,-6.4284,-6.4284,-6.4284,-6.4284,-6.4284,-6.4284,-6.4284,-6.4284,-6.4284,-6.4284,-6.4284,-6.4284,-6.4284,-6.4284,-6.4284,-6.4284,-6.4284,-6.4596,-6.4917,-6.5238,-6.552,-6.5804,-6.6144,-6.6185,-6.6495,-6.7384,-6.8274,-6.9125,-6.9899,-7.0789,-7.1291,-7.1291,-7.1291,-7.1291,-7.1291,-7.1291,-7.1291,-7.1291,-7.1291,-7.1291,-7.1291,-7.1415,-7.1475,-7.1494,-7.1568,-7.162,-7.1598,-7.1598,-7.1598,-5.4494,-5.4494,-5.4494,-5.4494,-5.4494,-5.4494,-5.4494,-5.4494,-5.4494,-5.4494,-5.4494,-5.4592,-5.4717,-5.493,-5.5139,-5.5199,-5.5354,-5.5507,-5.5507,-5.5507,-5.5507,-5.5507,-5.5507,-5.5507,-5.5507,-5.5507,-5.5507,-5.5507,-5.5507,-5.5507,-5.5507,-5.5507,-5.5507,-5.5507,-5.6035,-5.651,-5.7029,-5.8083,-5.8831,-5.929,-5.929,-5.929,-5.929,-5.929,-5.9666,-6.0266,-6.0492,-6.1318,-6.2519,-6.2932,-6.3458,-6.4021,-6.4209,-6.4284,-6.4284,-6.4284,-6.4284,-6.4284,-6.4284,-6.4284,-6.4284,-6.4284,-6.4284,-6.4284,-6.4284,-6.4284,-6.4284,-6.4284,-6.4284,-6.4284,-6.4284,-6.4284,-6.4284,-6.4284,-6.4284,-6.4284,-6.4284,-6.4284,-6.4284,-6.4284,-6.4632,-6.4981,-6.5238,-6.5575,-6.5913,-6.6165,-6.6185,-6.6417,-6.7075,-6.8119,-6.9048,-6.9628,-7.0672,-7.1291,-7.1291,-7.1291,-7.1291,-7.1291,-7.1291,-7.1291,-7.1291,-7.1291,-7.1291,-7.1291,-7.1435,-7.1494,-7.1494,-7.1547,-7.1598,-7.1598,-7.1598,-7.1598,-5.4494,-5.4494,-5.4494,-5.4494,-5.4494,-5.4494,-5.4494,-5.4494,-5.4494,-5.4494,-5.4494,-5.4494,-5.4494,-5.4807,-5.5053,-5.5199,-5.5354,-5.5507,-5.5507,-5.5507,-5.5507,-5.5507,-5.5507,-5.5507,-5.5507,-5.5507,-5.5507,-5.5507,-5.5507,-5.5507,-5.5507,-5.5507,-5.5507,-5.5507,-5.5764,-5.6384,-5.7352,-5.8632,-5.9253,-5.929,-5.929,-5.929,-5.929,-5.929,-5.9328,-5.9403,-6.0229,-6.0642,-6.0867,-6.2444,-6.312,-6.3233,-6.3984,-6.4284,-6.4284,-6.4284,-6.4284,-6.4284,-6.4284,-6.4284,-6.4284,-6.4284,-6.4284,-6.4284,-6.4284,-6.4284,-6.4284,-6.4284,-6.4284,-6.4284,-6.4284,-6.4284,-6.4284,-6.4284,-6.4284,-6.4284,-6.4284,-6.4284,-6.4284,-6.4284,-6.4848,-6.5268,-6.5299,-6.5769,-6.6165,-6.6185,-6.6185,-6.6224,-6.6263,-6.7771,-6.8816,-6.8854,-7.0324,-7.1291,-7.1291,-7.1291,-7.1291,-7.1291,-7.1291,-7.1291,-7.1291,-7.1291,-7.1291,-7.1291,-7.1435,-7.1494,-7.1494,-7.1547,-7.1598,-7.1598,-7.1598,-7.1598,-5.4494,-5.4494,-5.4494,-5.4494,-5.4494,-5.4494,-5.4494,-5.4494,-5.4494,-5.4494,-5.4494,-5.4494,-5.4494,-5.4717,-5.4904,-5.5053,-5.5199,-5.5354,-5.5507,-5.5507,-5.5507,-5.5507,-5.5507,-5.5507,-5.5507,-5.5507,-5.5507,-5.5507,-5.5507,-5.5507,-5.5507,-5.5507,-5.5507,-5.5507,-5.6366,-5.7377,-5.8545,-5.9025,-5.929,-5.929,-5.929,-5.929,-5.929,-5.929,-5.929,-5.9328,-5.9628,-6.0079,-6.0642,-6.1243,-6.2144,-6.312,-6.3421,-6.3834,-6.4284,-6.4284,-6.4284,-6.4284,-6.4284,-6.4284,-6.4284,-6.4284,-6.4284,-6.4284,-6.4284,-6.4284,-6.4284,-6.4284,-6.4284,-6.4284,-6.4284,-6.4284,-6.4284,-6.4284,-6.4284,-6.4284,-6.4284,-6.4284,-6.4284,-6.4284,-6.481,-6.5299,-6.5299,-6.5793,-6.6185,-6.6185,-6.6185,-6.6185,-6.6185,-6.723,-6.8197,-6.8738,-6.9783,-7.0672,-7.1253,-7.1291,-7.1291,-7.1291,-7.1291,-7.1291,-7.1291,-7.1291,-7.1291,-7.1291,-7.1435,-7.1494,-7.1494,-7.1547,-7.1598,-7.1598,-7.1598,-7.1598,-5.4494,-5.4494,-5.4494,-5.4494,-5.4494,-5.4494,-5.4494,-5.4494,-5.4494,-5.4494,-5.4494,-5.4494,-5.4494,-5.4592,-5.478,-5.4992,-5.5079,-5.5259,-5.5448,-5.5507,-5.5507,-5.5507,-5.5507,-5.5507,-5.5507,-5.5507,-5.5507,-5.5507,-5.5507,-5.5507,-5.5507,-5.5507,-5.5648,-5.5957,-5.6825,-5.7895,-5.9024,-5.9215,-5.929,-5.929,-5.929,-5.929,-5.929,-5.929,-5.929,-5.929,-5.929,-5.9628,-6.0191,-6.0492,-6.128,-6.2332,-6.2895,-6.3421,-6.3909,-6.4209,-6.4284,-6.4284,-6.4284,-6.4284,-6.4284,-6.4284,-6.4284,-6.4284,-6.4284,-6.4284,-6.4284,-6.4284,-6.4284,-6.4284,-6.4284,-6.4284,-6.4284,-6.4284,-6.4284,-6.4284,-6.4284,-6.4284,-6.4284,-6.4284,-6.481,-6.5299,-6.5299,-6.5793,-6.6185,-6.6185,-6.6185,-6.6185,-6.6185,-6.6959,-6.7849,-6.87,-6.9512,-7.0363,-7.1214,-7.1291,-7.1291,-7.1291,-7.1291,-7.1291,-7.1291,-7.1291,-7.1313,-7.1313,-7.1455,-7.1494,-7.1513,-7.1564,-7.1598,-7.1598,-7.1598,-7.1598,0.0,0.0,0.0,-5.4494,-5.4494,-5.4494,-5.4494,-5.4494,-5.4494,-5.4494,-5.4494,-5.4494,-5.4494,-5.4494,-5.462,-5.493,-5.5079,-5.5259,-5.5448,-5.5507,-5.5507,-5.5507,-5.5507,-5.5507,-5.5507,-5.5507,-5.5507,-5.5507,-5.5507,-5.5507,-5.5507,-5.5507,-5.5901,-5.6861,-5.7242,-5.7822,-5.8788,-5.914,-5.929,-5.929,-5.929,-5.929,-5.929,-5.929,-5.929,-5.929,-5.929,-5.929,-5.9365,-6.0229,-6.0567,-6.0755,-6.2407,-6.3045,-6.3195,-6.3984,-6.4284,-6.4284,-6.4284,-6.4284,-6.4284,-6.4284,-6.4284,-6.4284,-6.4284,-6.4284,-6.4284,-6.4284,-6.4284,-6.4284,-6.4284,-6.4284,-6.4284,-6.4284,-6.4284,-6.4284,-6.4284,-6.4284,-6.4284,-6.4284,-6.481,-6.5299,-6.5299,-6.5793,-6.6185,-6.6185,-6.6185,-6.6185,-6.6185,-6.6959,-6.781,-6.87,-6.9512,-7.0324,-7.1214,-7.1291,-7.1291,-7.1291,-7.1291,-7.1291,-7.1291,-7.1291,-7.1313,-7.1415,-7.1475,-7.1513,-7.1607,-7.162,-7.1598,-7.1598,-7.1598,-7.1598,-5.4494,0.0,0.0,0.0,0.0,0.0,-5.4494,-5.4494,-5.4494,-5.4494,-5.4494,-5.4494,-5.4494,-5.4494,-5.4592,-5.4842,-5.4992,-5.5174,-5.5448,-5.5507,-5.5507,-5.5507,-5.5507,-5.5507,-5.5507,-5.5507,-5.5507,-5.5507,-5.5507,-5.5507,-5.5507,-5.5507,-5.6014,-5.7166,-5.734,-5.7949,-5.91,-5.9215,-5.929,-5.929,-5.929,-5.929,-5.929,-5.929,-5.929,-5.929,-5.929,-5.929,-5.9328,-5.9553,-6.0041,-6.0642,-6.113,-6.2031,-6.312,-6.3345,-6.3796,-6.4284,-6.4284,-6.4284,-6.4284,-6.4284,-6.4284,-6.4284,-6.4284,-6.4284,-6.4284,-6.4284,-6.4284,-6.4284,-6.4284,-6.4284,-6.4284,-6.4284,-6.4284,-6.4284,-6.4284,-6.4284,-6.4284,-6.4284,-6.481,-6.5299,-6.5299,-6.5793,-6.6185,-6.6185,-6.6185,-6.6185,-6.6185,-6.6417,-6.7152,-6.8661,-6.9009,-6.9705,-7.1175,-7.1291,-7.1291,-7.1291,-7.1291,-7.1291,-7.1291,-7.1291,-7.1313,-7.1415,-7.1475,-7.1513,-7.1607,-7.162,-7.1598,-7.1598,-7.1598,-7.1598,-5.4494,-5.4494,-5.4494,-5.4494,0.0,0.0,-5.4494,-5.4494,-5.4494,-5.4494,-5.4494,-5.4494,-5.4494,-5.4494,-5.4592,-5.478,-5.4842,-5.4992,-5.5354,-5.5354,-5.5448,-5.5507,-5.5507,-5.5507,-5.5507,-5.5507,-5.5507,-5.5507,-5.5507,-5.5507,-5.5507,-5.5507,-5.607,-5.7266,-5.7389,-5.7994,-5.9177,-5.929,-5.929,-5.929,-5.929,-5.929,-5.929,-5.929,-5.929,-5.929,-5.929,-5.929,-5.929,-5.929,-5.9591,-6.0079,-6.0454,-6.1205,-6.2144,-6.2857,-6.3383,-6.3834,-6.4172,-6.4284,-6.4284,-6.4284,-6.4284,-6.4284,-6.4284,-6.4284,-6.4284,-6.4284,-6.4284,-6.4284,-6.4284,-6.4284,-6.4284,-6.4284,-6.4284,-6.4284,-6.4284,-6.4284,-6.4364,-6.4482,-6.4913,-6.5329,-6.5475,-6.5866,-6.6185,-6.6185,-6.6185,-6.6185,-6.6185,-6.6185,-6.6882,-6.8622,-6.8816,-6.9473,-7.1175,-7.1291,-7.1291,-7.1291,-7.1291,-7.1291,-7.1291,-7.1291,-7.1334,-7.1455,-7.1475,-7.1532,-7.1603,-7.1581,-7.1598,-7.1598,-7.1598,-7.1598,-5.4494,-5.4494,-5.4494,-5.4494,-5.4494,0.0,-5.4494,-5.4494,-5.4494,-5.4494,-5.4494,-5.4494,-5.4494,-5.4494,-5.4592,-5.4717,-5.478,-5.4904,-5.5139,-5.5199,-5.5259,-5.5448,-5.5507,-5.5507,-5.5507,-5.5507,-5.5507,-5.5507,-5.5507,-5.5507,-5.5507,-5.5507,-5.607,-5.7279,-5.7389,-5.7994,-5.9177,-5.929,-5.929,-5.929,-5.929,-5.929,-5.929,-5.929,-5.929,-5.929,-5.929,-5.929,-5.929,-5.929,-5.929,-5.9365,-6.0154,-6.0529,-6.0792,-6.2257,-6.2932,-6.3195,-6.3909,-6.4209,-6.4284,-6.4284,-6.4284,-6.4284,-6.4284,-6.4284,-6.4284,-6.4284,-6.4284,-6.4284,-6.4284,-6.4284,-6.4284,-6.4284,-6.4284,-6.4284,-6.4284,-6.4324,-6.4444,-6.4777,-6.5079,-6.5388,-6.5654,-6.5997,-6.6185,-6.6185,-6.6185,-6.6185,-6.6185,-6.6185,-6.6882,-6.8622,-6.8816,-6.9473,-7.1175,-7.1291,-7.1291,-7.1291,-7.1291,-7.1291,-7.1291,-7.1291,-7.1355,-7.1494,-7.1494,-7.155,-7.1598,-7.1598,-7.1598,-7.1598,-7.1598,-7.1598,-5.4431,-5.4494,-5.4494,-5.4494,-5.4494,0.0,-5.4494,-5.4494,-5.4494,-5.4494,-5.4494,-5.4494,-5.4494,-5.4494,-5.4494,-5.4557,-5.4592,-5.4683,-5.4992,-5.5139,-5.5199,-5.5259,-5.5413,-5.5507,-5.5507,-5.5507,-5.5507,-5.5507,-5.5507,-5.5507,-5.5507,-5.5507,-5.609,-5.7352,-5.74,-5.8002,-5.9253,-5.929,-5.929,-5.929,-5.929,-5.929,-5.929,-5.929,-5.929,-5.929,-5.929,-5.929,-5.929,-5.929,-5.929,-5.9328,-5.9478,-5.9966,-6.0642,-6.098,-6.1956,-6.312,-6.327,-6.3759,-6.4284,-6.4284,-6.4284,-6.4284,-6.4284,-6.4284,-6.4284,-6.4284,-6.4284,-6.4284,-6.4284,-6.4284,-6.4284,-6.4284,-6.4284,-6.4284,-6.4284,-6.4521,-6.4813,-6.5144,-6.5238,-6.5388,-6.5654,-6.5997,-6.6185,-6.6185,-6.6185,-6.6185,-6.6185,-6.6185,-6.6882,-6.8622,-6.8816,-6.9473,-7.1175,-7.1291,-7.1291,-7.1291,-7.1291,-7.1291,-7.1291,-7.1334,-7.1435,-7.1494,-7.1529,-7.1581,-7.1598,-7.1598,-7.1598,-7.1598,-7.1598,-7.1598,-5.4431,-5.4494,-5.4494,-5.4494,-5.4494,0.0,0.0,-5.4494,-5.4494,-5.4494,-5.4494,-5.4494,-5.4494,-5.4494,-5.4494,-5.4494,-5.4494,-5.4557,-5.4745,-5.4992,-5.5139,-5.5199,-5.5354,-5.5507,-5.5507,-5.5507,-5.5507,-5.5507,-5.5507,-5.5507,-5.5507,-5.5507,-5.609,-5.7291,-5.7352,-5.7994,-5.9253,-5.9253,-5.929,-5.929,-5.929,-5.929,-5.929,-5.929,-5.929,-5.929,-5.929,-5.929,-5.929,-5.929,-5.929,-5.929,-5.929,-5.9553,-6.0004,-6.0454,-6.113,-6.1919,-6.2294,-6.3008,-6.3683,-6.3683,-6.3946,-6.4284,-6.4284,-6.4284,-6.4284,-6.4284,-6.4284,-6.4284,-6.4284,-6.4284,-6.4284,-6.4284,-6.4284,-6.4284,-6.4284,-6.4405,-6.4705,-6.5207,-6.5299,-6.5446,-6.5866,-6.6063,-6.6185,-6.6185,-6.6185,-6.6185,-6.6185,-6.6185,-6.6882,-6.8622,-6.8816,-6.9473,-7.1175,-7.1291,-7.1291,-7.1291,-7.1291,-7.1291,-7.1291,-7.1313,-7.1415,-7.1494,-7.1547,-7.1598,-7.1598,-7.1598,-7.1598,-7.1598,-7.1598,-7.1598,-5.4431,-5.4494,-5.4494,-5.4494,-5.4494,-5.4494,0.0,0.0,0.0,-5.4494,-5.4494,-5.4494,-5.4494,-5.4494,-5.4494,-5.4494,-5.4494,-5.4494,-5.4494,-5.4745,-5.4992,-5.5079,-5.5294,-5.5448,-5.5448,-5.5507,-5.5507,-5.5507,-5.5507,-5.5507,-5.5507,-5.5625,-5.6146,-5.7279,-5.7485,-5.8083,-5.9215,-5.9253,-5.929,-5.929,-5.929,-5.929,-5.929,-5.929,-5.929,-5.929,-5.929,-5.929,-5.929,-5.929,-5.929,-5.929,-5.929,-5.929,-5.9403,-6.0079,-6.0454,-6.068,-6.1355,-6.2144,-6.2857,-6.2857,-6.3383,-6.4059,-6.4059,-6.4172,-6.4284,-6.4284,-6.4284,-6.4284,-6.4284,-6.4284,-6.4284,-6.4284,-6.4284,-6.4284,-6.4284,-6.4366,-6.4632,-6.5207,-6.5388,-6.564,-6.6123,-6.6185,-6.6185,-6.6185,-6.6185,-6.6185,-6.6185,-6.6185,-6.6882,-6.8622,-6.8816,-6.9473,-7.1175,-7.1291,-7.1291,-7.1291,-7.1291,-7.1291,-7.1291,-7.1313,-7.1415,-7.1513,-7.1564,-7.1598,-7.1598,-7.1598,-7.1598,-7.1598,-7.1598,-7.1598,-5.4367,-5.4494,-5.4494,-5.4494,-5.4494,-5.4494,-5.4494,0.0,-5.4494,-5.4494,0.0,-5.4494,-5.4494,0.0,0.0,-5.4494,-5.4494,-5.4494,-5.4494,-5.4717,-5.4842,-5.4842,-5.5113,-5.5259,-5.5259,-5.5413,-5.5507,-5.5507,-5.5507,-5.5507,-5.5507,-5.5957,-5.6563,-5.7352,-5.7859,-5.8508,-5.9253,-5.929,-5.929,-5.929,-5.929,-5.929,-5.929,-5.929,-5.929,-5.929,-5.929,-5.929,-5.929,-5.929,-5.929,-5.929,-5.929,-5.929,-5.929,-5.9403,-5.9929,-6.0604,-6.0717,-6.128,-6.1956,-6.1956,-6.2519,-6.3233,-6.3233,-6.3721,-6.4284,-6.4284,-6.4284,-6.4284,-6.4284,-6.4284,-6.4284,-6.4284,-6.4284,-6.4284,-6.4284,-6.4777,-6.5207,-6.5268,-6.5718,-6.6123,-6.6185,-6.6185,-6.6185,-6.6185,-6.6185,-6.6185,-6.6185,-6.6185,-6.6882,-6.8622,-6.8816,-6.9473,-7.1175,-7.1291,-7.1291,-7.1291,-7.1291,-7.1291,-7.1291,-7.1435,-7.1494,-7.1589,-7.162,-7.1598,-7.1598,-7.1598,-7.1598,-7.1598,-7.1598,-7.1598,-5.4367,-5.4494,-5.4494,-5.4494,-5.4494,-5.4494,-5.4494,-5.4494,-5.4494,-5.4494,0.0,0.0,0.0,0.0,0.0,0.0,-5.4494,-5.4494,-5.4494,-5.4592,-5.4655,-5.478,-5.4992,-5.5079,-5.5199,-5.5354,-5.5507,-5.5507,-5.5507,-5.5507,-5.5507,-5.6014,-5.6652,-5.7328,-5.7904,-5.8545,-5.9253,-5.9253,-5.929,-5.929,-5.929,-5.929,-5.929,-5.929,-5.929,-5.929,-5.929,-5.929,-5.929,-5.929,-5.929,-5.929,-5.929,-5.929,-5.929,-5.929,-5.9515,-5.9853,-5.9853,-6.0417,-6.1168,-6.1656,-6.2031,-6.2444,-6.2932,-6.3345,-6.3683,-6.4172,-6.4284,-6.4284,-6.4284,-6.4284,-6.4284,-6.4284,-6.4284,-6.4284,-6.4284,-6.4669,-6.5047,-6.5268,-6.564,-6.5958,-6.6165,-6.6185,-6.6185,-6.6185,-6.6185,-6.6185,-6.6185,-6.6185,-6.6882,-6.8622,-6.8816,-6.9473,-7.1175,-7.1291,-7.1291,-7.1291,-7.1291,-7.1291,-7.1291,-7.1435,-7.1494,-7.1513,-7.1564,-7.1598,-7.1598,-7.1598,-7.1598,-7.1598,-7.1598,-7.1598,-5.4367,-5.4494,-5.4494,-5.4494,-5.4494,-5.4494,-5.4494,-5.4494,-5.4494,-5.4494,-5.4494,0.0,0.0,0.0,-5.4494,-5.4494,0.0,-5.4494,-5.4494,-5.4494,-5.4592,-5.478,-5.493,-5.5079,-5.5259,-5.5413,-5.5507,-5.5507,-5.5507,-5.5507,-5.5507,-5.6182,-5.6757,-5.7266,-5.7986,-5.8665,-5.9177,-5.9253,-5.9253,-5.929,-5.929,-5.929,-5.929,-5.929,-5.929,-5.929,-5.929,-5.929,-5.929,-5.929,-5.929,-5.929,-5.929,-5.929,-5.929,-5.929,-5.929,-5.929,-5.929,-5.9703,-6.0342,-6.0905,-6.128,-6.1581,-6.2219,-6.2557,-6.2932,-6.3721,-6.3946,-6.4021,-6.4247,-6.4284,-6.4284,-6.4284,-6.4284,-6.4284,-6.4284,-6.4632,-6.4981,-6.5238,-6.5575,-6.5913,-6.6165,-6.6185,-6.6185,-6.6185,-6.6185,-6.6185,-6.6185,-6.6185,-6.6882,-6.8622,-6.8816,-6.9473,-7.1175,-7.1291,-7.1291,-7.1291,-7.1291,-7.1291,-7.1291,-7.1435,-7.1494,-7.1494,-7.1547,-7.1598,-7.1598,-7.1598,-7.1598,-7.1598,-7.1598,-7.1598,-5.4367,-5.4494,-5.4494,-5.4494,-5.4494,-5.4494,-5.4494,-5.4494,-5.4494,-5.4494,-5.4494,-5.4494,-5.4494,-5.4494,-5.4494,-5.4494,-5.4494,0.0,0.0,-5.4494,-5.4592,-5.478,-5.5053,-5.5259,-5.5448,-5.5507,-5.5507,-5.5507,-5.5507,-5.5507,-5.5507,-5.6528,-5.7166,-5.7315,-5.8319,-5.898,-5.9177,-5.9177,-5.9253,-5.929,-5.929,-5.929,-5.929,-5.929,-5.929,-5.929,-5.929,-5.929,-5.929,-5.929,-5.929,-5.929,-5.929,-5.929,-5.929,-5.929,-5.929,-5.929,-5.929,-5.9328,-5.9365,-5.9365,-5.9966,-6.0642,-6.068,-6.1205,-6.2031,-6.2895,-6.3158,-6.3308,-6.4096,-6.4284,-6.4284,-6.4284,-6.4284,-6.4284,-6.4284,-6.4848,-6.5268,-6.5299,-6.5769,-6.6185,-6.6185,-6.6185,-6.6185,-6.6185,-6.6185,-6.6185,-6.6185,-6.6185,-6.6882,-6.8622,-6.8816,-6.9473,-7.1175,-7.1291,-7.1291,-7.1291,-7.1291,-7.1291,-7.1291,-7.1435,-7.1494,-7.1494,-7.1547,-7.1598,-7.1598,-7.1598,-7.1598,-7.1598,-7.1598,-7.1598,-5.4239,-5.4367,-5.4494,-5.4494,-5.4494,-5.4494,-5.4494,-5.4494,-5.4494,-5.4494,-5.4494,-5.4494,-5.4494,-5.4494,-5.4494,-5.4494,-5.4494,-5.4494,0.0,-5.4592,-5.478,-5.4869,-5.4992,-5.5174,-5.5294,-5.5413,-5.5507,-5.5507,-5.5507,-5.5507,-5.5507,-5.6528,-5.7116,-5.7166,-5.8319,-5.894,-5.902,-5.91,-5.9215,-5.9253,-5.929,-5.929,-5.929,-5.929,-5.929,-5.929,-5.929,-5.929,-5.929,-5.929,-5.929,-5.929,-5.929,-5.929,-5.929,-5.929,-5.929,-5.929,-5.929,-5.929,-5.929,-5.929,-5.9515,-5.9853,-6.0454,-6.0792,-6.1168,-6.1994,-6.2257,-6.2444,-6.327,-6.3496,-6.3646,-6.4172,-6.4284,-6.4284,-6.4284,-6.4848,-6.5299,-6.5299,-6.5769,-6.6185,-6.6185,-6.6185,-6.6185,-6.6185,-6.6185,-6.6185,-6.6185,-6.6185,-6.6882,-6.8622,-6.8816,-6.9473,-7.1175,-7.1291,-7.1291,-7.1291,-7.1291,-7.1291,-7.1291,-7.1435,-7.1494,-7.1494,-7.1547,-7.1598,-7.1598,-7.1598,-7.1598,-7.1598,-7.1598,-7.1598,-5.4175,-5.4367,-5.4494,-5.4494,-5.4494,-5.4494,-5.4494,-5.4494,-5.4494,-5.4494,-5.4494,-5.4494,-5.4494,-5.4494,-5.4494,-5.4494,-5.4494,-5.4494,0.0,-5.4592,-5.478,-5.4992,-5.5053,-5.5139,-5.5294,-5.5413,-5.5507,-5.5507,-5.5507,-5.5507,-5.5507,-5.6528,-5.7116,-5.7116,-5.8194,-5.8859,-5.8899,-5.9022,-5.9139,-5.9177,-5.929,-5.929,-5.929,-5.929,-5.929,-5.929,-5.929,-5.929,-5.929,-5.929,-5.929,-5.929,-5.929,-5.929,-5.929,-5.929,-5.929,-5.929,-5.929,-5.929,-5.929,-5.929,-5.929,-5.9403,-5.9966,-6.0154,-6.0379,-6.1468,-6.1581,-6.1693,-6.3158,-6.3308,-6.3308,-6.4096,-6.4284,-6.4284,-6.4284,-6.4848,-6.5299,-6.5299,-6.5769,-6.6185,-6.6185,-6.6185,-6.6185,-6.6185,-6.6185,-6.6185,-6.6185,-6.6185,-6.6882,-6.8622,-6.8816,-6.9473,-7.1175,-7.1291,-7.1291,-7.1291,-7.1291,-7.1291,-7.1291,-7.1435,-7.1649,-7.1959,-7.1702,-7.1753,-7.2064,-7.1753,-7.1598,-7.1598,-7.1598,-7.1598]},{"header":{"parameterUnit":"m.s-1","parameterCategory":1,"la1":30.6,"la2":29.2853,"lo1":-89.7004,"lo2":-87.6739,"dy":0.0162,"dx":0.0183,"nx":112,"ny":82,"refTime":"2024-02-08T18:00:00:Z","depth":0,"parameterNumber":3,"parameterNumberName":"V-component_of_WINDS"},"data":[0.0,0.0,0.0,0.0,0.0,0.0,0.0,0.0,0.0,0.0,0.0,0.0,0.0,0.0,0.0,0.0,0.0,0.0,0.0,0.0,0.0,0.0,0.0,0.0,0.0,0.0,0.0,0.0,0.0,0.0,0.0,0.0,0.0,0.0,0.0,0.0,0.0,0.0,0.0,0.0,0.0,0.0,0.0,0.0,0.0,0.0,0.0,0.0,0.0,0.0,0.0,0.0,0.0,0.0,0.0,0.0,0.0,0.0,0.0,0.0,0.0,0.0,0.0,0.0,0.0,0.0,0.0,0.0,0.0,0.0,0.0,0.0,0.0,0.0,0.0,0.0,0.0,0.0,0.0,0.0,0.0,0.0,0.0,0.0,0.0,0.0,0.0,0.0,0.0,0.0,-0.7793,-0.751,-0.6893,-0.6648,-0.6898,-0.6285,-0.6039,-0.6403,0.0,0.0,0.0,0.0,0.0,0.0,0.0,0.0,0.0,0.0,0.0,0.0,0.0,0.0,0.0,0.0,0.0,0.0,0.0,0.0,0.0,0.0,0.0,0.0,0.0,0.0,0.0,0.0,0.0,0.0,0.0,0.0,0.0,0.0,0.0,0.0,0.0,0.0,0.0,0.0,0.0,0.0,0.0,0.0,0.0,0.0,0.0,0.0,0.0,0.0,0.0,0.0,0.0,0.0,0.0,0.0,0.0,0.0,0.0,0.0,0.0,0.0,0.0,0.0,0.0,0.0,0.0,0.0,0.0,0.0,0.0,0.0,0.0,0.0,0.0,0.0,0.0,0.0,0.0,0.0,0.0,0.0,0.0,0.0,0.0,0.0,0.0,0.0,0.0,0.0,0.0,0.0,0.0,0.0,0.0,0.0,0.0,0.0,0.0,0.0,0.0,0.0,0.0,0.0,-0.81,-0.7894,-0.7505,-0.7143,-0.6903,-0.653,-0.6403,-0.6403,0.0,0.0,0.0,0.0,0.0,0.0,0.0,0.0,0.0,0.0,0.0,0.0,0.0,0.0,0.0,0.0,0.0,0.0,0.0,0.0,0.0,0.0,0.0,0.0,0.0,0.0,0.0,0.0,0.0,0.0,0.0,0.0,0.0,0.0,0.0,0.0,0.0,0.0,0.0,0.0,0.0,0.0,0.0,0.0,0.0,0.0,0.0,0.0,0.0,0.0,0.0,0.0,0.0,0.0,0.0,0.0,0.0,0.0,0.0,0.0,0.0,0.0,0.0,0.0,0.0,0.0,0.0,0.0,0.0,0.0,0.0,0.0,0.0,0.0,0.0,0.0,0.0,0.0,0.0,0.0,0.0,0.0,0.0,0.0,0.0,0.0,0.0,0.0,0.0,0.0,0.0,0.0,0.0,0.0,0.0,0.0,0.0,0.0,0.0,0.0,0.0,0.0,0.0,-0.8269,-0.8193,-0.8079,-0.7817,-0.7566,-0.7572,-0.719,-0.6916,-0.6984,-0.6731,0.0,0.0,0.0,0.0,0.0,0.0,0.0,0.0,0.0,0.0,0.0,0.0,0.0,0.0,0.0,0.0,0.0,0.0,0.0,0.0,0.0,0.0,0.0,0.0,0.0,0.0,0.0,0.0,0.0,0.0,0.0,0.0,0.0,0.0,0.0,0.0,0.0,0.0,0.0,0.0,0.0,0.0,0.0,0.0,0.0,0.0,0.0,0.0,0.0,0.0,0.0,0.0,0.0,0.0,0.0,0.0,0.0,0.0,0.0,0.0,0.0,0.0,0.0,0.0,0.0,0.0,0.0,0.0,0.0,0.0,0.0,0.0,0.0,0.0,0.0,0.0,0.0,0.0,0.0,0.0,0.0,0.0,0.0,0.0,0.0,0.0,0.0,0.0,0.0,0.0,0.0,0.0,0.0,0.0,0.0,0.0,0.0,0.0,0.0,0.0,0.0,0.0,-0.828,-0.8269,-0.8236,-0.7975,-0.7847,-0.8103,-0.7591,-0.7419,-0.7566,-0.7176,0.0,0.0,0.0,0.0,0.0,0.0,0.0,0.0,0.0,0.0,0.0,0.0,0.0,0.0,0.0,0.0,0.0,0.0,0.0,0.0,0.0,0.0,0.0,0.0,0.0,0.0,0.0,0.0,0.0,0.0,0.0,0.0,0.0,0.0,0.0,0.0,0.0,0.0,0.0,0.0,0.0,0.0,0.0,0.0,0.0,0.0,0.0,0.0,0.0,0.0,0.0,0.0,0.0,0.0,0.0,0.0,0.0,0.0,0.0,0.0,0.0,0.0,0.0,0.0,0.0,0.0,0.0,0.0,0.0,0.0,0.0,0.0,0.0,0.0,0.0,0.0,0.0,0.0,0.0,0.0,0.0,0.0,0.0,0.0,0.0,0.0,0.0,0.0,0.0,0.0,0.0,0.0,0.0,0.0,0.0,0.0,0.0,0.0,0.0,0.0,0.0,0.0,-0.8405,-0.8361,-0.8247,-0.8236,-0.8103,-0.7714,-0.7463,-0.7292,-0.7566,-0.6679,0.0,0.0,0.0,0.0,0.0,0.0,0.0,0.0,0.0,0.0,0.0,0.0,0.0,0.0,0.0,0.0,0.0,0.0,0.0,0.0,0.0,0.0,0.0,0.0,0.0,0.0,0.0,0.0,0.0,0.0,0.0,0.0,0.0,0.0,0.0,0.0,0.0,0.0,0.0,0.0,0.0,0.0,0.0,0.0,0.0,0.0,0.0,0.0,0.0,0.0,0.0,0.0,0.0,0.0,0.0,0.0,0.0,0.0,0.0,0.0,0.0,0.0,0.0,0.0,0.0,0.0,0.0,0.0,0.0,0.0,0.0,0.0,0.0,0.0,0.0,0.0,0.0,0.0,0.0,0.0,0.0,0.0,0.0,0.0,0.0,0.0,0.0,0.0,0.0,0.0,0.0,0.0,0.0,0.0,0.0,0.0,0.0,0.0,0.0,0.0,0.0,0.0,-0.8524,-0.8508,-0.8459,-0.8454,-0.8454,-0.8322,-0.8191,-0.8144,-0.8162,0.0,0.0,0.0,0.0,0.0,0.0,0.0,0.0,0.0,0.0,0.0,0.0,0.0,0.0,0.0,0.0,0.0,0.0,0.0,0.0,0.0,0.0,0.0,0.0,0.0,0.0,0.0,0.0,0.0,0.0,0.0,0.0,0.0,0.0,0.0,0.0,0.0,0.0,0.0,0.0,0.0,0.0,0.0,0.0,0.0,0.0,0.0,0.0,0.0,0.0,0.0,0.0,0.0,0.0,0.0,0.0,0.0,0.0,0.0,0.0,0.0,0.0,0.0,0.0,0.0,0.0,0.0,0.0,0.0,0.0,0.0,0.0,0.0,0.0,0.0,0.0,0.0,0.0,0.0,0.0,0.0,0.0,0.0,0.0,0.0,0.0,0.0,0.0,0.0,0.0,0.0,0.0,0.0,0.0,0.0,0.0,0.0,0.0,0.0,0.0,0.0,0.0,-0.8723,-0.859,-0.859,-0.859,-0.859,-0.859,-0.859,-0.8456,-0.8408,-0.8426,0.0,0.0,0.0,0.0,0.0,0.0,0.0,0.0,0.0,0.0,0.0,0.0,0.0,0.0,0.0,0.0,0.0,0.0,0.0,0.0,0.0,0.0,0.0,0.0,0.0,0.0,0.0,0.0,0.0,0.0,0.0,0.0,0.0,0.0,0.0,0.0,0.0,0.0,0.0,0.0,0.0,0.0,0.0,0.0,0.0,0.0,0.0,0.0,0.0,0.0,0.0,0.0,0.0,0.0,0.0,0.0,0.0,0.0,0.0,0.0,0.0,0.0,0.0,0.0,0.0,0.0,0.0,0.0,0.0,0.0,0.0,0.0,0.0,0.0,0.0,0.0,0.0,0.0,0.0,0.0,0.0,0.0,0.0,0.0,0.0,0.0,0.0,0.0,0.0,0.0,0.0,0.0,0.0,0.0,0.0,0.0,0.0,0.0,0.0,0.0,0.0,0.0,-0.8717,-0.859,-0.859,-0.859,-0.859,-0.859,-0.859,-0.8323,-0.8143,0.0,0.0,0.0,0.0,0.0,0.0,0.0,0.0,0.0,0.0,0.0,0.0,0.0,0.0,0.0,0.0,0.0,0.0,0.0,0.0,0.0,0.0,0.0,0.0,0.0,0.0,0.0,0.0,0.0,0.0,0.0,0.0,0.0,0.0,0.0,0.0,0.0,0.0,0.0,0.0,0.0,0.0,0.0,0.0,0.0,0.0,0.0,0.0,0.0,0.0,0.0,0.0,0.0,0.0,0.0,0.0,0.0,0.0,0.0,0.0,0.0,0.0,0.0,0.0,0.0,0.0,0.0,0.0,0.0,0.0,0.0,0.0,0.0,0.0,0.0,0.0,0.0,0.0,0.0,0.0,0.0,0.0,0.0,0.0,0.0,0.0,0.0,0.0,0.0,0.0,0.0,0.0,0.0,0.0,0.0,0.0,0.0,0.0,0.0,0.0,0.0,0.0,0.0,-0.8717,-0.859,-0.859,-0.859,-0.859,-0.859,-0.859,-0.8456,-0.844,-0.8541,0.0,0.0,0.0,0.0,0.0,0.0,0.0,0.0,0.0,0.0,0.0,0.0,0.0,0.0,0.0,0.0,0.0,0.0,0.0,0.0,0.0,0.0,0.0,0.0,0.0,0.0,0.0,0.0,0.0,0.0,0.0,0.0,0.0,0.0,0.0,0.0,0.0,0.0,0.0,0.0,0.0,0.0,0.0,0.0,0.0,0.0,0.0,0.0,0.0,0.0,0.0,0.0,0.0,0.0,0.0,0.0,0.0,0.0,0.0,0.0,0.0,0.0,0.0,0.0,0.0,0.0,0.0,0.0,0.0,0.0,0.0,0.0,0.0,0.0,0.0,0.0,0.0,0.0,0.0,0.0,0.0,0.0,0.0,0.0,0.0,0.0,0.0,0.0,0.0,0.0,0.0,0.0,0.0,0.0,0.0,0.0,0.0,0.0,0.0,0.0,0.0,0.0,-0.9643,-0.8984,-0.859,-0.859,-0.859,-0.859,-0.859,-0.859,-0.859,-0.859,0.0,0.0,0.0,0.0,0.0,0.0,0.0,0.0,0.0,0.0,0.0,0.0,0.0,0.0,0.0,0.0,0.0,0.0,0.0,0.0,0.0,0.0,0.0,0.0,0.0,0.0,0.0,0.0,0.0,0.0,0.0,0.0,0.0,0.0,0.0,0.0,0.0,0.0,0.0,0.0,0.0,0.0,0.0,0.0,0.0,0.0,0.0,0.0,0.0,0.0,0.0,0.0,0.0,0.0,0.0,0.0,0.0,0.0,0.0,0.0,0.0,0.0,0.0,0.0,0.0,0.0,0.0,0.0,0.0,0.0,0.0,0.0,0.0,0.0,0.0,0.0,0.0,0.0,0.0,0.0,0.0,0.0,0.0,0.0,0.0,0.0,0.0,0.0,0.0,0.0,0.0,0.0,0.0,0.0,0.0,0.0,0.0,0.0,0.0,0.0,0.0,0.0,-1.0704,-0.9383,-0.859,-0.859,-0.859,-0.859,-0.859,-0.859,-0.859,-0.859,0.0,0.0,0.0,0.0,0.0,0.0,0.0,0.0,0.0,0.0,0.0,0.0,0.0,0.0,0.0,0.0,0.0,0.0,0.0,0.0,0.0,0.0,0.0,0.0,0.0,0.0,0.0,0.0,0.0,0.0,0.0,0.0,0.0,0.0,0.0,0.0,0.0,0.0,0.0,0.0,0.0,0.0,0.0,0.0,0.0,0.0,0.0,0.0,0.0,0.0,0.0,0.0,0.0,0.0,0.0,0.0,0.0,0.0,0.0,0.0,-1.8812,-1.8944,0.0,0.0,0.0,0.0,0.0,0.0,0.0,0.0,0.0,0.0,0.0,0.0,0.0,0.0,0.0,0.0,0.0,0.0,0.0,0.0,0.0,0.0,0.0,0.0,0.0,0.0,0.0,0.0,0.0,0.0,0.0,0.0,0.0,0.0,0.0,0.0,0.0,0.0,0.0,0.0,-0.9377,-0.8851,-0.859,-0.859,-0.859,-0.859,-0.859,-0.859,-0.859,-0.859,-0.859,0.0,0.0,0.0,0.0,0.0,0.0,0.0,0.0,0.0,0.0,0.0,0.0,0.0,0.0,0.0,0.0,0.0,0.0,0.0,0.0,0.0,0.0,0.0,0.0,0.0,0.0,0.0,0.0,0.0,0.0,0.0,0.0,0.0,0.0,0.0,0.0,0.0,0.0,0.0,0.0,0.0,0.0,0.0,0.0,0.0,0.0,0.0,0.0,0.0,0.0,0.0,0.0,0.0,0.0,0.0,0.0,0.0,0.0,0.0,-1.8768,-1.8956,0.0,0.0,0.0,0.0,0.0,0.0,0.0,0.0,0.0,0.0,0.0,0.0,0.0,0.0,0.0,0.0,0.0,0.0,0.0,0.0,0.0,0.0,0.0,0.0,0.0,0.0,0.0,0.0,0.0,0.0,0.0,0.0,0.0,0.0,0.0,0.0,0.0,0.0,0.0,0.0,-0.9908,-0.8984,-0.859,-0.859,-0.859,-0.859,-0.859,-0.859,-0.859,-0.859,-0.859,0.0,0.0,0.0,0.0,0.0,0.0,0.0,0.0,0.0,0.0,0.0,0.0,0.0,0.0,0.0,0.0,0.0,0.0,0.0,0.0,0.0,0.0,0.0,0.0,0.0,0.0,0.0,0.0,0.0,0.0,0.0,0.0,0.0,0.0,0.0,0.0,0.0,0.0,0.0,0.0,0.0,0.0,0.0,0.0,0.0,0.0,0.0,0.0,0.0,0.0,0.0,0.0,0.0,-1.8976,-1.8956,-1.8699,-1.8944,-1.8956,-1.8699,-1.8699,-1.8828,-1.9072,-1.8828,0.0,0.0,0.0,0.0,0.0,0.0,0.0,0.0,0.0,0.0,0.0,0.0,0.0,0.0,0.0,0.0,0.0,0.0,0.0,0.0,0.0,0.0,-1.7001,-1.7001,-1.7001,-1.7001,-1.7001,0.0,0.0,0.0,0.0,0.0,0.0,0.0,0.0,0.0,0.0,0.0,-1.0836,-0.9516,-0.859,-0.859,-0.859,-0.859,-0.859,-0.859,-0.859,-0.859,-0.859,-0.859,0.0,0.0,0.0,0.0,0.0,0.0,0.0,0.0,0.0,0.0,0.0,0.0,0.0,0.0,0.0,0.0,0.0,0.0,0.0,0.0,0.0,0.0,0.0,0.0,0.0,0.0,0.0,0.0,0.0,0.0,0.0,0.0,-2.3211,-2.2009,0.0,0.0,0.0,0.0,0.0,0.0,0.0,0.0,0.0,0.0,0.0,0.0,0.0,-2.0196,-1.8472,-1.8617,-1.877,-1.9024,-1.906,-1.9072,-1.9084,-1.9072,-1.9072,-1.9072,-1.9072,0.0,-1.9072,-1.9072,0.0,0.0,0.0,0.0,0.0,0.0,0.0,0.0,0.0,0.0,0.0,0.0,0.0,0.0,0.0,0.0,0.0,0.0,0.0,0.0,0.0,0.0,-1.7001,-1.7001,-1.7001,-1.7001,-1.7001,-1.7001,-1.7001,-1.7001,-1.7001,-1.7001,0.0,0.0,0.0,0.0,0.0,0.0,-1.0704,-0.9516,-0.859,-0.859,-0.859,-0.859,-0.859,-0.859,-0.859,-0.859,-0.859,-0.859,-0.859,-0.859,0.0,0.0,0.0,0.0,0.0,0.0,0.0,0.0,0.0,0.0,0.0,0.0,0.0,0.0,0.0,0.0,0.0,0.0,0.0,0.0,0.0,0.0,0.0,0.0,0.0,0.0,0.0,0.0,0.0,-2.3628,-2.307,-2.1744,-2.1526,-2.1502,0.0,0.0,0.0,0.0,0.0,0.0,0.0,0.0,0.0,-2.2444,-2.1205,-2.0571,-2.0672,-1.9362,-1.8819,-1.9072,-1.9072,-1.9072,-1.9072,-1.9072,-1.9072,-1.9072,-1.9072,-1.9072,-1.9072,-1.9072,-1.9072,-1.9072,0.0,0.0,0.0,0.0,-1.8956,-1.8828,-1.8828,-1.8699,-1.8571,-1.8828,0.0,0.0,0.0,0.0,0.0,0.0,0.0,-1.8185,-1.8185,-1.7658,-1.7271,-1.7271,-1.713,-1.7001,-1.7001,-1.7001,-1.7001,-1.7001,-1.7001,-1.7001,-1.7001,-1.6483,0.0,0.0,0.0,-1.2545,-1.0836,-1.0174,-0.9516,-0.8717,-0.859,-0.859,-0.859,-0.859,-0.859,-0.859,-0.859,-0.859,-0.859,-0.859,-0.859,0.0,0.0,0.0,0.0,0.0,0.0,0.0,0.0,0.0,0.0,0.0,0.0,0.0,0.0,0.0,0.0,0.0,0.0,0.0,0.0,0.0,0.0,0.0,0.0,0.0,0.0,0.0,0.0,-2.3595,-2.3536,-2.2523,-2.2523,-2.2297,0.0,0.0,0.0,0.0,0.0,0.0,-2.3087,-2.307,-2.3115,-2.3021,-2.1317,-2.0777,-2.1477,-1.9738,-1.8879,-1.9072,-1.9072,-1.9072,-1.9072,-1.9072,-1.9072,-1.9072,-1.9072,-1.9072,-1.9072,-1.9072,-1.9072,-1.9072,-1.9072,-1.9072,-1.9072,-1.9072,-1.8944,-1.8699,-1.8944,-1.8956,-1.8828,-1.9072,-1.9072,-1.9072,-1.9072,0.0,0.0,0.0,0.0,-1.8571,-1.8442,-1.7916,-1.7529,-1.74,-1.7141,-1.7001,-1.7001,-1.7001,-1.7001,-1.7001,-1.7001,-1.7001,-1.7001,-1.6742,0.0,-1.5564,-1.4772,-1.3726,-1.2018,-1.1094,-1.0306,-0.925,-0.8851,-0.859,-0.859,-0.859,-0.859,-0.859,-0.859,-0.859,-0.859,-0.859,-0.859,-0.859,0.0,0.0,0.0,0.0,0.0,0.0,0.0,0.0,0.0,0.0,0.0,0.0,0.0,0.0,0.0,0.0,0.0,0.0,0.0,0.0,0.0,0.0,0.0,0.0,0.0,0.0,0.0,0.0,0.0,-2.5898,-2.4667,0.0,0.0,0.0,0.0,-2.2974,-2.3087,-2.3087,-2.2974,-2.3292,-2.2906,-2.1628,-2.2093,-2.1204,-1.8924,-1.9054,-1.906,-1.9072,-1.9072,-1.9072,-1.9072,-1.9072,-1.9072,-1.9072,-1.9072,-1.9072,-1.9072,-1.9072,-1.9072,-1.9072,-1.9072,-1.9072,-1.9072,-1.9072,-1.9072,-1.9072,-1.9072,-1.9072,-1.9072,-1.9072,-1.9072,-1.9072,-1.9072,-1.9072,0.0,0.0,-1.8828,-1.8571,-1.8173,-1.7787,-1.74,-1.713,-1.7001,-1.7001,-1.7001,-1.7001,-1.7001,-1.7001,-1.7001,-1.7001,-1.7001,0.0,-1.5434,-1.6742,-1.4633,-1.3325,-1.4511,-1.2413,-1.0704,-1.0571,-0.9383,-0.859,-0.859,-0.859,-0.859,-0.859,-0.859,-0.859,-0.859,-0.859,-0.859,-0.859,-0.859,0.0,0.0,0.0,0.0,0.0,0.0,0.0,0.0,0.0,0.0,0.0,0.0,0.0,0.0,0.0,0.0,0.0,0.0,0.0,0.0,0.0,0.0,0.0,0.0,0.0,0.0,0.0,0.0,-2.3983,-2.4317,0.0,-2.4094,-2.4111,-2.4128,-2.4128,-2.4128,-2.4228,-2.4574,-2.4708,-2.4301,-2.3422,-2.2825,-2.1821,-2.0307,-1.9534,-1.9072,-1.9072,-1.9072,-1.9072,-1.9072,-1.9072,-1.9072,-1.9072,-1.9072,-1.9072,-1.9072,-1.9072,-1.9072,-1.9072,-1.9072,-1.9072,-1.9072,-1.9072,-1.9072,-1.9072,-1.9072,-1.9072,-1.9072,-1.9072,-1.9072,-1.9072,-1.9072,-1.9072,-1.9072,-1.9072,-1.8944,-1.8828,-1.8442,-1.8173,-1.7787,-1.74,-1.7141,-1.7001,-1.7001,-1.7001,-1.7001,-1.7001,-1.7001,-1.7001,-1.7001,-1.6613,-1.6483,-1.6872,-1.6213,-1.5424,-1.4903,-1.3193,-1.1747,-1.0836,-0.9383,-0.859,-0.859,-0.859,-0.859,-0.859,-0.859,-0.859,-0.859,-0.859,-0.859,-0.859,-0.859,-0.859,0.0,0.0,0.0,0.0,0.0,0.0,0.0,0.0,0.0,0.0,0.0,0.0,0.0,0.0,0.0,0.0,0.0,0.0,0.0,0.0,0.0,0.0,0.0,0.0,0.0,-2.5789,-2.5551,-2.3871,-2.4539,-2.4889,-2.4094,-2.458,-2.5001,-2.5001,-2.5121,-2.5309,-2.5549,-2.5686,-2.5378,-2.4515,-2.3292,-2.2238,-2.1069,-1.9826,-1.9072,-1.9072,-1.9072,-1.9072,-1.9072,-1.9072,-1.9072,-1.9072,-1.9072,-1.9072,-1.9072,-1.9072,-1.9072,-1.9072,-1.9072,-1.9072,-1.9072,-1.9072,-1.9072,-1.9072,-1.9072,-1.9072,-1.9072,-1.9072,-1.9072,-1.9072,-1.9072,-1.9072,-1.9072,-1.8944,-1.8944,-1.8944,-1.8442,-1.8173,-1.8045,-1.7529,-1.7271,-1.713,-1.7001,-1.7001,-1.7001,-1.7001,-1.7001,-1.7001,-1.7001,-1.7001,-1.6872,-1.6343,-1.6742,-1.6483,-1.5043,-1.3718,-1.2405,-1.149,-0.9775,-0.859,-0.859,-0.859,-0.859,-0.859,-0.859,-0.859,-0.859,-0.859,-0.859,-0.859,-0.859,-0.859,-0.859,0.0,0.0,0.0,0.0,0.0,0.0,0.0,0.0,0.0,0.0,0.0,0.0,0.0,0.0,0.0,0.0,0.0,0.0,0.0,0.0,0.0,0.0,0.0,-2.6591,-2.6354,-2.6136,-2.6136,-2.5569,-2.5238,-2.5238,-2.538,-2.5395,-2.5395,-2.5737,-2.5943,-2.596,-2.6285,-2.588,-2.4547,-2.3518,-2.2452,-2.1082,-1.9699,-1.9072,-1.9072,-1.9072,-1.9072,-1.9072,-1.9072,-1.9072,-1.9072,-1.9072,-1.9072,-1.9072,-1.9072,-1.9072,-1.9072,-1.9072,-1.9072,-1.9072,-1.9072,-1.9072,-1.9072,-1.9072,-1.9072,-1.9072,-1.9072,-1.9072,-1.9072,-1.9072,-1.9072,-1.9072,-1.8699,-1.8828,-1.8816,-1.7787,-1.8056,-1.8314,-1.7271,-1.7271,-1.74,-1.7001,-1.7001,-1.7001,-1.7001,-1.7001,-1.7001,-1.7001,-1.7001,-1.6483,-1.5173,-1.6084,0.0,-1.5173,-1.3718,-1.28,-1.28,-1.03,-0.8584,-0.859,-0.859,-0.859,-0.859,-0.859,-0.859,-0.859,-0.859,-0.859,-0.859,-0.859,-0.859,-0.859,0.0,0.0,0.0,0.0,0.0,0.0,0.0,0.0,0.0,0.0,0.0,0.0,0.0,0.0,0.0,0.0,0.0,0.0,0.0,0.0,0.0,-2.6591,-2.6591,-2.6591,-2.6136,-2.5789,-2.5789,-2.5482,-2.5319,-2.5319,-2.5566,-2.5788,-2.5788,-2.5874,-2.6045,-2.6319,-2.5575,-2.4522,-2.3548,-2.2284,-2.0956,-1.9699,-1.9328,-1.9072,-1.9072,-1.9072,-1.9072,-1.9072,-1.9072,-1.9072,-1.9072,-1.9072,-1.9072,-1.9072,-1.9072,-1.9072,-1.9072,-1.9072,-1.9072,-1.9072,-1.9072,-1.9072,-1.9072,-1.9072,-1.9072,-1.9072,-1.9072,-1.9072,-1.9072,-1.9072,-1.9072,-1.9072,-1.8944,-1.9072,-1.8944,-1.8033,-1.8033,-1.7916,-1.713,-1.7001,-1.7141,-1.7001,-1.7001,-1.7001,-1.7001,-1.7001,-1.7001,-1.7001,-1.7001,-1.6872,-1.6483,-1.6742,-1.6872,-1.6483,-1.5163,-1.3979,-1.2931,-1.1226,-0.9643,-0.8717,-0.859,-0.859,-0.859,-0.859,-0.859,-0.859,-0.859,-0.859,-0.859,-0.859,-0.859,0.0,0.0,0.0,0.0,0.0,0.0,0.0,0.0,0.0,0.0,0.0,0.0,0.0,0.0,0.0,0.0,0.0,0.0,0.0,0.0,0.0,0.0,-2.6591,-2.6646,-2.6683,-2.6277,-2.5927,-2.5705,-2.5718,-2.56,-2.56,-2.5943,-2.6165,-2.6165,-2.6319,-2.6508,-2.673,-2.5994,-2.5108,-2.3946,-2.2702,-2.1321,-1.9954,-1.92,-1.8956,-1.9072,-1.8956,-1.8944,-1.9072,-1.9072,-1.9072,-1.9072,-1.9072,-1.9072,-1.9072,-1.9072,-1.9072,-1.9072,0.0,0.0,0.0,0.0,-1.9072,-1.9072,-1.9072,-1.9072,-1.9072,-1.9072,-1.9072,-1.9072,-1.9072,-1.9072,-1.9072,-1.8956,-1.8956,-1.8688,-1.8045,-1.7905,-1.7776,-1.713,-1.7141,-1.7141,-1.7001,-1.7001,-1.7001,-1.7001,-1.7001,0.0,-1.7001,-1.7001,-1.6742,-1.6213,-1.6613,-1.6602,-1.5424,-1.4511,-1.3456,-1.201,-1.0697,-0.9516,-0.8723,-0.859,0.0,0.0,0.0,-0.859,-0.859,-0.859,0.0,0.0,0.0,-0.859,-0.859,-0.859,0.0,0.0,-0.859,-0.8323,0.0,0.0,0.0,0.0,0.0,0.0,0.0,0.0,0.0,0.0,0.0,0.0,0.0,0.0,0.0,0.0,-2.6628,-2.6665,-2.6659,-2.6465,-2.6293,-2.5883,-2.5887,-2.5994,-2.5994,-2.6336,-2.6559,-2.6559,-2.6884,-2.7073,-2.7073,-2.6813,0.0,0.0,0.0,-2.2146,-2.0922,-1.9414,-1.8782,-1.9157,-1.8758,-1.8875,-1.912,-1.9084,-1.9072,-1.9072,-1.9072,-1.9072,-1.9072,-1.9072,-1.9072,-1.9072,-1.9072,-1.9072,-1.9072,-1.9072,-1.9072,-1.9072,-1.9072,0.0,0.0,-1.9072,-1.9072,-1.9072,-1.9072,-1.9072,-1.9072,-1.8699,-1.8571,-1.8442,-1.7787,-1.7787,-1.7776,-1.713,-1.7271,-1.74,-1.7001,-1.7001,-1.7001,-1.7001,-1.7001,-1.7001,-1.7001,-1.7001,-1.6613,-1.5303,-1.6213,-1.6084,-1.3587,-1.3193,-1.2537,-1.1094,-0.9643,0.0,-0.859,-0.859,-0.859,-0.859,-0.859,-0.859,-0.859,-0.859,-0.859,-0.859,-0.859,-0.859,-0.859,-0.859,-0.859,-0.859,-0.859,-0.8189,0.0,0.0,0.0,0.0,0.0,0.0,0.0,0.0,0.0,0.0,0.0,0.0,0.0,0.0,0.0,-2.6591,-2.6848,-2.6864,-2.6394,-2.6831,-2.6981,-2.6319,-2.6382,-2.6388,-2.6388,-2.673,-2.6953,-2.6953,-2.7039,-2.7073,-2.7073,-2.5071,-2.3818,-2.3821,-2.143,-2.0005,-1.97,-1.9314,-1.9182,-1.9303,-1.897,0.0,-1.9386,-1.9169,-1.9072,-1.9072,-1.9072,-1.9072,-1.9072,-1.9072,-1.9072,-1.9072,-1.9072,-1.9072,-1.9072,-1.9072,-1.9072,-1.9072,-1.9072,-1.9072,-1.9072,-1.9072,-1.9072,-1.9072,-1.9072,-1.9072,0.0,-1.9072,-1.8828,-1.8442,-1.8045,-1.7787,-1.7529,-1.713,-1.7001,-1.713,-1.7001,-1.7001,-1.7001,-1.7001,-1.7001,-1.7001,-1.7001,-1.7001,-1.6872,-1.6613,-1.6872,-1.6742,-1.6213,-1.5163,-1.3988,-1.2537,-1.1094,-0.9775,-0.8717,-0.859,-0.859,-0.859,-0.859,-0.859,-0.859,-0.859,-0.859,-0.859,-0.859,-0.859,-0.859,-0.859,-0.859,-0.859,-0.859,-0.859,0.0,0.0,0.0,0.0,0.0,0.0,0.0,0.0,0.0,0.0,0.0,-2.6989,-2.6791,0.0,-2.6646,-2.6848,-2.6939,-2.697,-2.6814,-2.6971,-2.7011,-2.6468,-2.6661,-2.6782,-2.6782,-2.6953,-2.7073,-2.7073,-2.7073,-2.7073,-2.7073,-2.5986,-2.4766,-2.3545,-2.2162,-2.0886,-1.9602,-1.9201,-1.9201,-1.9323,-1.8939,-1.9002,-1.9399,-1.9268,-1.934,-1.947,-1.9338,-1.9265,-1.9265,-1.9132,-1.9072,-1.9072,-1.9072,-1.9072,-1.9072,-1.9072,-1.9072,-1.9072,-1.9072,-1.9072,-1.9072,-1.9072,-1.9072,-1.9072,-1.9072,-1.9072,-1.9072,-1.8956,-1.8559,-1.8173,-1.7916,-1.7529,-1.7271,-1.7001,-1.7001,-1.7001,-1.7001,-1.7001,-1.7001,-1.7001,-1.7001,-1.7001,-1.7001,-1.7001,-1.7001,-1.7001,-1.7001,-1.6742,-1.6084,-1.4772,-1.3325,-1.1878,-1.0432,-0.9383,-0.8723,-0.859,-0.859,-0.859,-0.859,-0.859,-0.859,-0.859,-0.859,-0.859,-0.859,-0.859,-0.859,-0.859,-0.859,-0.859,-0.859,-0.8456,0.0,0.0,0.0,0.0,0.0,0.0,0.0,-2.7745,-2.753,-2.6989,-2.6881,-2.6899,-2.67,-2.6646,-2.6811,-2.7123,-2.7064,-2.705,-2.7364,-2.7151,-2.695,-2.661,-2.6884,-2.7073,-2.7073,-2.7073,-2.7073,-2.7073,-2.7073,-2.7107,-2.7176,-2.6817,-2.5753,-2.3607,-2.293,-2.178,-1.9768,-1.9082,-1.8947,-1.9206,-1.8901,-1.9002,-1.9271,-1.9212,-1.9334,-1.9735,-1.9508,-1.9543,-1.9531,-1.9314,-1.9205,-1.9157,-1.9157,-1.912,-1.9072,-1.9072,-1.9072,-1.9072,-1.9072,-1.9072,-1.9072,-1.9072,-1.9072,-1.9072,-1.9072,-1.9072,-1.8956,-1.8699,-1.8302,-1.7776,-1.7529,-1.7271,-1.7001,-1.7001,-1.7001,-1.7001,-1.7001,-1.7001,-1.7001,-1.7001,-1.7001,-1.7001,-1.7001,-1.7001,-1.7001,-1.7001,-1.7001,-1.6483,-1.5043,-1.3718,-1.2274,-1.0836,-0.9383,-0.859,-0.859,-0.859,-0.859,-0.859,-0.859,-0.859,-0.859,-0.859,-0.859,-0.859,-0.859,-0.859,-0.859,-0.859,-0.859,-0.859,-0.859,-0.8189,-2.9661,-2.8774,-2.8495,-2.8301,-2.8067,-2.7853,0.0,-2.7314,-2.6989,-2.6682,-2.67,-2.67,-2.6591,-2.6885,-2.7123,-2.7178,-2.7537,-2.7678,-2.7434,-2.7379,-2.7349,-2.7004,-2.7056,-2.7073,-2.7073,-2.7073,-2.7073,-2.7073,-2.7073,-2.721,-2.7535,-2.4905,-2.3536,-2.3851,-2.1116,-1.9507,-1.9044,-1.9044,-1.9044,-1.9044,-1.8694,-1.8857,-1.9255,-1.8901,-1.8933,-1.8933,-1.9166,-1.9554,-1.9833,-1.9808,-1.9652,-1.9422,-1.9422,-1.9277,-1.9072,-1.9072,-1.9072,-1.9072,-1.9072,-1.9072,-1.9072,-1.9072,-1.9072,-1.9072,-1.9072,-1.8956,-1.8699,-1.8571,-1.8056,-1.7529,-1.7529,-1.7271,-1.7001,-1.7001,-1.7001,-1.7001,-1.7001,-1.7001,-1.7001,-1.7001,-1.7001,-1.7001,-1.7001,-1.7001,-1.7001,-1.7001,-1.7001,-1.6483,-1.5043,-1.3718,-1.2274,-1.0836,-0.9383,-0.859,-0.859,-0.859,-0.859,-0.859,-0.859,-0.859,-0.859,-0.859,-0.859,-0.859,-0.859,-0.859,-0.859,-0.859,-0.859,-0.859,-0.8323,-0.8323,-3.0141,-2.8814,-2.8301,-2.8067,-2.796,-2.7745,-2.7314,-2.7098,-2.6881,-2.67,-2.6591,-2.6591,-2.6591,-2.6903,-2.7251,-2.7264,-2.7427,-2.7523,-2.7498,-2.7314,-2.7194,-2.7073,-2.7073,-2.7073,-2.7073,-2.7073,-2.7073,-2.7073,-2.6692,-2.6355,-2.6064,-2.4614,-2.3508,-2.2619,-2.1182,-2.0107,-1.9692,-1.9273,-1.8993,-1.8993,-1.8883,-1.8977,-1.9104,-1.9003,-1.9016,-1.9016,-1.9151,-1.9341,-1.9602,-1.9602,-1.9675,-1.9712,-1.9712,-1.9543,-1.9289,-1.9132,-1.9072,-1.9072,-1.9072,-1.9072,-1.9072,-1.9072,-1.9072,-1.9072,-1.9072,-1.8944,-1.8828,-1.8431,-1.8045,-1.7658,-1.7271,-1.7141,-1.7001,-1.7001,-1.7001,-1.7001,-1.7001,-1.7001,-1.7001,-1.7001,-1.7001,-1.7001,-1.7001,-1.7001,-1.7001,-1.7001,-1.7001,-1.6483,-1.5043,-1.3718,-1.1916,-0.9887,-0.916,-0.8796,-0.8796,-0.8796,-0.8796,-0.8796,-0.8796,-0.8796,-0.8796,-0.8796,-0.8764,-0.8698,-0.8693,-0.866,-0.859,-0.859,-0.859,-0.859,-0.8189,-0.8226,-2.9932,-2.8794,-2.8174,-2.796,-2.7745,-2.753,-2.7098,-2.6989,-2.6791,-2.67,-2.6683,-2.6756,-2.6756,-2.716,-2.7373,-2.7434,-2.7463,-2.7463,-2.7486,-2.7297,-2.7073,-2.7073,-2.7073,-2.7073,-2.683,-2.6952,-2.6952,-2.6432,-2.6027,-2.5357,-2.4411,-2.371,-2.2841,-2.1662,-2.0784,-2.0213,-1.9692,-1.9133,-1.8854,-1.8854,-1.8854,-1.8854,-1.8854,-1.8854,-1.8894,-1.9141,-1.9278,-1.9437,-1.9546,-1.9681,-1.978,-1.9989,-1.9989,-1.982,-1.9555,-1.9362,-1.9205,-1.9072,-1.9072,-1.9072,-1.9072,-1.9072,-1.9072,-1.9072,-1.9072,-1.9084,-1.8816,-1.8302,-1.8045,-1.7776,-1.726,-1.7001,-1.7001,-1.7001,-1.7001,-1.7001,-1.7001,-1.7001,-1.7001,-1.7001,-1.7001,-1.7001,-1.7001,-1.7066,-1.7109,-1.7109,-1.7163,-1.6519,-1.4603,-1.2781,-1.0994,-0.908,-0.8899,-0.8954,-0.8954,-0.8954,-0.8954,-0.8954,-0.8954,-0.8954,-0.8954,-0.8954,-0.891,-0.8823,-0.8818,-0.8774,-0.8687,-0.8687,-0.8687,-0.8687,-0.8283,-0.8194,-2.8388,-2.8174,-2.796,-2.7853,-2.7422,-2.6989,-2.6989,-2.6791,-2.6591,-2.6591,-2.6885,-2.716,-2.716,-2.7573,-2.7867,-2.7885,-2.7617,-2.7504,-2.7521,-2.7297,-2.7073,-2.7073,-2.7073,-2.683,-2.6189,-2.6692,-2.6432,-2.4794,-2.4844,-2.4426,-2.306,-2.1525,-2.0873,-2.1271,-1.9379,-1.8433,-1.8433,-1.8433,-1.8433,-1.8433,-1.8433,-1.8433,-1.8433,-1.8433,-1.8573,-1.8982,-1.939,-1.9808,-2.0086,-2.0503,-2.0496,-2.0267,-2.0267,-2.011,-1.9869,-1.9869,-1.9531,-1.9072,-1.9072,-1.9072,-1.9072,-1.9072,-1.9072,-1.9072,-1.9072,-1.8828,-1.8571,-1.8571,-1.8056,-1.7529,-1.7529,-1.7271,-1.7001,-1.7001,-1.7001,-1.7001,-1.7001,-1.7001,-1.7001,-1.7001,-1.7001,-1.7001,-1.7001,-1.7206,-1.7367,-1.7367,-1.755,-1.652,-1.3486,-1.0633,-0.8943,-0.8948,-0.8948,-0.8954,-0.8954,-0.8954,-0.8954,-0.8954,-0.8954,-0.8954,-0.8954,-0.8954,-0.8948,-0.8948,-0.8948,-0.8943,-0.8938,-0.8938,-0.8938,-0.8938,-0.8516,-0.8238,-2.8301,-2.8067,-2.7853,-2.7638,-2.7314,-2.6989,-2.6791,-2.6682,-2.6664,-2.6921,-2.7086,-2.7251,-2.7526,-2.7773,-2.7786,-2.7552,-2.7516,-2.7401,-2.7297,-2.7194,-2.7073,-2.7073,-2.7073,-2.683,-2.6189,-2.6327,-2.5684,-2.4054,-2.4014,-2.3178,-2.1253,-2.0625,-2.009,-1.9796,-1.8843,-1.8573,-1.8854,-1.8573,-1.8433,-1.8433,-1.8433,-1.8433,-1.8433,-1.8433,-1.8573,-1.8993,-1.9122,-1.9552,-2.011,-2.0249,-2.0479,-2.0533,-2.0533,-2.0376,-2.0146,-2.0146,-1.9917,-1.9591,-1.9398,-1.9217,-1.9072,-1.9072,-1.9072,-1.9072,-1.9072,-1.9072,-1.8828,-1.8302,-1.8045,-1.7787,-1.726,-1.713,-1.7001,-1.7001,-1.7001,-1.7001,-1.7001,-1.7001,-1.7001,-1.7001,-1.7141,-1.7249,-1.7249,-1.7453,-1.7658,-1.783,-1.6953,-1.5508,-1.3518,-1.1614,-1.0187,-0.9073,-0.9139,-0.9188,-0.9188,-0.9188,-0.9188,-0.9188,-0.9188,-0.9188,-0.9188,-0.9188,-0.915,-0.9073,-0.9073,-0.9035,-0.8954,-0.8954,-0.8954,-0.8954,-0.8253,-0.8009,-2.8174,-2.796,-2.7638,-2.7314,-2.7098,-2.6791,-2.67,-2.6701,-2.6866,-2.7123,-2.7416,-2.7691,-2.7948,-2.7966,-2.7884,-2.7647,-2.7502,-2.7297,-2.7073,-2.7073,-2.7073,-2.7073,-2.7073,-2.6692,-2.5439,-2.5439,-2.4702,-2.2952,-2.2723,-2.175,-1.9566,-1.9652,-1.9519,-1.8843,-1.8573,-1.8573,-1.8854,-1.8573,-1.8433,-1.8433,-1.8433,-1.8433,-1.8433,-1.8433,-1.8573,-1.8993,-1.9122,-1.9552,-2.011,-2.0249,-2.0527,-2.0665,-2.0665,-2.0569,-2.0412,-2.0412,-2.0255,-1.9977,-1.9591,-1.9362,-1.9205,-1.9108,-1.9072,-1.9072,-1.9072,-1.9072,-1.8828,-1.8302,-1.8045,-1.7787,-1.7271,-1.713,-1.7001,-1.7001,-1.7001,-1.7033,-1.712,-1.7141,-1.7163,-1.7249,-1.7389,-1.7496,-1.7496,-1.7701,-1.7938,-1.8175,-1.6827,-1.5201,-1.3661,-1.2367,-1.0889,-0.9336,-0.9258,-0.9302,-0.9302,-0.9302,-0.9302,-0.9302,-0.9302,-0.9302,-0.9302,-0.9302,-0.9269,-0.9198,-0.9193,-0.9155,-0.9079,-0.9079,-0.8938,-0.8797,-0.8369,-0.7983,-2.796,-2.7638,-2.7314,-2.7098,-2.6809,-2.6628,-2.6628,-2.6921,-2.7215,-2.7233,-2.7856,-2.8407,-2.8425,-2.8128,-2.802,-2.802,-2.7435,-2.7073,-2.7073,-2.7073,-2.7073,-2.7073,-2.7073,-2.6327,-2.4317,-2.407,-2.3325,-2.1573,-2.1344,-2.0364,-1.8261,-1.8727,-1.8854,-1.8433,-1.8433,-1.8433,-1.8433,-1.8433,-1.8433,-1.8433,-1.8433,-1.8433,-1.8433,-1.8433,-1.8714,-1.8982,-1.9401,-1.9831,-2.011,-2.0527,-2.0665,-2.0665,-2.0665,-2.0665,-2.0665,-2.0665,-2.0509,-2.0219,-1.9688,-1.9495,-1.9446,-1.9193,-1.912,-1.912,-1.9096,-1.884,-1.8594,-1.8571,-1.8056,-1.7551,-1.7551,-1.7293,-1.7044,-1.7044,-1.7044,-1.7109,-1.7346,-1.74,-1.7464,-1.768,-1.7733,-1.7744,-1.7755,-1.7949,-1.8186,-1.8401,-1.7157,-1.5593,-1.4164,-1.2588,-1.1018,-0.9446,-0.9302,-0.9302,-0.9302,-0.9302,-0.9302,-0.9302,-0.9302,-0.9302,-0.9302,-0.9302,-0.9302,-0.9302,-0.9302,-0.9302,-0.9302,-0.9302,-0.9157,-0.8729,-0.8729,-0.829,-2.796,-2.753,-2.7098,-2.6989,-2.7012,-2.7031,-2.7031,-2.7325,-2.771,-2.8022,-2.826,-2.8363,-2.8437,-2.8206,-2.79,-2.7642,-2.7297,-2.7073,-2.7073,-2.7073,-2.7073,-2.7073,-2.7073,-2.6205,-2.3946,-2.3325,-2.2076,-1.9954,-2.021,-1.9723,-1.7992,-1.8589,-1.8854,-1.8433,-1.8433,-1.8433,-1.8433,-1.8433,-1.8433,-1.8433,-1.8433,-1.8433,-1.8433,-1.8714,-1.9133,-1.9401,-1.9831,-2.0249,-2.0527,-2.0388,-2.0388,-2.0665,-2.0388,-2.0249,-2.0249,-2.0527,-2.0491,-2.0107,-2.0047,-1.9941,-1.9772,-1.97,-1.9676,-1.9639,-1.9173,-1.8983,-1.8687,-1.7973,-1.7792,-1.7806,-1.7544,-1.741,-1.754,-1.754,-1.754,-1.755,-1.7615,-1.7626,-1.7647,-1.7712,-1.7873,-1.8056,-1.8229,-1.8304,-1.8369,-1.8422,-1.7157,-1.5593,-1.4164,-1.2588,-1.1018,-0.9446,-0.9302,-0.9302,-0.9302,-0.9302,-0.9302,-0.9302,-0.9302,-0.9302,-0.9302,-0.9302,-0.9302,-0.9302,-0.9302,-0.9302,-0.9302,-0.9302,-0.9157,-0.8729,-0.844,-0.8005,-2.7745,-2.7446,-2.7269,-2.7159,-2.7253,-2.7435,-2.7435,-2.7746,-2.8113,-2.8352,-2.8535,-2.8718,-2.8719,-2.8379,-2.79,-2.7762,-2.7418,-2.7073,-2.7073,-2.7073,-2.7073,-2.7073,-2.6432,-2.5301,-2.3325,-2.2187,-2.0563,-1.8559,-1.9172,-1.9201,-1.7992,-1.8589,-1.8854,-1.8433,-1.8433,-1.8433,-1.8433,-1.8433,-1.8433,-1.8433,-1.8433,-1.8433,-1.8433,-1.8573,-1.8982,-1.9541,-1.9831,-2.011,-2.0388,-2.0388,-2.0388,-2.0388,-2.0249,-2.0249,-2.0388,-2.0388,-2.0388,-2.0376,-2.0496,-2.0352,-2.0195,-1.9965,-1.9747,-1.9578,-1.9291,-1.8858,-1.8559,-1.8027,-1.7818,-1.7784,-1.7529,-1.7626,-1.7723,-1.7723,-1.7723,-1.7744,-1.7863,-1.7884,-1.7916,-1.8013,-1.8142,-1.8282,-1.8412,-1.8433,-1.8433,-1.8433,-1.7157,-1.5593,-1.4164,-1.2588,-1.1018,-0.9446,-0.9302,-0.9302,-0.9302,-0.9302,-0.9302,-0.9302,-0.9302,-0.9302,-0.9302,-0.9302,-0.9302,-0.9302,-0.9302,-0.9302,-0.9302,-0.9302,-0.9018,-0.844,-0.815,-0.786,-2.7592,-2.7547,-2.7586,-2.7363,-2.7563,-2.7856,-2.7856,-2.8168,-2.848,-2.848,-2.8737,-2.8975,-2.8856,-2.8379,-2.802,-2.79,-2.7435,-2.7073,-2.7073,-2.7073,-2.7073,-2.7073,-2.5806,-2.4301,-2.2827,-2.1434,-1.9801,-1.809,-1.8536,-1.8664,-1.8138,-1.8589,-1.8714,-1.8433,-1.8433,-1.8433,-1.8433,-1.8433,-1.8433,-1.8433,-1.8433,-1.8433,-1.8433,-1.8433,-1.8854,-1.9541,-1.968,-1.9831,-2.011,-2.0388,-2.0388,-2.011,-2.011,-2.0249,-2.0527,-2.0249,-2.0388,-2.0665,-2.0665,-2.0665,-2.0593,-2.0134,-1.9709,-1.9428,-1.9259,-1.871,-1.8182,-1.8138,-1.7879,-1.7766,-1.7766,-1.7787,-1.7809,-1.7809,-1.7809,-1.7873,-1.8089,-1.8142,-1.8196,-1.839,-1.8433,-1.8433,-1.8433,-1.8433,-1.8433,-1.8433,-1.7007,-1.5443,-1.4022,-1.2588,-1.1018,-0.9446,-0.9302,-0.9302,-0.9302,-0.9302,-0.9302,-0.9302,-0.9302,-0.9302,-0.9302,-0.9302,-0.9302,-0.9302,-0.9302,-0.9302,-0.9302,-0.9302,-0.8874,-0.815,-0.815,-0.7715,-2.8127,-2.7957,-2.7768,-2.7655,-2.7985,-2.8278,-2.8278,-2.859,-2.8883,-2.8883,-2.8938,-2.8856,-2.8259,-2.814,-2.7779,-2.7315,-2.7194,-2.7073,-2.7073,-2.7073,-2.7073,-2.7073,-2.6813,-2.5823,-2.3698,-2.3186,-2.2174,-2.0153,-1.9543,-1.8799,-1.7857,-1.8175,-1.8433,-1.8433,-1.8433,-1.8433,-1.8433,-1.8433,-1.8433,-1.8433,-1.8433,-1.8433,-1.8433,-1.8714,-1.9122,-1.968,-1.9831,-2.011,-2.011,-1.982,-1.997,-2.011,-1.9831,-1.997,-2.0249,-2.0527,-2.0388,-2.0249,-2.0527,-2.0527,-2.0237,-2.0154,-1.998,-1.9795,-1.9039,-1.8561,-1.8391,-1.7912,-1.7873,-1.8024,-1.8024,-1.8175,-1.8315,-1.8315,-1.8315,-1.8326,-1.8369,-1.8379,-1.839,-1.8422,-1.8433,-1.8433,-1.8433,-1.8433,-1.8433,-1.8433,-1.6018,-1.4164,-1.388,-1.2588,-1.1018,-0.9446,-0.9302,-0.9302,-0.9302,-0.9302,-0.9302,-0.9302,-0.9302,-0.9302,-0.9302,-0.9302,-0.9302,-0.9302,-0.9302,-0.9302,-0.9302,-0.9302,-0.8874,-0.815,-0.815,-0.7715,-2.8333,-2.8159,-2.8095,-2.8095,-2.8388,-2.87,-2.87,-2.8847,-2.8975,-2.8975,-2.8975,-2.8856,-2.8397,-2.814,-2.79,-2.7418,-2.7194,-2.7073,-2.7073,-2.7073,-2.7073,-2.7073,-2.6067,-2.4826,-2.3698,-2.1937,-2.0553,-1.9838,-1.9435,-1.9113,-1.8699,-1.8517,-1.8433,-1.8433,-1.8433,-1.8433,-1.8433,-1.8433,-1.8433,-1.8433,-1.8433,-1.8433,-1.8433,-1.8854,-1.9262,-1.968,-1.997,-1.997,-1.9831,-1.9831,-1.9831,-1.9831,-1.9401,-1.9692,-2.011,-2.011,-2.011,-2.011,-2.0527,-2.0388,-2.011,-2.011,-1.997,-1.9669,-1.8988,-1.8816,-1.8655,-1.8259,-1.8175,-1.8272,-1.8272,-1.8358,-1.8433,-1.8433,-1.8433,-1.8433,-1.8433,-1.8433,-1.8433,-1.8433,-1.8433,-1.8433,-1.8433,-1.8433,-1.8433,-1.8433,-1.6583,-1.4875,-1.4022,-1.2588,-1.1018,-0.9446,-0.9302,-0.9302,-0.9302,-0.9302,-0.9302,-0.9302,-0.9302,-0.9302,-0.9302,-0.9302,-0.9302,-0.9302,-0.9302,-0.9302,-0.9302,-0.9302,-0.8874,-0.815,-0.815,-0.7715,-2.848,-2.851,-2.8517,-2.8517,-2.8755,-2.8975,-2.8975,-2.8975,-2.8975,-2.8975,-2.8975,-2.8874,-2.8517,-2.814,-2.79,-2.7521,-2.7177,-2.7073,-2.7073,-2.7073,-2.7073,-2.7073,-2.5317,-2.407,-2.3961,-2.1308,-1.9799,-2.0086,-2.0001,-1.9903,-1.9769,-1.8883,-1.8433,-1.8433,-1.8433,-1.8433,-1.8433,-1.8433,-1.8433,-1.8433,-1.8433,-1.8433,-1.8433,-1.8854,-1.9262,-1.968,-1.997,-1.997,-1.968,-1.997,-1.9831,-1.968,-1.9122,-1.9413,-2.011,-1.968,-1.9831,-2.011,-2.0527,-2.0388,-1.997,-1.997,-1.9692,-1.9401,-1.9133,-1.8993,-1.8854,-1.8433,-1.8433,-1.8433,-1.8433,-1.8433,-1.8433,-1.8433,-1.8433,-1.8433,-1.8433,-1.8433,-1.8433,-1.8433,-1.8433,-1.8433,-1.8433,-1.8433,-1.8433,-1.8433,-1.6866,-1.5301,-1.4022,-1.2302,-1.0587,-0.9446,-0.9302,-0.9302,-0.9302,-0.9302,-0.9302,-0.9302,-0.9302,-0.9302,-0.9302,-0.9302,-0.9302,-0.9302,-0.9302,-0.9302,-0.9302,-0.9302,-0.8874,-0.815,-0.815,-0.7715,-2.8983,-2.8902,-2.892,-2.892,-2.8957,-2.8975,-2.8975,-2.8975,-2.8975,-2.8975,-2.8975,-2.8737,-2.814,-2.802,-2.7779,-2.7194,-2.7073,-2.7073,-2.7073,-2.7073,-2.7073,-2.7073,-2.6327,-2.5578,-2.498,-2.41,-2.3738,-2.4067,-2.2807,-2.1378,-2.0178,-1.8971,-1.8433,-1.8433,-1.8433,-1.8433,-1.8433,-1.8433,-1.8433,-1.8433,-1.8433,-1.8433,-1.8433,-1.8854,-1.9262,-1.968,-1.997,-2.011,-1.997,-1.9831,-1.9831,-1.997,-1.9273,-1.9413,-2.011,-2.011,-2.011,-2.011,-2.0527,-2.0249,-1.968,-1.9541,-1.9262,-1.8982,-1.8993,-1.8714,-1.8433,-1.8433,-1.8433,-1.8433,-1.8433,-1.8433,-1.8433,-1.8433,-1.8433,-1.8433,-1.8433,-1.8433,-1.8433,-1.8433,-1.8433,-1.8433,-1.8433,-1.8433,-1.8433,-1.8433,-1.6009,-1.4022,-1.388,-1.1305,-0.9446,-0.9302,-0.9302,-0.9302,-0.9302,-0.9302,-0.9302,-0.9302,-0.9302,-0.9302,-0.9302,-0.9302,-0.9302,-0.9302,-0.9302,-0.9302,-0.9302,-0.9302,-0.8874,-0.815,-0.815,-0.7715,-2.9094,-2.8975,-2.8975,-2.8975,-2.8975,-2.8975,-2.8975,-2.8975,-2.8975,-2.8975,-2.8874,-2.8517,-2.814,-2.79,-2.7539,-2.7194,-2.7073,-2.7073,-2.7073,-2.7073,-2.7073,-2.7073,-2.6449,-2.5945,-2.5717,-2.4579,-2.3813,-2.3951,-2.2563,-2.1442,-2.102,-1.9401,-1.8433,-1.8433,-1.8433,-1.8433,-1.8433,-1.8433,-1.8433,-1.8433,-1.8433,-1.8433,-1.8433,-1.8982,-1.9401,-1.9541,-2.0249,-2.0249,-1.9831,-1.968,-1.968,-1.968,-1.8993,-1.9133,-1.9831,-1.9552,-1.9552,-1.9831,-1.9959,-1.982,-1.9541,-1.9541,-1.9122,-1.8573,-1.8573,-1.8714,-1.8714,-1.8433,-1.8433,-1.8433,-1.8433,-1.8433,-1.8433,-1.8433,-1.8433,-1.8433,-1.8433,-1.8433,-1.8433,-1.8433,-1.8433,-1.8433,-1.8433,-1.8433,-1.8433,-1.8433,-1.5867,-1.388,-1.388,-1.1168,-0.9302,-0.9302,-0.9302,-0.9302,-0.9302,-0.9302,-0.9302,-0.9302,-0.9302,-0.9302,-0.9302,-0.9302,-0.9302,-0.9302,-0.9302,-0.9302,-0.9302,-0.9018,-0.8584,-0.815,-0.786,-0.7601,-2.9094,-2.8975,-2.8975,-2.8975,-2.8975,-2.8975,-2.8975,-2.8975,-2.8993,-2.8874,-2.8636,-2.8397,-2.79,-2.7642,-2.7401,-2.7194,-2.7073,-2.7073,-2.7073,-2.7073,-2.7073,-2.7073,-2.6449,-2.6067,-2.6067,-2.5071,-2.4344,-2.4242,-2.2932,-2.2297,-2.2532,-2.0213,-1.8714,-1.8433,-1.8433,-1.8433,-1.8433,-1.8433,-1.8433,-1.8433,-1.8433,-1.8433,-1.8433,-1.9122,-1.9541,-1.9541,-2.0388,-2.0388,-1.968,-1.968,-1.968,-1.9692,-1.8714,-1.8854,-1.9541,-1.9122,-1.9262,-1.9541,-1.9541,-1.9541,-1.9541,-1.9401,-1.8982,-1.8433,-1.8433,-1.8573,-1.8714,-1.8433,-1.8433,-1.8433,-1.8433,-1.8433,-1.8433,-1.8433,-1.8433,-1.8433,-1.8433,-1.8433,-1.8433,-1.8433,-1.8433,-1.8433,-1.8433,-1.8433,-1.8433,-1.8433,-1.5867,-1.388,-1.388,-1.1168,-0.9302,-0.9302,-0.9302,-0.9302,-0.9302,-0.9302,-0.9302,-0.9302,-0.9302,-0.9302,-0.9302,-0.9302,-0.9302,-0.9302,-0.9302,-0.9302,-0.9302,-0.8874,-0.844,-0.8155,-0.7742,-0.753,-2.8975,-2.8975,-2.8975,-2.8975,-2.8975,-2.8975,-2.8975,-2.8975,-2.8874,-2.8517,-2.8517,-2.8277,-2.7642,-2.7521,-2.7401,-2.7194,-2.7073,-2.7073,-2.7073,-2.7073,-2.7073,-2.7073,-2.6449,-2.6067,-2.6067,-2.6067,-2.6117,-2.6072,-2.5077,-2.4437,-2.4438,-2.1734,-1.9541,-1.8433,-1.8433,-1.8433,-1.8433,-1.8433,-1.8433,-1.8433,-1.8433,-1.8433,-1.8433,-1.9262,-1.9541,-1.968,-2.0388,-2.0527,-2.011,-1.968,-1.9831,-1.997,-1.8854,-1.8854,-1.9541,-1.9122,-1.9262,-1.9529,-1.9541,-1.9541,-1.9541,-1.9122,-1.8714,-1.8433,-1.8433,-1.8433,-1.8433,-1.8433,-1.8433,-1.8433,-1.8433,-1.8433,-1.8433,-1.8433,-1.8433,-1.8433,-1.8433,-1.8433,-1.8433,-1.8433,-1.8433,-1.8433,-1.8433,-1.8433,-1.8433,-1.8433,-1.5867,-1.388,-1.388,-1.1168,-0.9302,-0.9302,-0.9302,-0.9302,-0.9302,-0.9302,-0.9302,-0.9302,-0.9302,-0.9302,-0.9302,-0.9302,-0.9302,-0.9302,-0.9302,-0.9302,-0.9302,-0.8874,-0.844,-0.8155,-0.7815,-0.7514,-2.8975,-2.8975,-2.8975,-2.8975,-2.8975,-2.8975,-2.8975,-2.8975,-2.8874,-2.8517,-2.8277,-2.802,-2.7521,-2.7297,-2.7194,-2.7073,-2.7073,-2.7073,-2.7073,-2.7073,-2.7073,-2.7073,-2.6952,-2.683,-2.683,-2.6327,-2.6142,-2.6368,-2.585,-2.5405,-2.4923,-2.3256,-2.1459,-1.9669,-1.9122,-1.8714,-1.8433,-1.8714,-1.8714,-1.8433,-1.8433,-1.8433,-1.8433,-1.9262,-1.9541,-1.968,-2.0388,-2.0388,-1.968,-1.968,-1.9541,-1.9273,-1.8714,-1.8714,-1.9122,-1.8714,-1.8854,-1.9122,-1.8854,-1.8982,-1.9122,-1.8714,-1.8433,-1.8433,-1.8433,-1.8433,-1.8433,-1.8433,-1.8433,-1.8433,-1.8433,-1.8433,-1.8433,-1.8433,-1.8433,-1.8433,-1.8433,-1.8433,-1.8433,-1.8433,-1.8433,-1.8433,-1.8433,-1.8433,-1.8433,-1.8433,-1.5867,-1.388,-1.388,-1.1168,-0.9302,-0.9302,-0.9302,-0.9302,-0.9302,-0.9302,-0.9302,-0.9302,-0.9302,-0.9302,-0.9302,-0.9302,-0.9302,-0.9302,-0.9302,-0.9302,-0.9302,-0.8584,-0.8043,-0.7383,-0.7536,-0.7486,-2.8975,-2.8975,-2.8975,-2.8975,-2.8975,-2.8975,-2.8975,-2.8975,-2.8856,-2.8397,-2.814,-2.79,-2.7418,-2.7194,-2.7073,-2.7073,-2.7073,-2.7073,-2.7073,-2.7073,-2.7073,-2.7073,-2.7073,-2.7073,-2.7073,-2.6692,-2.66,-2.6968,-2.6575,-2.6088,-2.5773,-2.4642,-2.3337,-2.1978,-2.0039,-1.9122,-1.939,-1.8982,-1.8714,-1.8573,-1.8573,-1.8573,-1.8714,-1.9413,-1.968,-1.968,-2.0249,-2.011,0.0,-1.9401,-1.9262,-1.8982,-1.8573,-1.8714,-1.8993,-1.8573,-1.8714,-1.8993,-1.8573,-1.8714,-1.8993,-1.8573,-1.8433,-1.8433,-1.8433,-1.8433,-1.8433,-1.8433,-1.8433,-1.8433,-1.8433,-1.8433,-1.8433,-1.8433,-1.8433,-1.8433,-1.8433,-1.8433,-1.8433,-1.8433,-1.8433,-1.8433,-1.8433,-1.8433,-1.8153,-1.758,-1.5443,-1.3737,-1.3167,-1.0881,-0.9302,-0.9302,-0.9302,-0.9302,-0.9302,-0.9302,-0.9302,-0.9302,-0.9302,-0.9302,-0.9302,-0.9302,-0.9302,-0.9302,-0.9302,-0.9302,-0.9302,-0.8479,-0.7989,-0.7381,-0.7337,-0.7407,0.0,-2.8975,-2.8975,-2.8975,-2.8975,-2.8975,-2.8975,-2.8975,0.0,-2.814,-2.802,-2.7779,-2.7194,-2.7073,-2.7073,-2.7073,-2.7073,-2.7073,-2.7073,-2.7073,-2.7073,-2.7073,-2.7073,-2.7073,-2.7073,-2.7073,-2.721,-2.7535,-2.6968,-2.6777,-2.7107,-2.5758,-2.5156,-2.5317,-2.1419,-1.9924,-2.1158,-1.9529,-1.8854,-1.8993,-1.8993,-1.8993,-1.9133,-1.9831,-1.997,-1.968,-1.997,-1.9831,-1.9529,-1.9122,-1.8993,-1.8854,-1.8573,-1.8573,-1.8854,-1.8573,-1.8573,-1.8854,-1.8573,-1.8573,-1.8854,-1.8573,-1.8433,-1.8433,-1.8433,-1.8433,-1.8433,-1.8433,-1.8433,-1.8433,-1.8433,-1.8433,-1.8433,-1.8433,-1.8433,-1.8433,-1.8433,-1.8433,-1.8433,-1.8433,-1.8433,-1.8433,-1.8433,-1.8433,-1.7861,-1.6442,-1.4875,-1.3309,-1.1729,-1.0305,-0.9302,-0.9302,-0.9302,-0.9302,-0.9302,-0.9302,-0.9302,-0.9302,-0.9302,-0.9302,-0.9302,-0.9302,-0.9302,-0.9302,-0.9313,-0.9318,-0.9173,-0.8563,-0.8127,-0.8008,-0.7552,-0.7444,-2.8975,0.0,-2.8975,-2.8975,-2.8975,-2.8975,0.0,-2.8975,-2.8856,-2.814,-2.802,-2.7779,-2.7194,-2.7073,-2.7073,-2.7073,-2.7073,-2.7073,-2.7073,-2.7073,-2.7073,-2.7073,-2.7073,-2.7073,-2.7073,-2.7073,-2.7107,-2.7193,-2.7327,-2.739,-2.7492,-2.6423,-2.6358,-2.7831,-2.4583,-2.2308,-2.1584,-2.1446,-2.0768,-1.9401,-1.9401,-1.9401,-1.9401,-1.997,-2.011,-1.997,-2.011,-1.997,-1.9541,-1.9122,-1.8854,-1.8573,-1.8433,-1.8433,-1.8573,-1.8433,-1.8433,-1.8573,-1.8433,-1.8433,-1.8573,-1.8433,-1.8433,-1.8433,-1.8433,-1.8433,-1.8433,-1.8433,-1.8433,-1.8433,-1.8433,-1.8433,-1.8433,-1.8433,-1.8433,-1.8433,-1.8433,-1.8433,-1.8433,-1.8433,-1.8433,-1.8433,-1.8433,-1.8433,-1.7861,-1.6442,-1.4875,-1.3309,-1.1729,-1.0305,-0.9302,-0.9302,-0.9302,-0.9302,-0.9302,-0.9302,-0.9302,-0.9302,-0.9302,-0.9302,-0.9302,-0.9302,-0.9302,-0.9302,-0.9394,-0.915,-0.8558,-0.8605,-0.8264,-0.7548,-0.746,-0.7505,-2.8975,-2.8975,-2.8975,-2.8975,-2.8975,-2.8975,-2.8975,-2.8975,-2.8856,-2.814,-2.802,-2.7779,-2.7194,-2.7073,-2.7073,-2.7073,-2.7073,-2.7073,-2.7073,-2.7073,-2.7073,-2.7073,-2.7073,-2.7073,-2.7073,-2.7073,-2.7073,-2.7073,-2.7261,-2.7364,-2.7364,-2.696,-2.7244,-2.8237,-2.6858,-2.5468,-2.4032,-2.2682,-2.1596,-2.0768,-2.0098,-1.968,-1.968,-2.011,-2.0249,-1.9831,-1.9831,-1.9831,-1.9541,-1.8993,-1.8573,-1.8433,-1.8433,-1.8433,-1.8433,-1.8433,-1.8433,-1.8433,-1.8433,-1.8433,-1.8433,-1.8433,-1.8433,-1.8433,-1.8433,-1.8433,-1.8433,-1.8433,-1.8433,-1.8433,-1.8433,-1.8433,-1.8433,-1.8433,-1.8433,-1.8433,-1.8433,-1.8433,-1.8433,-1.8433,-1.8433,-1.8433,-1.8433,-1.8433,-1.7861,-1.6442,-1.4875,-1.3309,-1.1729,-1.0305,-0.9302,-0.9302,-0.9302,-0.9302,-0.9302,-0.9302,-0.9302,-0.9302,-0.9302,-0.9302,-0.9302,-0.9302,-0.9329,-0.9389,-0.9454,-0.9245,-0.8745,-0.8559,-0.8338,-0.7765,-0.7661,-0.7525,-2.8975,-2.8975,-2.8975,-2.8975,-2.8975,-2.8975,-2.8975,-2.8975,-2.8856,-2.8259,-2.802,-2.7779,-2.7315,-2.7073,-2.7073,-2.7073,-2.7073,-2.7073,-2.7073,-2.7073,-2.7073,-2.7073,-2.7073,-2.7073,-2.7073,-2.7073,-2.7073,-2.7073,-2.7073,-2.7073,-2.7073,-2.7364,-2.7552,-2.7604,-2.8254,-2.814,-2.6941,-2.3746,-2.2271,-2.2408,-2.0931,-2.011,-1.982,-2.0388,-2.0388,-1.968,-1.9541,-1.9541,-1.9401,-1.8714,-1.8433,-1.8433,-1.8433,-1.8433,-1.8433,-1.8433,-1.8433,-1.8433,-1.8433,-1.8433,-1.8433,-1.8433,-1.8433,-1.8433,-1.8433,-1.8433,-1.8433,-1.8433,-1.8433,-1.8433,-1.8433,-1.8433,-1.8433,-1.8433,-1.8433,-1.8433,-1.8433,-1.8433,-1.8433,-1.8433,-1.8433,-1.8433,-1.8433,-1.8433,-1.7861,-1.616,-1.4733,-1.3309,-1.1442,-1.0161,-0.9302,-0.9302,-0.9302,-0.9302,-0.9302,-0.9302,-0.9302,-0.9302,-0.9302,-0.9302,-0.9302,-0.9323,-0.9383,-0.9487,-0.9525,-0.9339,-0.9076,-0.8789,-0.8384,-0.8159,-0.7681,-0.7525,-2.8975,-2.8975,-2.8975,-2.8975,-2.8975,-2.8975,-2.8975,-2.8975,-2.8856,-2.8517,-2.814,-2.79,-2.7521,-2.7297,-2.7073,-2.7073,-2.7073,-2.7073,-2.7073,-2.7073,-2.7073,-2.7073,-2.7073,-2.7073,-2.7073,-2.7073,-2.7073,-2.7073,-2.7073,-2.7073,-2.7073,-2.7124,-2.7295,-2.7586,-2.7723,-2.8009,-2.8449,-2.5814,-2.391,-2.2682,-2.1346,-2.0527,-2.0527,-2.0665,-2.0388,-1.997,-1.968,-1.9401,-1.9122,-1.8573,-1.8433,-1.8433,-1.8433,-1.8433,-1.8433,-1.8433,-1.8433,-1.8433,-1.8433,-1.8433,-1.8433,-1.8433,-1.8433,-1.8433,-1.8433,-1.8433,-1.8433,-1.8433,-1.8433,-1.8433,-1.8433,-1.8433,-1.8433,-1.8433,-1.8433,-1.8433,-1.8433,-1.8433,-1.8433,-1.8433,-1.8433,-1.8433,-1.8433,-1.8433,-1.7439,-1.4733,-1.4022,-1.2881,-1.0017,-0.9446,-0.9302,-0.9302,-0.9302,-0.9302,-0.9302,-0.9302,-0.9302,-0.9302,-0.9302,-0.9302,-0.9302,-0.9405,-0.9465,-0.9487,-0.9382,-0.9041,-0.8621,-0.8402,-0.7985,-0.7681,-0.7525,-0.7525,-2.8975,-2.8975,-2.8975,-2.8975,-2.8975,-2.8975,-2.8975,-2.8874,-2.8636,-2.8517,-2.814,-2.7642,-2.7521,-2.7297,-2.7073,-2.7073,-2.7073,-2.7073,-2.7073,-2.7073,-2.7073,-2.7073,-2.7073,-2.7073,-2.7073,-2.7073,-2.7073,-2.7073,-2.7073,-2.7073,-2.7073,-2.7073,-2.7158,-2.7313,-2.7501,-2.7775,-2.8152,-2.6597,-2.5219,-2.391,-2.1747,-2.0527,-2.011,-2.0527,-2.0249,-1.9552,-1.9541,-1.9401,-1.8993,-1.8573,-1.8433,-1.8433,-1.8433,-1.8433,-1.8433,-1.8433,-1.8433,-1.8433,-1.8433,-1.8433,-1.8433,-1.8433,-1.8433,-1.8433,-1.8433,-1.8433,-1.8433,-1.8433,-1.8433,-1.8433,-1.8433,-1.8433,-1.8433,-1.8433,-1.8433,-1.8433,-1.8433,-1.8433,-1.8433,-1.8433,-1.8433,-1.8433,-1.8433,-1.8433,-1.7721,-1.5443,-1.4449,-1.3024,-1.0875,-0.9873,-0.9302,-0.9302,-0.9302,-0.9302,-0.9302,-0.9302,-0.9302,-0.9302,-0.9302,-0.9334,-0.94,-0.9459,-0.9546,-0.9671,-0.933,-0.9106,-0.8707,-0.8292,-0.7998,-0.7525,-0.7525,-0.7525,-2.8975,-2.8975,-2.8975,-2.8975,-2.8975,-2.8975,-2.8975,-2.8755,-2.8636,-2.8636,-2.814,-2.7642,-2.7642,-2.7297,-2.7073,-2.7073,-2.7073,-2.7073,-2.7073,-2.7073,-2.7073,-2.7073,-2.7073,-2.7073,-2.7073,-2.7073,-2.7073,-2.7073,-2.7073,-2.7073,-2.7073,-2.7073,-2.7073,-2.7073,-2.7347,-2.7518,-2.7604,-2.6758,-2.6074,-2.5293,-2.2532,-2.0792,-2.0225,-2.0527,-2.011,-1.8982,-1.9401,-1.9262,-1.8854,-1.8573,-1.8433,-1.8433,-1.8433,-1.8433,-1.8433,-1.8433,-1.8433,-1.8433,-1.8433,-1.8433,-1.8433,-1.8433,-1.8433,-1.8433,-1.8433,-1.8433,-1.8433,-1.8433,-1.8433,-1.8433,-1.8433,-1.8433,-1.8433,-1.8433,-1.8433,-1.8433,-1.8433,-1.8433,-1.8433,-1.8433,-1.8433,-1.8433,-1.8433,-1.8433,-1.7721,-1.5877,-1.4591,-1.3167,-1.1299,-1.0017,-0.9302,-0.9302,-0.9302,-0.9313,-0.9345,-0.9345,-0.9356,-0.9389,-0.9362,-0.94,-0.9525,-0.9557,-0.9655,-0.9835,-0.9407,-0.9006,-0.8778,-0.831,-0.7842,-0.7525,-0.7525,-0.7525,-2.8975,-2.8975,-2.8975,-2.8975,-2.8975,-2.8975,-2.8975,-2.8975,-2.8975,-2.8975,-2.8379,-2.802,-2.802,-2.7539,-2.7073,-2.7073,-2.7073,-2.7073,-2.7073,-2.7073,-2.7073,-2.7073,-2.7073,-2.7073,-2.7073,-2.7073,-2.7073,-2.7073,-2.7073,-2.7073,-2.7073,-2.7073,-2.7073,-2.7073,-2.7107,-2.7278,-2.7604,-2.627,-2.5866,-2.6399,-2.3905,-2.2408,-2.2009,-2.1069,-2.011,-1.8982,-1.9401,-1.9122,-1.8433,-1.8433,-1.8433,-1.8433,-1.8433,-1.8433,-1.8433,-1.8433,-1.8433,-1.8433,-1.8433,-1.8433,-1.8433,-1.8433,-1.8433,-1.8433,-1.8433,-1.8433,-1.8433,-1.8433,-1.8433,-1.8433,-1.8433,-1.8433,-1.8433,-1.8433,-1.8433,-1.8433,-1.8433,-1.8433,-1.8433,-1.8433,-1.8433,-1.8433,-1.8433,-1.8433,-1.7439,-1.4449,-1.4022,-1.2881,-0.9879,-0.9302,-0.9302,-0.9302,-0.9302,-0.9351,-0.9465,-0.9476,-0.9525,-0.9633,-0.9536,-0.953,-0.965,-0.9758,-0.9818,-0.9835,-0.9181,-0.8769,-0.8778,-0.7994,-0.7525,-0.7525,-0.7525,-0.7525,-2.8975,-2.8975,-2.8975,-2.8975,-2.8975,-2.8975,-2.8975,-2.8874,-2.8755,-2.8993,-2.8259,-2.7642,-2.7418,-2.7194,-2.7073,-2.7073,-2.7073,-2.7073,-2.7073,-2.7073,-2.7073,-2.7073,-2.7073,-2.7073,-2.7073,-2.7073,-2.7073,-2.7073,-2.7073,-2.7073,-2.7073,-2.7073,-2.7073,-2.7073,-2.7073,-2.7141,-2.7278,-2.6991,-2.6477,-2.5977,-2.3643,-2.1842,-2.0641,-2.0376,-1.9692,-1.8714,-1.8982,-1.8854,-1.8433,-1.8433,-1.8433,-1.8433,-1.8433,-1.8433,-1.8433,-1.8433,-1.8433,-1.8433,-1.8433,-1.8433,-1.8433,-1.8433,-1.8433,-1.8433,-1.8433,-1.8433,-1.8433,-1.8433,-1.8433,-1.8433,-1.8433,-1.8433,-1.8433,-1.8433,-1.8433,-1.8433,-1.8433,-1.8433,-1.8433,-1.8433,-1.8433,-1.8433,-1.8433,-1.8433,-1.7439,-1.4307,-1.388,-1.2738,-0.9735,-0.9302,-0.9302,-0.9302,-0.9372,-0.9465,-0.959,-0.9601,-0.965,-0.9764,-0.9666,-0.9655,-0.9769,-0.9813,-0.9719,-0.9485,-0.9071,-0.8622,-0.8471,-0.7842,-0.7525,-0.7525,-0.7525,-0.7525,-2.8975,-2.8975,-2.8975,-2.8975,-2.8975,-2.8975,-2.8975,-2.8874,-2.8636,-2.8874,-2.814,-2.7401,-2.7194,-2.7073,-2.7073,-2.7073,-2.7073,-2.7073,-2.7073,-2.7073,-2.7073,-2.7073,-2.7073,-2.7073,-2.7073,-2.7073,-2.7073,-2.7073,-2.7073,-2.7073,-2.7073,-2.7073,-2.7073,-2.7073,-2.7073,-2.7073,-2.7073,-2.7313,-2.6603,-2.4936,-2.3349,-2.1776,-2.0095,-2.0063,-1.9413,-1.8433,-1.8854,-1.8714,-1.8433,-1.8433,-1.8433,-1.8433,-1.8433,-1.8433,-1.8433,-1.8433,-1.8433,-1.8433,-1.8433,-1.8433,-1.8433,-1.8433,-1.8433,-1.8433,-1.8433,-1.8433,-1.8433,-1.8433,-1.8433,-1.8433,-1.8433,-1.8433,-1.8433,-1.8433,-1.8433,-1.8433,-1.8433,-1.8433,-1.8433,-1.8433,-1.8433,-1.8433,-1.8433,-1.8433,-1.7439,-1.4307,-1.388,-1.2738,-0.9735,-0.9302,-0.9318,-0.9356,-0.947,-0.959,-0.9715,-0.972,-0.9769,-0.9889,-0.9824,-0.9813,-0.9894,-0.9894,-0.9778,-0.9397,-0.8934,-0.8622,-0.8159,-0.7686,-0.7525,-0.7525,-0.7525,-0.7525,-2.8975,-2.8975,-2.8975,-2.8975,-2.8975,-2.8975,-2.8975,-2.8975,-2.8874,-2.8517,-2.802,-2.7401,-2.7194,-2.7073,-2.7073,-2.7073,-2.7073,-2.7073,-2.7073,-2.7073,-2.7073,-2.7073,-2.7073,-2.7073,-2.7073,-2.7073,-2.7073,-2.7073,-2.7073,-2.7073,-2.7073,-2.7073,-2.7073,-2.7073,-2.7073,-2.7073,-2.7073,-2.7073,-2.5863,-2.3545,-2.3545,-2.2702,-2.1289,-2.0383,-1.9413,-1.8433,-1.8854,-1.8714,-1.8433,-1.8433,-1.8433,-1.8433,-1.8433,-1.8433,-1.8433,-1.8433,-1.8433,-1.8433,-1.8433,-1.8433,-1.8433,-1.8433,-1.8433,-1.8433,-1.8433,-1.8433,-1.8433,-1.8433,-1.8433,-1.8433,-1.8433,-1.8433,-1.8433,-1.8433,-1.8433,-1.8433,-1.8433,-1.8433,-1.8433,-1.8433,-1.8433,-1.8433,-1.8433,-1.8433,-1.7439,-1.4307,-1.388,-1.2738,-0.9735,-0.9307,-0.9351,-0.9476,-0.9601,-0.9715,-0.9829,-0.984,-0.9889,-1.0014,-1.0019,-1.0019,-1.0019,-1.0019,-0.9864,-0.9402,-0.8934,-0.8622,-0.8159,-0.7686,-0.7525,-0.7525,-0.7525,-0.7525,-2.8975,-2.8975,-2.8975,-2.8975,-2.8975,-2.8975,-2.8975,-2.8975,-2.8856,-2.8259,-2.7762,-2.7401,-2.7194,-2.7073,-2.7073,-2.7073,-2.7073,-2.7073,-2.7073,-2.7073,-2.7073,-2.7073,-2.7073,-2.7073,-2.7073,-2.7073,-2.7073,-2.7073,-2.7073,-2.7073,-2.7073,-2.7073,-2.7073,-2.7073,-2.7073,-2.7073,-2.7073,-2.6189,-2.4873,-2.3223,-2.2426,-2.1293,-1.9835,-1.9518,-1.9104,-1.8433,-1.8573,-1.8573,-1.8433,-1.8433,-1.8433,-1.8433,-1.8433,-1.8433,-1.8433,-1.8433,-1.8433,-1.8433,-1.8433,-1.8433,-1.8433,-1.8433,-1.8433,-1.8433,-1.8433,-1.8433,-1.8433,-1.8433,-1.8433,-1.8433,-1.8433,-1.8433,-1.8433,-1.8433,-1.8433,-1.8433,-1.8433,-1.8433,-1.8433,-1.8433,-1.8433,-1.8433,-1.8433,-1.8433,-1.7439,-1.4307,-1.388,-1.2783,-0.986,-0.9432,-0.9508,-0.9709,-0.9764,-0.9835,-0.9954,-0.9965,-0.9981,-1.0019,-1.0019,-1.0019,-1.0019,-1.0019,-0.9708,-0.8934,-0.8934,-0.8466,-0.7686,-0.7525,-0.7525,-0.7525,-0.7525,-0.7525,-2.8975,-2.8975,-2.8975,-2.8975,-2.8975,-2.8975,-2.8975,-2.8737,-2.8498,-2.814,-2.7659,-2.7297,-2.7073,-2.7073,-2.7073,-2.7073,-2.7073,-2.7073,-2.7073,-2.7073,-2.7073,-2.7073,-2.7073,-2.7073,-2.7073,-2.7073,-2.7073,-2.7073,-2.7073,-2.7073,-2.7073,-2.7073,-2.7073,-2.7073,-2.7073,-2.683,-2.6327,-2.5439,-2.4193,-2.2327,-2.1511,-2.0291,-1.889,-1.9084,-1.8843,-1.8304,-1.839,-1.8433,-1.8433,-1.8433,-1.8433,-1.8433,-1.8433,-1.8433,-1.8433,-1.8433,-1.8433,-1.8433,-1.8433,-1.8433,-1.8433,-1.8433,-1.8433,-1.8433,-1.8433,-1.8433,-1.8433,-1.8433,-1.8433,-1.8433,-1.8433,-1.8433,-1.8433,-1.8433,-1.8433,-1.8433,-1.8433,-1.8433,-1.8433,-1.8433,-1.8433,-1.8433,-1.8433,-1.7861,-1.6725,-1.4307,-1.2881,-1.1502,-0.9764,-0.953,-0.9633,-0.9818,-0.9883,-0.9938,-1.0014,-1.0019,-1.0019,-1.0019,-1.0019,-1.0019,-1.0019,-1.0019,-0.9553,-0.8778,-0.8778,-0.831,-0.7525,-0.7525,-0.7525,-0.7525,-0.7525,-0.7525,-2.8975,-2.8975,-2.8975,-2.8975,-2.8975,-2.8975,-2.8975,-2.8498,-2.802,-2.802,-2.7539,-2.7073,-2.7073,-2.7073,-2.7073,-2.7073,-2.7073,-2.7073,-2.7073,-2.7073,-2.7073,-2.7073,-2.7073,-2.7073,-2.7073,-2.7073,-2.7073,-2.7073,-2.7073,-2.7073,-2.7073,-2.7073,-2.7073,-2.7073,-2.7073,-2.6449,-2.5071,-2.4949,-2.3574,-2.1082,-2.0576,-1.9695,-1.8279,-1.889,-1.872,-1.811,-1.8336,-1.8433,-1.8433,-1.8433,-1.8433,-1.8433,-1.8433,-1.8433,-1.8433,-1.8433,-1.8433,-1.8433,-1.8433,-1.8433,-1.8433,-1.8433,-1.8433,-1.8433,-1.8433,-1.8433,-1.8433,-1.8433,-1.8433,-1.8433,-1.8433,-1.8433,-1.8433,-1.8433,-1.8433,-1.8433,-1.8433,-1.8433,-1.8433,-1.8433,-1.8433,-1.8433,-1.8433,-1.7157,-1.5584,-1.388,-1.1162,-0.9351,-0.9487,-0.9601,-0.9715,-0.984,-0.9954,-1.0019,-1.0019,-1.0019,-1.0019,-1.0019,-1.0019,-1.0019,-1.0019,-1.0019,-0.9708,-0.8934,-0.8778,-0.8466,-0.7525,-0.7525,-0.7525,-0.7525,-0.7525,-0.7525,-2.8975,-2.8975,-2.8975,-2.8975,-2.8975,-2.8975,-2.8975,-2.8636,-2.8277,-2.802,-2.7659,-2.7297,-2.7194,-2.7073,-2.7073,-2.7073,-2.7073,-2.7073,-2.7073,-2.7073,-2.7073,-2.7073,-2.7073,-2.7073,-2.7073,-2.7073,-2.7073,-2.7073,-2.7073,-2.7073,-2.7073,-2.7073,-2.7073,-2.7073,-2.7073,-2.6449,-2.5071,-2.3822,-2.2327,-2.0703,-1.9304,-1.8325,-1.7748,-1.8049,-1.8127,-1.811,-1.8336,-1.8433,-1.8433,-1.8433,-1.8433,-1.8433,-1.8433,-1.8433,-1.8433,-1.8433,-1.8433,-1.8433,-1.8433,-1.8433,-1.8433,-1.8433,-1.8433,-1.8433,-1.8433,-1.8433,-1.8433,-1.8433,-1.8433,-1.8433,-1.8433,-1.8433,-1.8433,-1.8433,-1.8433,-1.8433,-1.8433,-1.8433,-1.8433,-1.8433,-1.8433,-1.8433,-1.8433,-1.7157,-1.5301,-1.2445,-1.0449,-0.9383,-0.9601,-0.9655,-0.9748,-0.996,-1.0003,-1.0019,-1.0019,-1.0019,-1.0019,-1.0019,-1.0019,-1.0019,-1.0019,-1.0019,-0.9708,-0.9246,-0.9246,-0.8934,-0.8002,-0.8002,-0.7842,-0.7525,-0.7525,-0.7525,-2.8975,-2.8975,-2.8975,-2.8975,-2.8975,-2.8975,-2.8975,-2.8874,-2.8636,-2.8277,-2.79,-2.7401,-2.7297,-2.7194,-2.7073,-2.7073,-2.7073,-2.7073,-2.7073,-2.7073,-2.7073,-2.7073,-2.7073,-2.7073,-2.7073,-2.7073,-2.7073,-2.7073,-2.7073,-2.7073,-2.7073,-2.7073,-2.7073,-2.7073,-2.7073,-2.6327,-2.4702,-2.3325,-2.1825,-2.0081,-1.8547,-1.7529,-1.7282,-1.7522,-1.7771,-1.8099,-1.8218,-1.8336,-1.8433,-1.8433,-1.8433,-1.8433,-1.8433,-1.8433,-1.8433,-1.8433,-1.8433,-1.8433,-1.8433,-1.8433,-1.8433,-1.8433,-1.8433,-1.8433,-1.8433,-1.8433,-1.8433,-1.8433,-1.8433,-1.8433,-1.8433,-1.8433,-1.8433,-1.8433,-1.8433,-1.8433,-1.8433,-1.8433,-1.8433,-1.8433,-1.8433,-1.8433,-1.8433,-1.6583,-1.4014,-1.1018,-0.9873,-0.9394,-0.9639,-0.9671,-0.9758,-0.9998,-1.0019,-1.0019,-1.0019,-1.0019,-1.0019,-1.0019,-1.0019,-1.0019,-1.0019,-1.0019,-0.9864,-0.9402,-0.9246,-0.8778,-0.8159,-0.7998,-0.7686,-0.7525,-0.7525,-0.7525,-2.8975,-2.8975,-2.8975,-2.8975,-2.8975,-2.8975,-2.8975,-2.8975,-2.8874,-2.8636,-2.814,-2.7642,-2.7521,-2.7297,-2.7194,-2.7073,-2.7073,-2.7073,-2.7073,-2.7073,-2.7073,-2.7073,-2.7073,-2.7073,-2.7073,-2.7073,-2.7073,-2.7073,-2.7073,-2.7073,-2.7073,-2.7073,-2.7073,-2.7073,-2.7073,-2.6067,-2.3822,-2.2952,-2.1447,-1.92,-1.8045,-1.7271,-1.7012,-1.7217,-1.755,-1.797,-1.8056,-1.8196,-1.8379,-1.8422,-1.8433,-1.8433,-1.8433,-1.8433,-1.8433,-1.8433,-1.8433,-1.8433,-1.8433,-1.8433,-1.8433,-1.8433,-1.8433,-1.8433,-1.8433,-1.8433,-1.8433,-1.8433,-1.8433,-1.8433,-1.8433,-1.8433,-1.8433,-1.8433,-1.8433,-1.8433,-1.8433,-1.8433,-1.8433,-1.8433,-1.8153,-1.8002,-1.7721,-1.5301,-1.2595,-0.9735,-0.9302,-0.9383,-0.9612,-0.9655,-0.9753,-0.9965,-1.0008,-1.0019,-1.0019,-1.0019,-1.0019,-1.0019,-1.0019,-1.0019,-1.0019,-1.0019,-0.9864,-0.9553,-0.909,-0.8778,-0.8315,-0.7842,-0.7525,-0.7525,-0.7525,-0.7525,-2.8975,-2.8975,-2.8975,-2.8975,-2.8975,-2.8975,-2.8975,-2.8975,-2.8993,-2.8975,-2.8636,-2.814,-2.7642,-2.7521,-2.7418,-2.7194,-2.7073,-2.7073,-2.7073,-2.7073,-2.7073,-2.7073,-2.7073,-2.7073,-2.7073,-2.7073,-2.7073,-2.7073,-2.7073,-2.7073,-2.7073,-2.7073,-2.7073,-2.7073,-2.7073,-2.57,-2.2827,-2.2298,-2.0663,-1.7787,-1.7271,-1.7001,-1.7001,-1.7033,-1.7206,-1.7496,-1.7916,-1.811,-1.8153,-1.8358,-1.8433,-1.8433,-1.8433,-1.8433,-1.8433,-1.8433,-1.8433,-1.8433,-1.8433,-1.8433,-1.8433,-1.8433,-1.8433,-1.8433,-1.8433,-1.8433,-1.8433,-1.8433,-1.8433,-1.8433,-1.8433,-1.8433,-1.8433,-1.8433,-1.8433,-1.8433,-1.8433,-1.8433,-1.8433,-1.8433,-1.7439,-1.6018,-1.4733,-1.3016,-1.1299,-0.959,-0.9302,-0.9356,-0.9492,-0.9606,-0.972,-0.9851,-0.9954,-1.0019,-1.0019,-1.0019,-1.0019,-1.0019,-1.0019,-1.0019,-1.0019,-1.0019,-1.0019,-0.9864,-0.9558,-0.909,-0.8778,-0.831,-0.7842,-0.7525,-0.7525,-0.7525,-2.8975,-2.8975,-2.8975,-2.8975,-2.8975,-2.8975,-2.8975,-2.8975,-2.8975,-2.8975,-2.8874,-2.8636,-2.814,-2.7762,-2.7401,-2.7297,-2.7194,-2.7073,-2.7073,-2.7073,-2.7073,-2.7073,-2.7073,-2.7073,-2.7073,-2.7073,-2.7073,-2.7073,-2.7073,-2.7073,-2.7073,-2.7073,-2.7073,-2.7073,-2.6189,-2.4933,-2.3201,-2.142,-1.9407,-1.7271,-1.7001,-1.7001,-1.7001,-1.7001,-1.7141,-1.7389,-1.7604,-1.7841,-1.8099,-1.8207,-1.8315,-1.8433,-1.8433,-1.8433,-1.8433,-1.8433,-1.8433,-1.8433,-1.8433,-1.8433,-1.8433,-1.8433,-1.8433,-1.8433,-1.8433,-1.8433,-1.8433,-1.8433,-1.8433,-1.8433,-1.8433,-1.8433,-1.8433,-1.8433,-1.8433,-1.8433,-1.8433,-1.8433,-1.8433,-1.8433,-1.7157,-1.5735,-1.4164,-1.2588,-1.1012,-0.959,-0.9302,-0.9345,-0.947,-0.9595,-0.9715,-0.9824,-0.9949,-1.0019,-1.0019,-1.0019,-1.0019,-1.0019,-1.0019,-1.0019,-1.0019,-1.0019,-1.0019,-1.0019,-0.9402,-0.8934,-0.8778,-0.8154,-0.7686,-0.7525,-0.7525,-0.7525,-2.8975,-2.8975,-2.8975,-2.8975,-2.8975,-2.8975,-2.8975,-2.8975,-2.8975,-2.8975,-2.8975,-2.8874,-2.8636,-2.814,-2.7642,-2.7521,-2.7297,-2.7073,-2.7073,-2.7073,-2.7073,-2.7073,-2.7073,-2.7073,-2.7073,-2.7073,-2.7073,-2.7073,-2.7073,-2.7073,-2.7073,-2.7073,-2.7073,-2.7073,-2.5684,-2.4425,-2.3186,-2.0284,-1.8267,-1.7001,-1.7001,-1.7001,-1.7001,-1.7001,-1.7109,-1.7281,-1.7346,-1.7583,-1.7927,-1.8046,-1.8196,-1.8358,-1.8412,-1.8433,-1.8433,-1.8433,-1.8433,-1.8433,-1.8433,-1.8433,-1.8433,-1.8433,-1.8433,-1.8433,-1.8433,-1.8433,-1.8433,-1.8433,-1.8433,-1.8433,-1.8433,-1.8433,-1.8433,-1.8433,-1.8433,-1.8433,-1.8433,-1.8433,-1.8433,-1.8433,-1.6866,-1.5301,-1.4164,-1.2302,-1.0587,-0.9446,-0.9302,-0.9334,-0.9427,-0.9574,-0.9704,-0.9786,-0.9932,-1.0019,-1.0019,-1.0019,-1.0019,-1.0019,-1.0019,-1.0019,-1.0019,-1.0019,-1.0019,-1.0019,-0.9246,-0.8778,-0.8778,-0.7994,-0.7525,-0.7525,-0.7525,-0.7525,-2.8975,-2.8975,-2.8975,-2.8975,-2.8975,-2.8975,-2.8975,-2.8975,-2.8975,-2.8975,-2.8975,-2.8975,-2.8975,-2.8379,-2.79,-2.7521,-2.7297,-2.7073,-2.7073,-2.7073,-2.7073,-2.7073,-2.7073,-2.7073,-2.7073,-2.7073,-2.7073,-2.7073,-2.7073,-2.7073,-2.7073,-2.7073,-2.7073,-2.7073,-2.6449,-2.481,-2.2159,-1.8768,-1.713,-1.7001,-1.7001,-1.7001,-1.7001,-1.7001,-1.7012,-1.7033,-1.727,-1.7389,-1.7453,-1.7906,-1.8099,-1.8132,-1.8347,-1.8433,-1.8433,-1.8433,-1.8433,-1.8433,-1.8433,-1.8433,-1.8433,-1.8433,-1.8433,-1.8433,-1.8433,-1.8433,-1.8433,-1.8433,-1.8433,-1.8433,-1.8433,-1.8433,-1.8433,-1.8433,-1.8433,-1.8433,-1.8433,-1.8433,-1.8433,-1.8433,-1.6018,-1.4022,-1.388,-1.1449,-0.9446,-0.9302,-0.9302,-0.9307,-0.9313,-0.9525,-0.9671,-0.9677,-0.9883,-1.0019,-1.0019,-1.0019,-1.0019,-1.0019,-1.0019,-1.0019,-1.0019,-1.0019,-1.0019,-1.0019,-0.9246,-0.8778,-0.8778,-0.7994,-0.7525,-0.7525,-0.7525,-0.7525,-2.8975,-2.8975,-2.8975,-2.8975,-2.8975,-2.8975,-2.8975,-2.8975,-2.8975,-2.8975,-2.8975,-2.8975,-2.8975,-2.8636,-2.8277,-2.79,-2.7521,-2.7297,-2.7073,-2.7073,-2.7073,-2.7073,-2.7073,-2.7073,-2.7073,-2.7073,-2.7073,-2.7073,-2.7073,-2.7073,-2.7073,-2.7073,-2.7073,-2.7073,-2.4949,-2.2313,-1.9164,-1.7765,-1.7001,-1.7001,-1.7001,-1.7001,-1.7001,-1.7001,-1.7001,-1.7012,-1.7098,-1.7227,-1.7389,-1.7561,-1.7819,-1.8099,-1.8186,-1.8304,-1.8433,-1.8433,-1.8433,-1.8433,-1.8433,-1.8433,-1.8433,-1.8433,-1.8433,-1.8433,-1.8433,-1.8433,-1.8433,-1.8433,-1.8433,-1.8433,-1.8433,-1.8433,-1.8433,-1.8433,-1.8433,-1.8433,-1.8433,-1.8433,-1.8433,-1.8433,-1.6009,-1.388,-1.388,-1.1305,-0.9302,-0.9302,-0.9302,-0.9302,-0.9302,-0.9449,-0.9584,-0.9661,-0.9807,-0.9932,-1.0014,-1.0019,-1.0019,-1.0019,-1.0019,-1.0019,-1.0019,-1.0019,-1.0019,-1.0019,-0.9246,-0.8778,-0.8778,-0.7994,-0.7525,-0.7525,-0.7525,-0.7525,-2.8975,-2.8975,-2.8975,-2.8975,-2.8975,-2.8975,-2.8975,-2.8975,-2.8975,-2.8975,-2.8975,-2.8975,-2.8975,-2.8874,-2.8517,-2.802,-2.7762,-2.7401,-2.7194,-2.7073,-2.7073,-2.7073,-2.7073,-2.7073,-2.7073,-2.7073,-2.7073,-2.7073,-2.7073,-2.7073,-2.7073,-2.7073,-2.6692,-2.5945,-2.3683,-2.0929,-1.7905,-1.726,-1.7001,-1.7001,-1.7001,-1.7001,-1.7001,-1.7001,-1.7001,-1.7001,-1.7001,-1.7098,-1.726,-1.7346,-1.7572,-1.7873,-1.8035,-1.8186,-1.8326,-1.8412,-1.8433,-1.8433,-1.8433,-1.8433,-1.8433,-1.8433,-1.8433,-1.8433,-1.8433,-1.8433,-1.8433,-1.8433,-1.8433,-1.8433,-1.8433,-1.8433,-1.8433,-1.8433,-1.8433,-1.8433,-1.8433,-1.8433,-1.8433,-1.8433,-1.6009,-1.388,-1.388,-1.1305,-0.9302,-0.9302,-0.9302,-0.9302,-0.9302,-0.941,-0.9536,-0.9655,-0.9769,-0.9889,-1.0008,-1.0019,-1.0019,-1.0019,-1.0019,-1.0019,-1.0019,-1.0019,-0.9864,-0.9864,-0.909,-0.8778,-0.8622,-0.7838,-0.7525,-0.7525,-0.7525,-0.7525,0.0,0.0,0.0,-2.8975,-2.8975,-2.8975,-2.8975,-2.8975,-2.8975,-2.8975,-2.8975,-2.8975,-2.8975,-2.8975,-2.8737,-2.814,-2.7762,-2.7401,-2.7194,-2.7073,-2.7073,-2.7073,-2.7073,-2.7073,-2.7073,-2.7073,-2.7073,-2.7073,-2.7073,-2.7073,-2.7073,-2.7073,-2.6067,-2.3698,-2.2548,-2.0903,-1.8536,-1.7518,-1.7001,-1.7001,-1.7001,-1.7001,-1.7001,-1.7001,-1.7001,-1.7001,-1.7001,-1.7001,-1.7023,-1.727,-1.7367,-1.7421,-1.7895,-1.8078,-1.8121,-1.8347,-1.8433,-1.8433,-1.8433,-1.8433,-1.8433,-1.8433,-1.8433,-1.8433,-1.8433,-1.8433,-1.8433,-1.8433,-1.8433,-1.8433,-1.8433,-1.8433,-1.8433,-1.8433,-1.8433,-1.8433,-1.8433,-1.8433,-1.8433,-1.8433,-1.6009,-1.388,-1.388,-1.1305,-0.9302,-0.9302,-0.9302,-0.9302,-0.9302,-0.941,-0.953,-0.9655,-0.9769,-0.9883,-1.0008,-1.0019,-1.0019,-1.0019,-1.0019,-1.0019,-1.0019,-1.0019,-0.9864,-0.9402,-0.8934,-0.8622,-0.8159,-0.7686,-0.7525,-0.7525,-0.7525,-0.7525,-2.8975,0.0,0.0,0.0,0.0,0.0,-2.8975,-2.8975,-2.8975,-2.8975,-2.8975,-2.8975,-2.8975,-2.8975,-2.8874,-2.8397,-2.802,-2.7659,-2.7194,-2.7073,-2.7073,-2.7073,-2.7073,-2.7073,-2.7073,-2.7073,-2.7073,-2.7073,-2.7073,-2.7073,-2.7073,-2.7073,-2.5823,-2.2952,-2.2298,-2.0663,-1.7787,-1.726,-1.7001,-1.7001,-1.7001,-1.7001,-1.7001,-1.7001,-1.7001,-1.7001,-1.7001,-1.7001,-1.7012,-1.7077,-1.7217,-1.7389,-1.7529,-1.7787,-1.8099,-1.8164,-1.8293,-1.8433,-1.8433,-1.8433,-1.8433,-1.8433,-1.8433,-1.8433,-1.8433,-1.8433,-1.8433,-1.8433,-1.8433,-1.8433,-1.8433,-1.8433,-1.8433,-1.8433,-1.8433,-1.8433,-1.8433,-1.8433,-1.8433,-1.8433,-1.6009,-1.388,-1.388,-1.1305,-0.9302,-0.9302,-0.9302,-0.9302,-0.9302,-0.9334,-0.9438,-0.965,-0.9699,-0.9796,-1.0003,-1.0019,-1.0019,-1.0019,-1.0019,-1.0019,-1.0019,-1.0019,-0.9864,-0.9402,-0.8934,-0.8622,-0.8159,-0.7686,-0.7525,-0.7525,-0.7525,-0.7525,-2.8975,-2.8975,-2.8975,-2.8975,0.0,0.0,-2.8975,-2.8975,-2.8975,-2.8975,-2.8975,-2.8975,-2.8975,-2.8975,-2.8874,-2.8517,-2.8397,-2.802,-2.7297,-2.7297,-2.7194,-2.7073,-2.7073,-2.7073,-2.7073,-2.7073,-2.7073,-2.7073,-2.7073,-2.7073,-2.7073,-2.7073,-2.57,-2.2702,-2.2173,-2.0537,-1.7529,-1.7141,-1.7001,-1.7001,-1.7001,-1.7001,-1.7001,-1.7001,-1.7001,-1.7001,-1.7001,-1.7001,-1.7001,-1.7001,-1.7087,-1.7227,-1.7335,-1.755,-1.7819,-1.8024,-1.8175,-1.8304,-1.8401,-1.8433,-1.8433,-1.8433,-1.8433,-1.8433,-1.8433,-1.8433,-1.8433,-1.8433,-1.8433,-1.8433,-1.8433,-1.8433,-1.8433,-1.8433,-1.8433,-1.8433,-1.8433,-1.8433,-1.8153,-1.758,-1.5584,-1.3737,-1.3024,-1.0875,-0.9302,-0.9302,-0.9302,-0.9302,-0.9302,-0.9302,-0.94,-0.9644,-0.9671,-0.9764,-1.0003,-1.0019,-1.0019,-1.0019,-1.0019,-1.0019,-1.0019,-1.0019,-0.9708,-0.909,-0.8934,-0.8466,-0.7842,-0.7681,-0.7525,-0.7525,-0.7525,-0.7525,-2.8975,-2.8975,-2.8975,-2.8975,-2.8975,0.0,-2.8975,-2.8975,-2.8975,-2.8975,-2.8975,-2.8975,-2.8975,-2.8975,-2.8874,-2.8636,-2.8517,-2.8277,-2.7642,-2.7521,-2.7401,-2.7194,-2.7073,-2.7073,-2.7073,-2.7073,-2.7073,-2.7073,-2.7073,-2.7073,-2.7073,-2.7073,-2.57,-2.2563,-2.2173,-2.0537,-1.7529,-1.7141,-1.7001,-1.7001,-1.7001,-1.7001,-1.7001,-1.7001,-1.7001,-1.7001,-1.7001,-1.7001,-1.7001,-1.7001,-1.7001,-1.7023,-1.7249,-1.7356,-1.7432,-1.7852,-1.8046,-1.8121,-1.8326,-1.8412,-1.8433,-1.8433,-1.8433,-1.8433,-1.8433,-1.8433,-1.8433,-1.8433,-1.8433,-1.8433,-1.8433,-1.8433,-1.8433,-1.8433,-1.8433,-1.8433,-1.8433,-1.8293,-1.7721,-1.6301,-1.4875,-1.3452,-1.1872,-1.0305,-0.9302,-0.9302,-0.9302,-0.9302,-0.9302,-0.9302,-0.94,-0.9644,-0.9671,-0.9764,-1.0003,-1.0019,-1.0019,-1.0019,-1.0019,-1.0019,-1.0019,-1.0019,-0.9553,-0.8778,-0.8778,-0.831,-0.7525,-0.7525,-0.7525,-0.7525,-0.7525,-0.7525,-2.9094,-2.8975,-2.8975,-2.8975,-2.8975,0.0,-2.8975,-2.8975,-2.8975,-2.8975,-2.8975,-2.8975,-2.8975,-2.8975,-2.8975,-2.8856,-2.8874,-2.8618,-2.802,-2.7642,-2.7521,-2.7401,-2.7177,-2.7073,-2.7073,-2.7073,-2.7073,-2.7073,-2.7073,-2.7073,-2.7073,-2.7073,-2.5562,-2.2159,-2.2034,-2.0397,-1.713,-1.7001,-1.7001,-1.7001,-1.7001,-1.7001,-1.7001,-1.7001,-1.7001,-1.7001,-1.7001,-1.7001,-1.7001,-1.7001,-1.7001,-1.7012,-1.7055,-1.7195,-1.7389,-1.7486,-1.7766,-1.8099,-1.8142,-1.8282,-1.8433,-1.8433,-1.8433,-1.8433,-1.8433,-1.8433,-1.8433,-1.8433,-1.8433,-1.8433,-1.8433,-1.8433,-1.8433,-1.8433,-1.8433,-1.8433,-1.8433,-1.7439,-1.616,-1.4591,-1.4164,-1.3452,-1.1872,-1.0305,-0.9302,-0.9302,-0.9302,-0.9302,-0.9302,-0.9302,-0.94,-0.9644,-0.9671,-0.9764,-1.0003,-1.0019,-1.0019,-1.0019,-1.0019,-1.0019,-1.0019,-0.9708,-0.9246,-0.8778,-0.815,-0.7681,-0.7525,-0.7525,-0.7525,-0.7525,-0.7525,-0.7525,-2.9094,-2.8975,-2.8975,-2.8975,-2.8975,0.0,0.0,-2.8975,-2.8975,-2.8975,-2.8975,-2.8975,-2.8975,-2.8975,-2.8975,-2.8975,-2.8975,-2.8856,-2.8498,-2.802,-2.7642,-2.7521,-2.7297,-2.7073,-2.7073,-2.7073,-2.7073,-2.7073,-2.7073,-2.7073,-2.7073,-2.7073,-2.5562,-2.2423,-2.2159,-2.0537,-1.7271,-1.713,-1.7001,-1.7001,-1.7001,-1.7001,-1.7001,-1.7001,-1.7001,-1.7001,-1.7001,-1.7001,-1.7001,-1.7001,-1.7001,-1.7001,-1.7001,-1.7077,-1.7206,-1.7335,-1.7529,-1.7755,-1.7863,-1.8067,-1.8261,-1.8261,-1.8336,-1.8433,-1.8433,-1.8433,-1.8433,-1.8433,-1.8433,-1.8433,-1.8433,-1.8433,-1.8433,-1.8433,-1.8433,-1.8433,-1.8433,-1.7861,-1.6583,-1.4307,-1.388,-1.3167,-1.0875,-0.9873,-0.9302,-0.9302,-0.9302,-0.9302,-0.9302,-0.9302,-0.94,-0.9644,-0.9671,-0.9764,-1.0003,-1.0019,-1.0019,-1.0019,-1.0019,-1.0019,-1.0019,-0.9864,-0.9402,-0.8778,-0.7994,-0.7525,-0.7525,-0.7525,-0.7525,-0.7525,-0.7525,-0.7525,-2.9094,-2.8975,-2.8975,-2.8975,-2.8975,-2.8975,0.0,0.0,0.0,-2.8975,-2.8975,-2.8975,-2.8975,-2.8975,-2.8975,-2.8975,-2.8975,-2.8975,-2.8975,-2.8498,-2.802,-2.7762,-2.7418,-2.7194,-2.7194,-2.7073,-2.7073,-2.7073,-2.7073,-2.7073,-2.7073,-2.683,-2.5439,-2.2563,-2.1923,-2.0284,-1.74,-1.713,-1.7001,-1.7001,-1.7001,-1.7001,-1.7001,-1.7001,-1.7001,-1.7001,-1.7001,-1.7001,-1.7001,-1.7001,-1.7001,-1.7001,-1.7001,-1.7001,-1.7033,-1.7227,-1.7335,-1.74,-1.7593,-1.7819,-1.8024,-1.8024,-1.8175,-1.8369,-1.8369,-1.8401,-1.8433,-1.8433,-1.8433,-1.8433,-1.8433,-1.8433,-1.8433,-1.8433,-1.8433,-1.8433,-1.8433,-1.8002,-1.6866,-1.4307,-1.3452,-1.2166,-0.9735,-0.9302,-0.9302,-0.9302,-0.9302,-0.9302,-0.9302,-0.9302,-0.94,-0.9644,-0.9671,-0.9764,-1.0003,-1.0019,-1.0019,-1.0019,-1.0019,-1.0019,-1.0019,-0.9864,-0.9402,-0.8622,-0.7838,-0.7525,-0.7525,-0.7525,-0.7525,-0.7525,-0.7525,-0.7525,-2.9213,-2.8975,-2.8975,-2.8975,-2.8975,-2.8975,-2.8975,0.0,-2.8975,-2.8975,0.0,-2.8975,-2.8975,0.0,0.0,-2.8975,-2.8975,-2.8975,-2.8975,-2.8636,-2.8397,-2.8397,-2.7779,-2.7401,-2.7401,-2.7177,-2.7073,-2.7073,-2.7073,-2.7073,-2.7073,-2.5945,-2.4301,-2.2159,-2.0916,-1.9152,-1.713,-1.7001,-1.7001,-1.7001,-1.7001,-1.7001,-1.7001,-1.7001,-1.7001,-1.7001,-1.7001,-1.7001,-1.7001,-1.7001,-1.7001,-1.7001,-1.7001,-1.7001,-1.7001,-1.7033,-1.7184,-1.7378,-1.741,-1.7572,-1.7766,-1.7766,-1.7927,-1.8132,-1.8132,-1.8272,-1.8433,-1.8433,-1.8433,-1.8433,-1.8433,-1.8433,-1.8433,-1.8433,-1.8433,-1.8433,-1.8433,-1.6301,-1.4307,-1.4022,-1.1736,-0.9735,-0.9302,-0.9302,-0.9302,-0.9302,-0.9302,-0.9302,-0.9302,-0.9302,-0.94,-0.9644,-0.9671,-0.9764,-1.0003,-1.0019,-1.0019,-1.0019,-1.0019,-1.0019,-1.0019,-0.9246,-0.8778,-0.8315,-0.7686,-0.7525,-0.7525,-0.7525,-0.7525,-0.7525,-0.7525,-0.7525,-2.9213,-2.8975,-2.8975,-2.8975,-2.8975,-2.8975,-2.8975,-2.8975,-2.8975,-2.8975,0.0,0.0,0.0,0.0,0.0,0.0,-2.8975,-2.8975,-2.8975,-2.8874,-2.8755,-2.8517,-2.802,-2.7762,-2.7521,-2.7297,-2.7073,-2.7073,-2.7073,-2.7073,-2.7073,-2.5823,-2.4193,-2.2438,-2.079,-1.9164,-1.7271,-1.713,-1.7001,-1.7001,-1.7001,-1.7001,-1.7001,-1.7001,-1.7001,-1.7001,-1.7001,-1.7001,-1.7001,-1.7001,-1.7001,-1.7001,-1.7001,-1.7001,-1.7001,-1.7001,-1.7066,-1.7163,-1.7163,-1.7324,-1.754,-1.768,-1.7787,-1.7906,-1.8046,-1.8164,-1.8261,-1.8401,-1.8433,-1.8433,-1.8433,-1.8433,-1.8433,-1.8433,-1.8433,-1.8433,-1.8433,-1.6725,-1.5017,-1.4022,-1.2166,-1.0299,-0.9446,-0.9302,-0.9302,-0.9302,-0.9302,-0.9302,-0.9302,-0.9302,-0.94,-0.9644,-0.9671,-0.9764,-1.0003,-1.0019,-1.0019,-1.0019,-1.0019,-1.0019,-1.0019,-0.9246,-0.8778,-0.8622,-0.7838,-0.7525,-0.7525,-0.7525,-0.7525,-0.7525,-0.7525,-0.7525,-2.9213,-2.8975,-2.8975,-2.8975,-2.8975,-2.8975,-2.8975,-2.8975,-2.8975,-2.8975,-2.8975,0.0,0.0,0.0,-2.8975,-2.8975,0.0,-2.8975,-2.8975,-2.8975,-2.8874,-2.8517,-2.814,-2.7762,-2.7401,-2.7177,-2.7073,-2.7073,-2.7073,-2.7073,-2.7073,-2.5456,-2.3946,-2.2702,-2.0676,-1.892,-1.7529,-1.7271,-1.713,-1.7001,-1.7001,-1.7001,-1.7001,-1.7001,-1.7001,-1.7001,-1.7001,-1.7001,-1.7001,-1.7001,-1.7001,-1.7001,-1.7001,-1.7001,-1.7001,-1.7001,-1.7001,-1.7001,-1.7001,-1.712,-1.7303,-1.7464,-1.7572,-1.7658,-1.7841,-1.7938,-1.8046,-1.8272,-1.8336,-1.8358,-1.8422,-1.8433,-1.8433,-1.8433,-1.8433,-1.8433,-1.8433,-1.6866,-1.5301,-1.4164,-1.2302,-1.0587,-0.9446,-0.9302,-0.9302,-0.9302,-0.9302,-0.9302,-0.9302,-0.9302,-0.94,-0.9644,-0.9671,-0.9764,-1.0003,-1.0019,-1.0019,-1.0019,-1.0019,-1.0019,-1.0019,-0.9246,-0.8778,-0.8778,-0.7994,-0.7525,-0.7525,-0.7525,-0.7525,-0.7525,-0.7525,-0.7525,-2.9213,-2.8975,-2.8975,-2.8975,-2.8975,-2.8975,-2.8975,-2.8975,-2.8975,-2.8975,-2.8975,-2.8975,-2.8975,-2.8975,-2.8975,-2.8975,-2.8975,0.0,0.0,-2.8975,-2.8874,-2.8517,-2.79,-2.7401,-2.7194,-2.7073,-2.7073,-2.7073,-2.7073,-2.7073,-2.7073,-2.4579,-2.2952,-2.2577,-2.0081,-1.8314,-1.7529,-1.7529,-1.7271,-1.7001,-1.7001,-1.7001,-1.7001,-1.7001,-1.7001,-1.7001,-1.7001,-1.7001,-1.7001,-1.7001,-1.7001,-1.7001,-1.7001,-1.7001,-1.7001,-1.7001,-1.7001,-1.7001,-1.7001,-1.7012,-1.7023,-1.7023,-1.7195,-1.7389,-1.74,-1.755,-1.7787,-1.8035,-1.811,-1.8153,-1.8379,-1.8433,-1.8433,-1.8433,-1.8433,-1.8433,-1.8433,-1.6018,-1.4022,-1.388,-1.1449,-0.9302,-0.9302,-0.9302,-0.9302,-0.9302,-0.9302,-0.9302,-0.9302,-0.9302,-0.94,-0.9644,-0.9671,-0.9764,-1.0003,-1.0019,-1.0019,-1.0019,-1.0019,-1.0019,-1.0019,-0.9246,-0.8778,-0.8778,-0.7994,-0.7525,-0.7525,-0.7525,-0.7525,-0.7525,-0.7525,-0.7525,-2.945,-2.9213,-2.8975,-2.8975,-2.8975,-2.8975,-2.8975,-2.8975,-2.8975,-2.8975,-2.8975,-2.8975,-2.8975,-2.8975,-2.8975,-2.8975,-2.8975,-2.8975,0.0,-2.8874,-2.8517,-2.8259,-2.802,-2.7659,-2.7418,-2.7177,-2.7073,-2.7073,-2.7073,-2.7073,-2.7073,-2.4579,-2.3076,-2.2952,-2.0081,-1.8442,-1.8185,-1.7787,-1.74,-1.7271,-1.7141,-1.7001,-1.7001,-1.7001,-1.7001,-1.7001,-1.7001,-1.7001,-1.7001,-1.7001,-1.7001,-1.7001,-1.7001,-1.7001,-1.7001,-1.7001,-1.7001,-1.7001,-1.7001,-1.7001,-1.7001,-1.7001,-1.7066,-1.7163,-1.7335,-1.7432,-1.754,-1.7776,-1.7852,-1.7906,-1.8142,-1.8207,-1.825,-1.8401,-1.8433,-1.8433,-1.8433,-1.6018,-1.388,-1.388,-1.1449,-0.9302,-0.9302,-0.9302,-0.9302,-0.9302,-0.9302,-0.9302,-0.9302,-0.9302,-0.94,-0.9644,-0.9671,-0.9764,-1.0003,-1.0019,-1.0019,-1.0019,-1.0019,-1.0019,-1.0019,-0.9246,-0.8778,-0.8778,-0.7994,-0.7525,-0.7525,-0.7525,-0.7525,-0.7525,-0.7525,-0.7525,-2.9568,-2.9213,-2.8975,-2.8975,-2.8975,-2.8975,-2.8975,-2.8975,-2.8975,-2.8975,-2.8975,-2.8975,-2.8975,-2.8975,-2.8975,-2.8975,-2.8975,-2.8975,0.0,-2.8874,-2.8517,-2.802,-2.79,-2.7642,-2.7418,-2.7177,-2.7073,-2.7073,-2.7073,-2.7073,-2.7073,-2.4579,-2.3076,-2.3076,-2.0322,-1.8699,-1.8571,-1.8045,-1.7658,-1.7529,-1.7141,-1.7001,-1.7001,-1.7001,-1.7001,-1.7001,-1.7001,-1.7001,-1.7001,-1.7001,-1.7001,-1.7001,-1.7001,-1.7001,-1.7001,-1.7001,-1.7001,-1.7001,-1.7001,-1.7001,-1.7001,-1.7001,-1.7001,-1.7033,-1.7195,-1.7249,-1.7313,-1.7626,-1.7658,-1.769,-1.811,-1.8153,-1.8153,-1.8379,-1.8433,-1.8433,-1.8433,-1.6018,-1.388,-1.388,-1.1449,-0.9302,-0.9302,-0.9302,-0.9302,-0.9302,-0.9302,-0.9302,-0.9302,-0.9302,-0.94,-0.9644,-0.9671,-0.9764,-1.0003,-1.0019,-1.0019,-1.0019,-1.0019,-1.0019,-1.0019,-0.9246,-0.8797,-0.8836,-0.8011,-0.7542,-0.7574,-0.7542,-0.7525,-0.7525,-0.7525,-0.7525]}]]